<?xml version="1.0" encoding="UTF-8" standalone="no" ?>
<gpx xmlns="http://www.topografix.com/GPX/1/1" xmlns:xsi="http://www.w3.org/2001/XMLSchema-instance" xsi:schemaLocation="http://www.topografix.com/GPX/1/1 http://www.topografix.com/GPX/1/1/gpx.xsd" version="1.1" creator="VisuGPX - https://www.visugpx.com">
  <metadata>
    <name>cancon saint pastour</name>
    <desc><![CDATA[jolie circuit avec un debut un peut raide]]></desc>
  </metadata>
  <trk>
    <name><![CDATA[Sequence 1]]></name>
    <trkseg>
      <trkpt lat="44.53632" lon="0.62454">
        <ele>154</ele>
        <time>2015-12-20T08:14:10Z</time>
      </trkpt>
      <trkpt lat="44.53632" lon="0.62454">
        <ele>154</ele>
        <time>2015-12-20T08:14:11Z</time>
      </trkpt>
      <trkpt lat="44.53632" lon="0.62455">
        <ele>153</ele>
        <time>2015-12-20T08:14:14Z</time>
      </trkpt>
      <trkpt lat="44.53632" lon="0.62454">
        <ele>153</ele>
        <time>2015-12-20T08:14:18Z</time>
      </trkpt>
      <trkpt lat="44.53632" lon="0.62454">
        <ele>153</ele>
        <time>2015-12-20T08:14:20Z</time>
      </trkpt>
      <trkpt lat="44.53632" lon="0.62454">
        <ele>153</ele>
        <time>2015-12-20T08:14:23Z</time>
      </trkpt>
      <trkpt lat="44.53632" lon="0.62454">
        <ele>153</ele>
        <time>2015-12-20T08:14:26Z</time>
      </trkpt>
      <trkpt lat="44.53633" lon="0.62454">
        <ele>154</ele>
        <time>2015-12-20T08:14:29Z</time>
      </trkpt>
      <trkpt lat="44.53633" lon="0.62455">
        <ele>154</ele>
        <time>2015-12-20T08:14:32Z</time>
      </trkpt>
      <trkpt lat="44.53633" lon="0.62455">
        <ele>156</ele>
        <time>2015-12-20T08:14:35Z</time>
      </trkpt>
      <trkpt lat="44.53633" lon="0.62455">
        <ele>156</ele>
        <time>2015-12-20T08:14:38Z</time>
      </trkpt>
      <trkpt lat="44.53633" lon="0.62455">
        <ele>155</ele>
        <time>2015-12-20T08:14:41Z</time>
      </trkpt>
      <trkpt lat="44.53633" lon="0.62455">
        <ele>155</ele>
        <time>2015-12-20T08:14:44Z</time>
      </trkpt>
      <trkpt lat="44.53633" lon="0.62455">
        <ele>155</ele>
        <time>2015-12-20T08:14:47Z</time>
      </trkpt>
      <trkpt lat="44.53633" lon="0.62455">
        <ele>155</ele>
        <time>2015-12-20T08:14:50Z</time>
      </trkpt>
      <trkpt lat="44.53633" lon="0.62455">
        <ele>155</ele>
        <time>2015-12-20T08:14:53Z</time>
      </trkpt>
      <trkpt lat="44.53633" lon="0.62455">
        <ele>155</ele>
        <time>2015-12-20T08:14:56Z</time>
      </trkpt>
      <trkpt lat="44.53633" lon="0.62455">
        <ele>155</ele>
        <time>2015-12-20T08:14:59Z</time>
      </trkpt>
      <trkpt lat="44.53633" lon="0.62455">
        <ele>155</ele>
        <time>2015-12-20T08:15:02Z</time>
      </trkpt>
      <trkpt lat="44.53633" lon="0.62455">
        <ele>155</ele>
        <time>2015-12-20T08:15:05Z</time>
      </trkpt>
      <trkpt lat="44.53633" lon="0.62455">
        <ele>155</ele>
        <time>2015-12-20T08:15:08Z</time>
      </trkpt>
      <trkpt lat="44.53633" lon="0.62455">
        <ele>155</ele>
        <time>2015-12-20T08:15:11Z</time>
      </trkpt>
      <trkpt lat="44.53633" lon="0.62455">
        <ele>155</ele>
        <time>2015-12-20T08:15:14Z</time>
      </trkpt>
      <trkpt lat="44.53633" lon="0.62455">
        <ele>155</ele>
        <time>2015-12-20T08:15:17Z</time>
      </trkpt>
      <trkpt lat="44.53633" lon="0.62455">
        <ele>156</ele>
        <time>2015-12-20T08:15:20Z</time>
      </trkpt>
      <trkpt lat="44.53633" lon="0.62455">
        <ele>155</ele>
        <time>2015-12-20T08:15:23Z</time>
      </trkpt>
      <trkpt lat="44.53633" lon="0.62455">
        <ele>156</ele>
        <time>2015-12-20T08:15:26Z</time>
      </trkpt>
      <trkpt lat="44.53633" lon="0.62455">
        <ele>156</ele>
        <time>2015-12-20T08:15:29Z</time>
      </trkpt>
      <trkpt lat="44.53633" lon="0.62455">
        <ele>156</ele>
        <time>2015-12-20T08:15:32Z</time>
      </trkpt>
      <trkpt lat="44.53632" lon="0.62457">
        <ele>157</ele>
        <time>2015-12-20T08:15:35Z</time>
      </trkpt>
      <trkpt lat="44.53632" lon="0.62463">
        <ele>157</ele>
        <time>2015-12-20T08:15:38Z</time>
      </trkpt>
      <trkpt lat="44.53628" lon="0.62478">
        <ele>157</ele>
        <time>2015-12-20T08:15:43Z</time>
      </trkpt>
      <trkpt lat="44.5362" lon="0.62474">
        <ele>159</ele>
        <time>2015-12-20T08:15:48Z</time>
      </trkpt>
      <trkpt lat="44.53613" lon="0.62474">
        <ele>160</ele>
        <time>2015-12-20T08:15:53Z</time>
      </trkpt>
      <trkpt lat="44.53607" lon="0.62473">
        <ele>159</ele>
        <time>2015-12-20T08:15:58Z</time>
      </trkpt>
      <trkpt lat="44.53606" lon="0.62471">
        <ele>158</ele>
        <time>2015-12-20T08:16:04Z</time>
      </trkpt>
      <trkpt lat="44.53606" lon="0.62471">
        <ele>158</ele>
        <time>2015-12-20T08:16:06Z</time>
      </trkpt>
      <trkpt lat="44.53604" lon="0.6247">
        <ele>160</ele>
        <time>2015-12-20T08:16:09Z</time>
      </trkpt>
      <trkpt lat="44.53596" lon="0.6247">
        <ele>159</ele>
        <time>2015-12-20T08:16:14Z</time>
      </trkpt>
      <trkpt lat="44.53587" lon="0.62466">
        <ele>161</ele>
        <time>2015-12-20T08:16:19Z</time>
      </trkpt>
      <trkpt lat="44.53581" lon="0.62466">
        <ele>165</ele>
        <time>2015-12-20T08:16:27Z</time>
      </trkpt>
      <trkpt lat="44.5358" lon="0.62465">
        <ele>165</ele>
        <time>2015-12-20T08:16:32Z</time>
      </trkpt>
      <trkpt lat="44.5358" lon="0.62465">
        <ele>165</ele>
        <time>2015-12-20T08:16:34Z</time>
      </trkpt>
      <trkpt lat="44.53579" lon="0.62465">
        <ele>164</ele>
        <time>2015-12-20T08:16:37Z</time>
      </trkpt>
      <trkpt lat="44.53577" lon="0.62467">
        <ele>165</ele>
        <time>2015-12-20T08:16:40Z</time>
      </trkpt>
      <trkpt lat="44.53575" lon="0.62468">
        <ele>165</ele>
        <time>2015-12-20T08:16:48Z</time>
      </trkpt>
      <trkpt lat="44.53575" lon="0.62468">
        <ele>164</ele>
        <time>2015-12-20T08:16:52Z</time>
      </trkpt>
      <trkpt lat="44.53575" lon="0.62468">
        <ele>165</ele>
        <time>2015-12-20T08:16:53Z</time>
      </trkpt>
      <trkpt lat="44.53574" lon="0.62467">
        <ele>165</ele>
        <time>2015-12-20T08:16:56Z</time>
      </trkpt>
      <trkpt lat="44.53574" lon="0.62468">
        <ele>165</ele>
        <time>2015-12-20T08:16:59Z</time>
      </trkpt>
      <trkpt lat="44.53576" lon="0.62465">
        <ele>166</ele>
        <time>2015-12-20T08:17:02Z</time>
      </trkpt>
      <trkpt lat="44.5358" lon="0.62451">
        <ele>169</ele>
        <time>2015-12-20T08:17:07Z</time>
      </trkpt>
      <trkpt lat="44.53582" lon="0.62434">
        <ele>171</ele>
        <time>2015-12-20T08:17:12Z</time>
      </trkpt>
      <trkpt lat="44.53584" lon="0.62417">
        <ele>173</ele>
        <time>2015-12-20T08:17:17Z</time>
      </trkpt>
      <trkpt lat="44.53585" lon="0.62396">
        <ele>177</ele>
        <time>2015-12-20T08:17:26Z</time>
      </trkpt>
      <trkpt lat="44.53584" lon="0.62393">
        <ele>177</ele>
        <time>2015-12-20T08:17:27Z</time>
      </trkpt>
      <trkpt lat="44.53587" lon="0.62377">
        <ele>178</ele>
        <time>2015-12-20T08:17:34Z</time>
      </trkpt>
      <trkpt lat="44.53586" lon="0.62371">
        <ele>178</ele>
        <time>2015-12-20T08:17:37Z</time>
      </trkpt>
      <trkpt lat="44.53585" lon="0.62351">
        <ele>181</ele>
        <time>2015-12-20T08:17:43Z</time>
      </trkpt>
      <trkpt lat="44.53585" lon="0.62339">
        <ele>182</ele>
        <time>2015-12-20T08:17:47Z</time>
      </trkpt>
      <trkpt lat="44.53582" lon="0.62318">
        <ele>182</ele>
        <time>2015-12-20T08:17:53Z</time>
      </trkpt>
      <trkpt lat="44.53578" lon="0.62307">
        <ele>182</ele>
        <time>2015-12-20T08:17:58Z</time>
      </trkpt>
      <trkpt lat="44.53574" lon="0.62298">
        <ele>184</ele>
        <time>2015-12-20T08:18:03Z</time>
      </trkpt>
      <trkpt lat="44.53567" lon="0.62293">
        <ele>183</ele>
        <time>2015-12-20T08:18:07Z</time>
      </trkpt>
      <trkpt lat="44.5356" lon="0.62286">
        <ele>185</ele>
        <time>2015-12-20T08:18:12Z</time>
      </trkpt>
      <trkpt lat="44.53554" lon="0.62278">
        <ele>186</ele>
        <time>2015-12-20T08:18:17Z</time>
      </trkpt>
      <trkpt lat="44.53548" lon="0.62273">
        <ele>188</ele>
        <time>2015-12-20T08:18:22Z</time>
      </trkpt>
      <trkpt lat="44.53542" lon="0.62274">
        <ele>188</ele>
        <time>2015-12-20T08:18:27Z</time>
      </trkpt>
      <trkpt lat="44.53532" lon="0.62276">
        <ele>189</ele>
        <time>2015-12-20T08:18:34Z</time>
      </trkpt>
      <trkpt lat="44.53529" lon="0.62276">
        <ele>190</ele>
        <time>2015-12-20T08:18:37Z</time>
      </trkpt>
      <trkpt lat="44.53521" lon="0.62278">
        <ele>189</ele>
        <time>2015-12-20T08:18:42Z</time>
      </trkpt>
      <trkpt lat="44.53515" lon="0.62279">
        <ele>190</ele>
        <time>2015-12-20T08:18:47Z</time>
      </trkpt>
      <trkpt lat="44.5351" lon="0.62287">
        <ele>191</ele>
        <time>2015-12-20T08:18:52Z</time>
      </trkpt>
      <trkpt lat="44.53506" lon="0.62291">
        <ele>192</ele>
        <time>2015-12-20T08:18:57Z</time>
      </trkpt>
      <trkpt lat="44.53505" lon="0.62298">
        <ele>192</ele>
        <time>2015-12-20T08:19:02Z</time>
      </trkpt>
      <trkpt lat="44.53501" lon="0.62302">
        <ele>192</ele>
        <time>2015-12-20T08:19:07Z</time>
      </trkpt>
      <trkpt lat="44.535" lon="0.62302">
        <ele>192</ele>
        <time>2015-12-20T08:19:12Z</time>
      </trkpt>
      <trkpt lat="44.535" lon="0.62302">
        <ele>191</ele>
        <time>2015-12-20T08:19:15Z</time>
      </trkpt>
      <trkpt lat="44.535" lon="0.62302">
        <ele>191</ele>
        <time>2015-12-20T08:19:18Z</time>
      </trkpt>
      <trkpt lat="44.535" lon="0.62302">
        <ele>191</ele>
        <time>2015-12-20T08:19:21Z</time>
      </trkpt>
      <trkpt lat="44.535" lon="0.62302">
        <ele>190</ele>
        <time>2015-12-20T08:19:24Z</time>
      </trkpt>
      <trkpt lat="44.535" lon="0.62303">
        <ele>190</ele>
        <time>2015-12-20T08:19:27Z</time>
      </trkpt>
      <trkpt lat="44.535" lon="0.62303">
        <ele>190</ele>
        <time>2015-12-20T08:19:30Z</time>
      </trkpt>
      <trkpt lat="44.535" lon="0.62303">
        <ele>190</ele>
        <time>2015-12-20T08:19:33Z</time>
      </trkpt>
      <trkpt lat="44.535" lon="0.62302">
        <ele>190</ele>
        <time>2015-12-20T08:19:36Z</time>
      </trkpt>
      <trkpt lat="44.53499" lon="0.62302">
        <ele>189</ele>
        <time>2015-12-20T08:19:39Z</time>
      </trkpt>
      <trkpt lat="44.535" lon="0.62303">
        <ele>189</ele>
        <time>2015-12-20T08:19:42Z</time>
      </trkpt>
      <trkpt lat="44.53501" lon="0.62303">
        <ele>189</ele>
        <time>2015-12-20T08:19:45Z</time>
      </trkpt>
      <trkpt lat="44.53501" lon="0.62303">
        <ele>189</ele>
        <time>2015-12-20T08:19:48Z</time>
      </trkpt>
      <trkpt lat="44.53501" lon="0.62303">
        <ele>189</ele>
        <time>2015-12-20T08:19:51Z</time>
      </trkpt>
      <trkpt lat="44.53501" lon="0.62303">
        <ele>189</ele>
        <time>2015-12-20T08:19:54Z</time>
      </trkpt>
      <trkpt lat="44.53501" lon="0.62303">
        <ele>189</ele>
        <time>2015-12-20T08:19:57Z</time>
      </trkpt>
      <trkpt lat="44.53501" lon="0.62303">
        <ele>189</ele>
        <time>2015-12-20T08:20:00Z</time>
      </trkpt>
      <trkpt lat="44.53501" lon="0.62303">
        <ele>189</ele>
        <time>2015-12-20T08:20:03Z</time>
      </trkpt>
      <trkpt lat="44.53501" lon="0.62303">
        <ele>189</ele>
        <time>2015-12-20T08:20:06Z</time>
      </trkpt>
      <trkpt lat="44.53501" lon="0.62303">
        <ele>189</ele>
        <time>2015-12-20T08:20:09Z</time>
      </trkpt>
      <trkpt lat="44.53501" lon="0.62303">
        <ele>189</ele>
        <time>2015-12-20T08:20:12Z</time>
      </trkpt>
      <trkpt lat="44.53501" lon="0.62303">
        <ele>189</ele>
        <time>2015-12-20T08:20:15Z</time>
      </trkpt>
      <trkpt lat="44.53501" lon="0.62303">
        <ele>189</ele>
        <time>2015-12-20T08:20:18Z</time>
      </trkpt>
      <trkpt lat="44.53501" lon="0.62303">
        <ele>189</ele>
        <time>2015-12-20T08:20:21Z</time>
      </trkpt>
      <trkpt lat="44.53501" lon="0.62303">
        <ele>189</ele>
        <time>2015-12-20T08:20:24Z</time>
      </trkpt>
      <trkpt lat="44.535" lon="0.62303">
        <ele>189</ele>
        <time>2015-12-20T08:20:27Z</time>
      </trkpt>
      <trkpt lat="44.53501" lon="0.62303">
        <ele>189</ele>
        <time>2015-12-20T08:20:30Z</time>
      </trkpt>
      <trkpt lat="44.535" lon="0.62303">
        <ele>189</ele>
        <time>2015-12-20T08:20:33Z</time>
      </trkpt>
      <trkpt lat="44.535" lon="0.62302">
        <ele>190</ele>
        <time>2015-12-20T08:20:36Z</time>
      </trkpt>
      <trkpt lat="44.53504" lon="0.62301">
        <ele>188</ele>
        <time>2015-12-20T08:20:39Z</time>
      </trkpt>
      <trkpt lat="44.53504" lon="0.62302">
        <ele>188</ele>
        <time>2015-12-20T08:20:44Z</time>
      </trkpt>
      <trkpt lat="44.53505" lon="0.62302">
        <ele>188</ele>
        <time>2015-12-20T08:20:47Z</time>
      </trkpt>
      <trkpt lat="44.53505" lon="0.62302">
        <ele>188</ele>
        <time>2015-12-20T08:20:50Z</time>
      </trkpt>
      <trkpt lat="44.53505" lon="0.62302">
        <ele>188</ele>
        <time>2015-12-20T08:20:53Z</time>
      </trkpt>
      <trkpt lat="44.53505" lon="0.62302">
        <ele>188</ele>
        <time>2015-12-20T08:20:56Z</time>
      </trkpt>
      <trkpt lat="44.53505" lon="0.62302">
        <ele>188</ele>
        <time>2015-12-20T08:20:59Z</time>
      </trkpt>
      <trkpt lat="44.53505" lon="0.62302">
        <ele>188</ele>
        <time>2015-12-20T08:21:02Z</time>
      </trkpt>
      <trkpt lat="44.53505" lon="0.62302">
        <ele>188</ele>
        <time>2015-12-20T08:21:05Z</time>
      </trkpt>
      <trkpt lat="44.53505" lon="0.62302">
        <ele>188</ele>
        <time>2015-12-20T08:21:08Z</time>
      </trkpt>
      <trkpt lat="44.53505" lon="0.62302">
        <ele>188</ele>
        <time>2015-12-20T08:21:12Z</time>
      </trkpt>
      <trkpt lat="44.53505" lon="0.62302">
        <ele>188</ele>
        <time>2015-12-20T08:21:14Z</time>
      </trkpt>
      <trkpt lat="44.53505" lon="0.62302">
        <ele>188</ele>
        <time>2015-12-20T08:21:17Z</time>
      </trkpt>
      <trkpt lat="44.53505" lon="0.62302">
        <ele>188</ele>
        <time>2015-12-20T08:21:21Z</time>
      </trkpt>
      <trkpt lat="44.53505" lon="0.62302">
        <ele>188</ele>
        <time>2015-12-20T08:21:23Z</time>
      </trkpt>
      <trkpt lat="44.53505" lon="0.62302">
        <ele>188</ele>
        <time>2015-12-20T08:21:27Z</time>
      </trkpt>
      <trkpt lat="44.53505" lon="0.62302">
        <ele>188</ele>
        <time>2015-12-20T08:21:29Z</time>
      </trkpt>
      <trkpt lat="44.53506" lon="0.62298">
        <ele>190</ele>
        <time>2015-12-20T08:21:34Z</time>
      </trkpt>
      <trkpt lat="44.53504" lon="0.62295">
        <ele>192</ele>
        <time>2015-12-20T08:21:37Z</time>
      </trkpt>
      <trkpt lat="44.535" lon="0.62302">
        <ele>192</ele>
        <time>2015-12-20T08:21:42Z</time>
      </trkpt>
      <trkpt lat="44.535" lon="0.62303">
        <ele>191</ele>
        <time>2015-12-20T08:21:47Z</time>
      </trkpt>
      <trkpt lat="44.535" lon="0.62302">
        <ele>191</ele>
        <time>2015-12-20T08:21:50Z</time>
      </trkpt>
      <trkpt lat="44.535" lon="0.62303">
        <ele>191</ele>
        <time>2015-12-20T08:21:53Z</time>
      </trkpt>
      <trkpt lat="44.535" lon="0.62303">
        <ele>191</ele>
        <time>2015-12-20T08:21:56Z</time>
      </trkpt>
      <trkpt lat="44.535" lon="0.62303">
        <ele>191</ele>
        <time>2015-12-20T08:22:01Z</time>
      </trkpt>
      <trkpt lat="44.535" lon="0.62303">
        <ele>191</ele>
        <time>2015-12-20T08:22:02Z</time>
      </trkpt>
      <trkpt lat="44.535" lon="0.62303">
        <ele>191</ele>
        <time>2015-12-20T08:22:06Z</time>
      </trkpt>
      <trkpt lat="44.535" lon="0.62303">
        <ele>191</ele>
        <time>2015-12-20T08:22:08Z</time>
      </trkpt>
      <trkpt lat="44.535" lon="0.62303">
        <ele>191</ele>
        <time>2015-12-20T08:22:11Z</time>
      </trkpt>
      <trkpt lat="44.535" lon="0.62303">
        <ele>191</ele>
        <time>2015-12-20T08:22:15Z</time>
      </trkpt>
      <trkpt lat="44.535" lon="0.62303">
        <ele>191</ele>
        <time>2015-12-20T08:22:17Z</time>
      </trkpt>
      <trkpt lat="44.535" lon="0.62303">
        <ele>192</ele>
        <time>2015-12-20T08:22:20Z</time>
      </trkpt>
      <trkpt lat="44.53499" lon="0.62304">
        <ele>192</ele>
        <time>2015-12-20T08:22:23Z</time>
      </trkpt>
      <trkpt lat="44.53499" lon="0.62304">
        <ele>193</ele>
        <time>2015-12-20T08:22:26Z</time>
      </trkpt>
      <trkpt lat="44.53499" lon="0.62304">
        <ele>192</ele>
        <time>2015-12-20T08:22:29Z</time>
      </trkpt>
      <trkpt lat="44.535" lon="0.62304">
        <ele>192</ele>
        <time>2015-12-20T08:22:32Z</time>
      </trkpt>
      <trkpt lat="44.535" lon="0.62304">
        <ele>191</ele>
        <time>2015-12-20T08:22:37Z</time>
      </trkpt>
      <trkpt lat="44.535" lon="0.62304">
        <ele>191</ele>
        <time>2015-12-20T08:22:42Z</time>
      </trkpt>
      <trkpt lat="44.535" lon="0.62304">
        <ele>191</ele>
        <time>2015-12-20T08:22:43Z</time>
      </trkpt>
      <trkpt lat="44.535" lon="0.62304">
        <ele>192</ele>
        <time>2015-12-20T08:22:46Z</time>
      </trkpt>
      <trkpt lat="44.535" lon="0.62304">
        <ele>192</ele>
        <time>2015-12-20T08:22:49Z</time>
      </trkpt>
      <trkpt lat="44.53499" lon="0.62305">
        <ele>191</ele>
        <time>2015-12-20T08:22:52Z</time>
      </trkpt>
      <trkpt lat="44.53498" lon="0.62306">
        <ele>190</ele>
        <time>2015-12-20T08:22:57Z</time>
      </trkpt>
      <trkpt lat="44.53497" lon="0.62307">
        <ele>191</ele>
        <time>2015-12-20T08:22:58Z</time>
      </trkpt>
      <trkpt lat="44.53491" lon="0.62312">
        <ele>191</ele>
        <time>2015-12-20T08:23:03Z</time>
      </trkpt>
      <trkpt lat="44.53484" lon="0.62316">
        <ele>192</ele>
        <time>2015-12-20T08:23:08Z</time>
      </trkpt>
      <trkpt lat="44.53473" lon="0.6233">
        <ele>193</ele>
        <time>2015-12-20T08:23:16Z</time>
      </trkpt>
      <trkpt lat="44.5347" lon="0.62333">
        <ele>193</ele>
        <time>2015-12-20T08:23:18Z</time>
      </trkpt>
      <trkpt lat="44.53464" lon="0.62341">
        <ele>194</ele>
        <time>2015-12-20T08:23:23Z</time>
      </trkpt>
      <trkpt lat="44.53459" lon="0.6235">
        <ele>196</ele>
        <time>2015-12-20T08:23:28Z</time>
      </trkpt>
      <trkpt lat="44.53458" lon="0.6236">
        <ele>197</ele>
        <time>2015-12-20T08:23:33Z</time>
      </trkpt>
      <trkpt lat="44.53456" lon="0.62367">
        <ele>197</ele>
        <time>2015-12-20T08:23:38Z</time>
      </trkpt>
      <trkpt lat="44.5345" lon="0.62371">
        <ele>197</ele>
        <time>2015-12-20T08:23:43Z</time>
      </trkpt>
      <trkpt lat="44.53442" lon="0.62373">
        <ele>199</ele>
        <time>2015-12-20T08:23:48Z</time>
      </trkpt>
      <trkpt lat="44.53436" lon="0.62373">
        <ele>200</ele>
        <time>2015-12-20T08:23:53Z</time>
      </trkpt>
      <trkpt lat="44.53436" lon="0.62372">
        <ele>200</ele>
        <time>2015-12-20T08:24:00Z</time>
      </trkpt>
      <trkpt lat="44.53437" lon="0.62373">
        <ele>200</ele>
        <time>2015-12-20T08:24:01Z</time>
      </trkpt>
      <trkpt lat="44.53447" lon="0.62368">
        <ele>199</ele>
        <time>2015-12-20T08:24:06Z</time>
      </trkpt>
      <trkpt lat="44.53431" lon="0.62364">
        <ele>194</ele>
        <time>2015-12-20T08:24:11Z</time>
      </trkpt>
      <trkpt lat="44.53418" lon="0.62376">
        <ele>194</ele>
        <time>2015-12-20T08:24:16Z</time>
      </trkpt>
      <trkpt lat="44.53418" lon="0.6238">
        <ele>194</ele>
        <time>2015-12-20T08:24:21Z</time>
      </trkpt>
      <trkpt lat="44.53419" lon="0.6238">
        <ele>194</ele>
        <time>2015-12-20T08:24:26Z</time>
      </trkpt>
      <trkpt lat="44.53419" lon="0.6238">
        <ele>194</ele>
        <time>2015-12-20T08:24:29Z</time>
      </trkpt>
      <trkpt lat="44.53419" lon="0.6238">
        <ele>194</ele>
        <time>2015-12-20T08:24:32Z</time>
      </trkpt>
      <trkpt lat="44.53419" lon="0.6238">
        <ele>194</ele>
        <time>2015-12-20T08:24:35Z</time>
      </trkpt>
      <trkpt lat="44.53419" lon="0.62383">
        <ele>194</ele>
        <time>2015-12-20T08:24:38Z</time>
      </trkpt>
      <trkpt lat="44.5342" lon="0.62398">
        <ele>192</ele>
        <time>2015-12-20T08:24:43Z</time>
      </trkpt>
      <trkpt lat="44.53431" lon="0.62423">
        <ele>187</ele>
        <time>2015-12-20T08:24:48Z</time>
      </trkpt>
      <trkpt lat="44.53443" lon="0.62444">
        <ele>183</ele>
        <time>2015-12-20T08:24:53Z</time>
      </trkpt>
      <trkpt lat="44.53444" lon="0.6246">
        <ele>182</ele>
        <time>2015-12-20T08:24:58Z</time>
      </trkpt>
      <trkpt lat="44.5343" lon="0.62466">
        <ele>182</ele>
        <time>2015-12-20T08:25:03Z</time>
      </trkpt>
      <trkpt lat="44.53409" lon="0.6247">
        <ele>179</ele>
        <time>2015-12-20T08:25:08Z</time>
      </trkpt>
      <trkpt lat="44.5339" lon="0.62473">
        <ele>179</ele>
        <time>2015-12-20T08:25:13Z</time>
      </trkpt>
      <trkpt lat="44.53371" lon="0.6248">
        <ele>183</ele>
        <time>2015-12-20T08:25:18Z</time>
      </trkpt>
      <trkpt lat="44.53333" lon="0.62483">
        <ele>180</ele>
        <time>2015-12-20T08:25:26Z</time>
      </trkpt>
      <trkpt lat="44.5331" lon="0.62483">
        <ele>175</ele>
        <time>2015-12-20T08:25:31Z</time>
      </trkpt>
      <trkpt lat="44.53298" lon="0.62484">
        <ele>174</ele>
        <time>2015-12-20T08:25:33Z</time>
      </trkpt>
      <trkpt lat="44.53272" lon="0.62492">
        <ele>172</ele>
        <time>2015-12-20T08:25:38Z</time>
      </trkpt>
      <trkpt lat="44.53253" lon="0.6246">
        <ele>167</ele>
        <time>2015-12-20T08:25:45Z</time>
      </trkpt>
      <trkpt lat="44.53242" lon="0.62431">
        <ele>164</ele>
        <time>2015-12-20T08:25:48Z</time>
      </trkpt>
      <trkpt lat="44.53218" lon="0.62371">
        <ele>160</ele>
        <time>2015-12-20T08:25:53Z</time>
      </trkpt>
      <trkpt lat="44.53194" lon="0.62312">
        <ele>157</ele>
        <time>2015-12-20T08:25:58Z</time>
      </trkpt>
      <trkpt lat="44.53183" lon="0.62292">
        <ele>157</ele>
        <time>2015-12-20T08:26:03Z</time>
      </trkpt>
      <trkpt lat="44.53169" lon="0.62301">
        <ele>157</ele>
        <time>2015-12-20T08:26:08Z</time>
      </trkpt>
      <trkpt lat="44.53161" lon="0.6231">
        <ele>160</ele>
        <time>2015-12-20T08:26:13Z</time>
      </trkpt>
      <trkpt lat="44.53147" lon="0.62318">
        <ele>160</ele>
        <time>2015-12-20T08:26:20Z</time>
      </trkpt>
      <trkpt lat="44.53142" lon="0.62321">
        <ele>161</ele>
        <time>2015-12-20T08:26:23Z</time>
      </trkpt>
      <trkpt lat="44.53128" lon="0.62341">
        <ele>160</ele>
        <time>2015-12-20T08:26:31Z</time>
      </trkpt>
      <trkpt lat="44.53125" lon="0.62346">
        <ele>160</ele>
        <time>2015-12-20T08:26:33Z</time>
      </trkpt>
      <trkpt lat="44.53117" lon="0.62356">
        <ele>161</ele>
        <time>2015-12-20T08:26:38Z</time>
      </trkpt>
      <trkpt lat="44.53107" lon="0.6236">
        <ele>160</ele>
        <time>2015-12-20T08:26:43Z</time>
      </trkpt>
      <trkpt lat="44.53097" lon="0.62358">
        <ele>159</ele>
        <time>2015-12-20T08:26:48Z</time>
      </trkpt>
      <trkpt lat="44.5309" lon="0.62349">
        <ele>161</ele>
        <time>2015-12-20T08:26:53Z</time>
      </trkpt>
      <trkpt lat="44.53087" lon="0.62327">
        <ele>162</ele>
        <time>2015-12-20T08:27:01Z</time>
      </trkpt>
      <trkpt lat="44.53083" lon="0.62312">
        <ele>162</ele>
        <time>2015-12-20T08:27:07Z</time>
      </trkpt>
      <trkpt lat="44.53082" lon="0.62308">
        <ele>162</ele>
        <time>2015-12-20T08:27:08Z</time>
      </trkpt>
      <trkpt lat="44.53075" lon="0.62287">
        <ele>161</ele>
        <time>2015-12-20T08:27:13Z</time>
      </trkpt>
      <trkpt lat="44.53069" lon="0.62269">
        <ele>162</ele>
        <time>2015-12-20T08:27:18Z</time>
      </trkpt>
      <trkpt lat="44.53066" lon="0.62255">
        <ele>165</ele>
        <time>2015-12-20T08:27:23Z</time>
      </trkpt>
      <trkpt lat="44.53059" lon="0.62245">
        <ele>165</ele>
        <time>2015-12-20T08:27:28Z</time>
      </trkpt>
      <trkpt lat="44.53054" lon="0.62236">
        <ele>165</ele>
        <time>2015-12-20T08:27:33Z</time>
      </trkpt>
      <trkpt lat="44.5305" lon="0.62227">
        <ele>167</ele>
        <time>2015-12-20T08:27:38Z</time>
      </trkpt>
      <trkpt lat="44.53046" lon="0.62217">
        <ele>167</ele>
        <time>2015-12-20T08:27:43Z</time>
      </trkpt>
      <trkpt lat="44.53042" lon="0.62213">
        <ele>169</ele>
        <time>2015-12-20T08:27:48Z</time>
      </trkpt>
      <trkpt lat="44.53041" lon="0.62214">
        <ele>170</ele>
        <time>2015-12-20T08:27:53Z</time>
      </trkpt>
      <trkpt lat="44.5304" lon="0.62214">
        <ele>169</ele>
        <time>2015-12-20T08:27:56Z</time>
      </trkpt>
      <trkpt lat="44.5304" lon="0.62214">
        <ele>169</ele>
        <time>2015-12-20T08:27:59Z</time>
      </trkpt>
      <trkpt lat="44.5304" lon="0.62214">
        <ele>169</ele>
        <time>2015-12-20T08:28:02Z</time>
      </trkpt>
      <trkpt lat="44.5304" lon="0.62214">
        <ele>169</ele>
        <time>2015-12-20T08:28:05Z</time>
      </trkpt>
      <trkpt lat="44.5304" lon="0.62214">
        <ele>169</ele>
        <time>2015-12-20T08:28:08Z</time>
      </trkpt>
      <trkpt lat="44.5304" lon="0.62214">
        <ele>169</ele>
        <time>2015-12-20T08:28:11Z</time>
      </trkpt>
      <trkpt lat="44.5304" lon="0.62214">
        <ele>169</ele>
        <time>2015-12-20T08:28:14Z</time>
      </trkpt>
      <trkpt lat="44.5304" lon="0.62214">
        <ele>169</ele>
        <time>2015-12-20T08:28:17Z</time>
      </trkpt>
      <trkpt lat="44.5304" lon="0.62213">
        <ele>169</ele>
        <time>2015-12-20T08:28:20Z</time>
      </trkpt>
      <trkpt lat="44.53038" lon="0.62213">
        <ele>169</ele>
        <time>2015-12-20T08:28:23Z</time>
      </trkpt>
      <trkpt lat="44.53038" lon="0.62215">
        <ele>168</ele>
        <time>2015-12-20T08:28:28Z</time>
      </trkpt>
      <trkpt lat="44.53038" lon="0.62215">
        <ele>168</ele>
        <time>2015-12-20T08:28:31Z</time>
      </trkpt>
      <trkpt lat="44.53038" lon="0.62215">
        <ele>167</ele>
        <time>2015-12-20T08:28:34Z</time>
      </trkpt>
      <trkpt lat="44.53038" lon="0.62215">
        <ele>167</ele>
        <time>2015-12-20T08:28:37Z</time>
      </trkpt>
      <trkpt lat="44.53038" lon="0.62215">
        <ele>167</ele>
        <time>2015-12-20T08:28:40Z</time>
      </trkpt>
      <trkpt lat="44.53038" lon="0.62215">
        <ele>167</ele>
        <time>2015-12-20T08:28:43Z</time>
      </trkpt>
      <trkpt lat="44.53038" lon="0.62215">
        <ele>167</ele>
        <time>2015-12-20T08:28:46Z</time>
      </trkpt>
      <trkpt lat="44.53038" lon="0.62215">
        <ele>167</ele>
        <time>2015-12-20T08:28:49Z</time>
      </trkpt>
      <trkpt lat="44.53038" lon="0.62215">
        <ele>167</ele>
        <time>2015-12-20T08:28:52Z</time>
      </trkpt>
      <trkpt lat="44.53038" lon="0.62215">
        <ele>167</ele>
        <time>2015-12-20T08:28:55Z</time>
      </trkpt>
      <trkpt lat="44.53038" lon="0.62215">
        <ele>167</ele>
        <time>2015-12-20T08:28:58Z</time>
      </trkpt>
      <trkpt lat="44.53038" lon="0.62215">
        <ele>167</ele>
        <time>2015-12-20T08:29:01Z</time>
      </trkpt>
      <trkpt lat="44.53038" lon="0.62215">
        <ele>167</ele>
        <time>2015-12-20T08:29:04Z</time>
      </trkpt>
      <trkpt lat="44.53038" lon="0.62215">
        <ele>167</ele>
        <time>2015-12-20T08:29:07Z</time>
      </trkpt>
      <trkpt lat="44.53038" lon="0.62215">
        <ele>167</ele>
        <time>2015-12-20T08:29:10Z</time>
      </trkpt>
      <trkpt lat="44.53038" lon="0.62215">
        <ele>167</ele>
        <time>2015-12-20T08:29:13Z</time>
      </trkpt>
      <trkpt lat="44.53038" lon="0.62215">
        <ele>167</ele>
        <time>2015-12-20T08:29:16Z</time>
      </trkpt>
      <trkpt lat="44.53038" lon="0.62215">
        <ele>167</ele>
        <time>2015-12-20T08:29:19Z</time>
      </trkpt>
      <trkpt lat="44.53038" lon="0.62215">
        <ele>167</ele>
        <time>2015-12-20T08:29:22Z</time>
      </trkpt>
      <trkpt lat="44.53037" lon="0.62216">
        <ele>167</ele>
        <time>2015-12-20T08:29:25Z</time>
      </trkpt>
      <trkpt lat="44.53034" lon="0.62215">
        <ele>168</ele>
        <time>2015-12-20T08:29:28Z</time>
      </trkpt>
      <trkpt lat="44.53028" lon="0.62211">
        <ele>169</ele>
        <time>2015-12-20T08:29:33Z</time>
      </trkpt>
      <trkpt lat="44.53022" lon="0.62211">
        <ele>172</ele>
        <time>2015-12-20T08:29:38Z</time>
      </trkpt>
      <trkpt lat="44.53019" lon="0.62207">
        <ele>172</ele>
        <time>2015-12-20T08:29:43Z</time>
      </trkpt>
      <trkpt lat="44.53013" lon="0.62205">
        <ele>173</ele>
        <time>2015-12-20T08:29:48Z</time>
      </trkpt>
      <trkpt lat="44.53007" lon="0.62208">
        <ele>173</ele>
        <time>2015-12-20T08:29:53Z</time>
      </trkpt>
      <trkpt lat="44.53003" lon="0.62208">
        <ele>172</ele>
        <time>2015-12-20T08:29:58Z</time>
      </trkpt>
      <trkpt lat="44.52999" lon="0.62202">
        <ele>174</ele>
        <time>2015-12-20T08:30:03Z</time>
      </trkpt>
      <trkpt lat="44.52998" lon="0.62197">
        <ele>175</ele>
        <time>2015-12-20T08:30:08Z</time>
      </trkpt>
      <trkpt lat="44.53" lon="0.62187">
        <ele>179</ele>
        <time>2015-12-20T08:30:13Z</time>
      </trkpt>
      <trkpt lat="44.52997" lon="0.62176">
        <ele>181</ele>
        <time>2015-12-20T08:30:18Z</time>
      </trkpt>
      <trkpt lat="44.52989" lon="0.62165">
        <ele>183</ele>
        <time>2015-12-20T08:30:23Z</time>
      </trkpt>
      <trkpt lat="44.52982" lon="0.62152">
        <ele>182</ele>
        <time>2015-12-20T08:30:29Z</time>
      </trkpt>
      <trkpt lat="44.52981" lon="0.62139">
        <ele>185</ele>
        <time>2015-12-20T08:30:33Z</time>
      </trkpt>
      <trkpt lat="44.52974" lon="0.62129">
        <ele>185</ele>
        <time>2015-12-20T08:30:38Z</time>
      </trkpt>
      <trkpt lat="44.5297" lon="0.62119">
        <ele>185</ele>
        <time>2015-12-20T08:30:43Z</time>
      </trkpt>
      <trkpt lat="44.52965" lon="0.62108">
        <ele>189</ele>
        <time>2015-12-20T08:30:48Z</time>
      </trkpt>
      <trkpt lat="44.52944" lon="0.62092">
        <ele>182</ele>
        <time>2015-12-20T08:30:55Z</time>
      </trkpt>
      <trkpt lat="44.52941" lon="0.62088">
        <ele>183</ele>
        <time>2015-12-20T08:30:58Z</time>
      </trkpt>
      <trkpt lat="44.52938" lon="0.62081">
        <ele>183</ele>
        <time>2015-12-20T08:31:03Z</time>
      </trkpt>
      <trkpt lat="44.52937" lon="0.62084">
        <ele>182</ele>
        <time>2015-12-20T08:31:08Z</time>
      </trkpt>
      <trkpt lat="44.52931" lon="0.62089">
        <ele>182</ele>
        <time>2015-12-20T08:31:14Z</time>
      </trkpt>
      <trkpt lat="44.52929" lon="0.62094">
        <ele>184</ele>
        <time>2015-12-20T08:31:18Z</time>
      </trkpt>
      <trkpt lat="44.52927" lon="0.62106">
        <ele>186</ele>
        <time>2015-12-20T08:31:23Z</time>
      </trkpt>
      <trkpt lat="44.52928" lon="0.62114">
        <ele>190</ele>
        <time>2015-12-20T08:31:30Z</time>
      </trkpt>
      <trkpt lat="44.52927" lon="0.62121">
        <ele>191</ele>
        <time>2015-12-20T08:31:35Z</time>
      </trkpt>
      <trkpt lat="44.52927" lon="0.62123">
        <ele>192</ele>
        <time>2015-12-20T08:31:38Z</time>
      </trkpt>
      <trkpt lat="44.52928" lon="0.6213">
        <ele>193</ele>
        <time>2015-12-20T08:31:43Z</time>
      </trkpt>
      <trkpt lat="44.52926" lon="0.62141">
        <ele>192</ele>
        <time>2015-12-20T08:31:48Z</time>
      </trkpt>
      <trkpt lat="44.52926" lon="0.62149">
        <ele>192</ele>
        <time>2015-12-20T08:31:53Z</time>
      </trkpt>
      <trkpt lat="44.52928" lon="0.62158">
        <ele>194</ele>
        <time>2015-12-20T08:31:58Z</time>
      </trkpt>
      <trkpt lat="44.52929" lon="0.62165">
        <ele>194</ele>
        <time>2015-12-20T08:32:03Z</time>
      </trkpt>
      <trkpt lat="44.52931" lon="0.62169">
        <ele>192</ele>
        <time>2015-12-20T08:32:08Z</time>
      </trkpt>
      <trkpt lat="44.52932" lon="0.62171">
        <ele>194</ele>
        <time>2015-12-20T08:32:13Z</time>
      </trkpt>
      <trkpt lat="44.52932" lon="0.62172">
        <ele>195</ele>
        <time>2015-12-20T08:32:18Z</time>
      </trkpt>
      <trkpt lat="44.52932" lon="0.62172">
        <ele>196</ele>
        <time>2015-12-20T08:32:21Z</time>
      </trkpt>
      <trkpt lat="44.52934" lon="0.62174">
        <ele>196</ele>
        <time>2015-12-20T08:32:24Z</time>
      </trkpt>
      <trkpt lat="44.52934" lon="0.62181">
        <ele>197</ele>
        <time>2015-12-20T08:32:29Z</time>
      </trkpt>
      <trkpt lat="44.52934" lon="0.62189">
        <ele>197</ele>
        <time>2015-12-20T08:32:34Z</time>
      </trkpt>
      <trkpt lat="44.52932" lon="0.62196">
        <ele>194</ele>
        <time>2015-12-20T08:32:43Z</time>
      </trkpt>
      <trkpt lat="44.52932" lon="0.62196">
        <ele>195</ele>
        <time>2015-12-20T08:32:44Z</time>
      </trkpt>
      <trkpt lat="44.52933" lon="0.62195">
        <ele>193</ele>
        <time>2015-12-20T08:32:49Z</time>
      </trkpt>
      <trkpt lat="44.52934" lon="0.62194">
        <ele>193</ele>
        <time>2015-12-20T08:32:53Z</time>
      </trkpt>
      <trkpt lat="44.52932" lon="0.62191">
        <ele>195</ele>
        <time>2015-12-20T08:32:55Z</time>
      </trkpt>
      <trkpt lat="44.5293" lon="0.62188">
        <ele>197</ele>
        <time>2015-12-20T08:33:00Z</time>
      </trkpt>
      <trkpt lat="44.52924" lon="0.62185">
        <ele>201</ele>
        <time>2015-12-20T08:33:05Z</time>
      </trkpt>
      <trkpt lat="44.52914" lon="0.62185">
        <ele>203</ele>
        <time>2015-12-20T08:33:10Z</time>
      </trkpt>
      <trkpt lat="44.52915" lon="0.62192">
        <ele>204</ele>
        <time>2015-12-20T08:33:15Z</time>
      </trkpt>
      <trkpt lat="44.52919" lon="0.622">
        <ele>205</ele>
        <time>2015-12-20T08:33:20Z</time>
      </trkpt>
      <trkpt lat="44.52918" lon="0.6221">
        <ele>203</ele>
        <time>2015-12-20T08:33:25Z</time>
      </trkpt>
      <trkpt lat="44.5292" lon="0.62218">
        <ele>203</ele>
        <time>2015-12-20T08:33:30Z</time>
      </trkpt>
      <trkpt lat="44.52919" lon="0.6223">
        <ele>203</ele>
        <time>2015-12-20T08:33:38Z</time>
      </trkpt>
      <trkpt lat="44.52918" lon="0.62232">
        <ele>203</ele>
        <time>2015-12-20T08:33:40Z</time>
      </trkpt>
      <trkpt lat="44.52913" lon="0.62238">
        <ele>203</ele>
        <time>2015-12-20T08:33:47Z</time>
      </trkpt>
      <trkpt lat="44.5291" lon="0.62241">
        <ele>204</ele>
        <time>2015-12-20T08:33:50Z</time>
      </trkpt>
      <trkpt lat="44.52903" lon="0.62246">
        <ele>207</ele>
        <time>2015-12-20T08:33:55Z</time>
      </trkpt>
      <trkpt lat="44.52899" lon="0.62259">
        <ele>206</ele>
        <time>2015-12-20T08:34:00Z</time>
      </trkpt>
      <trkpt lat="44.52893" lon="0.62265">
        <ele>207</ele>
        <time>2015-12-20T08:34:05Z</time>
      </trkpt>
      <trkpt lat="44.52886" lon="0.62273">
        <ele>207</ele>
        <time>2015-12-20T08:34:10Z</time>
      </trkpt>
      <trkpt lat="44.52879" lon="0.62272">
        <ele>207</ele>
        <time>2015-12-20T08:34:15Z</time>
      </trkpt>
      <trkpt lat="44.52873" lon="0.62267">
        <ele>208</ele>
        <time>2015-12-20T08:34:22Z</time>
      </trkpt>
      <trkpt lat="44.52874" lon="0.62266">
        <ele>209</ele>
        <time>2015-12-20T08:34:25Z</time>
      </trkpt>
      <trkpt lat="44.52874" lon="0.62266">
        <ele>209</ele>
        <time>2015-12-20T08:34:28Z</time>
      </trkpt>
      <trkpt lat="44.52875" lon="0.62264">
        <ele>209</ele>
        <time>2015-12-20T08:34:31Z</time>
      </trkpt>
      <trkpt lat="44.52878" lon="0.62255">
        <ele>209</ele>
        <time>2015-12-20T08:34:36Z</time>
      </trkpt>
      <trkpt lat="44.52881" lon="0.62233">
        <ele>211</ele>
        <time>2015-12-20T08:34:44Z</time>
      </trkpt>
      <trkpt lat="44.52878" lon="0.62226">
        <ele>211</ele>
        <time>2015-12-20T08:34:46Z</time>
      </trkpt>
      <trkpt lat="44.52868" lon="0.62215">
        <ele>211</ele>
        <time>2015-12-20T08:34:51Z</time>
      </trkpt>
      <trkpt lat="44.5286" lon="0.62208">
        <ele>210</ele>
        <time>2015-12-20T08:34:56Z</time>
      </trkpt>
      <trkpt lat="44.52845" lon="0.62203">
        <ele>209</ele>
        <time>2015-12-20T08:35:01Z</time>
      </trkpt>
      <trkpt lat="44.5283" lon="0.62198">
        <ele>209</ele>
        <time>2015-12-20T08:35:06Z</time>
      </trkpt>
      <trkpt lat="44.52813" lon="0.62196">
        <ele>208</ele>
        <time>2015-12-20T08:35:11Z</time>
      </trkpt>
      <trkpt lat="44.52796" lon="0.62198">
        <ele>206</ele>
        <time>2015-12-20T08:35:16Z</time>
      </trkpt>
      <trkpt lat="44.5278" lon="0.62204">
        <ele>206</ele>
        <time>2015-12-20T08:35:21Z</time>
      </trkpt>
      <trkpt lat="44.52763" lon="0.62213">
        <ele>206</ele>
        <time>2015-12-20T08:35:26Z</time>
      </trkpt>
      <trkpt lat="44.5275" lon="0.62229">
        <ele>207</ele>
        <time>2015-12-20T08:35:31Z</time>
      </trkpt>
      <trkpt lat="44.52741" lon="0.62239">
        <ele>207</ele>
        <time>2015-12-20T08:35:36Z</time>
      </trkpt>
      <trkpt lat="44.52734" lon="0.62248">
        <ele>207</ele>
        <time>2015-12-20T08:35:41Z</time>
      </trkpt>
      <trkpt lat="44.5272" lon="0.62261">
        <ele>205</ele>
        <time>2015-12-20T08:35:46Z</time>
      </trkpt>
      <trkpt lat="44.52703" lon="0.62272">
        <ele>206</ele>
        <time>2015-12-20T08:35:51Z</time>
      </trkpt>
      <trkpt lat="44.52686" lon="0.62278">
        <ele>207</ele>
        <time>2015-12-20T08:35:56Z</time>
      </trkpt>
      <trkpt lat="44.52667" lon="0.62284">
        <ele>208</ele>
        <time>2015-12-20T08:36:01Z</time>
      </trkpt>
      <trkpt lat="44.52646" lon="0.62288">
        <ele>209</ele>
        <time>2015-12-20T08:36:06Z</time>
      </trkpt>
      <trkpt lat="44.52625" lon="0.62302">
        <ele>210</ele>
        <time>2015-12-20T08:36:12Z</time>
      </trkpt>
      <trkpt lat="44.52612" lon="0.62317">
        <ele>210</ele>
        <time>2015-12-20T08:36:16Z</time>
      </trkpt>
      <trkpt lat="44.52599" lon="0.62332">
        <ele>214</ele>
        <time>2015-12-20T08:36:21Z</time>
      </trkpt>
      <trkpt lat="44.52581" lon="0.62324">
        <ele>210</ele>
        <time>2015-12-20T08:36:26Z</time>
      </trkpt>
      <trkpt lat="44.52564" lon="0.62311">
        <ele>210</ele>
        <time>2015-12-20T08:36:31Z</time>
      </trkpt>
      <trkpt lat="44.52546" lon="0.62297">
        <ele>209</ele>
        <time>2015-12-20T08:36:36Z</time>
      </trkpt>
      <trkpt lat="44.52524" lon="0.62282">
        <ele>211</ele>
        <time>2015-12-20T08:36:42Z</time>
      </trkpt>
      <trkpt lat="44.5251" lon="0.62271">
        <ele>212</ele>
        <time>2015-12-20T08:36:46Z</time>
      </trkpt>
      <trkpt lat="44.52493" lon="0.6226">
        <ele>211</ele>
        <time>2015-12-20T08:36:51Z</time>
      </trkpt>
      <trkpt lat="44.52481" lon="0.62249">
        <ele>212</ele>
        <time>2015-12-20T08:36:56Z</time>
      </trkpt>
      <trkpt lat="44.5249" lon="0.62252">
        <ele>212</ele>
        <time>2015-12-20T08:37:01Z</time>
      </trkpt>
      <trkpt lat="44.52501" lon="0.62233">
        <ele>211</ele>
        <time>2015-12-20T08:37:06Z</time>
      </trkpt>
      <trkpt lat="44.52513" lon="0.62216">
        <ele>209</ele>
        <time>2015-12-20T08:37:11Z</time>
      </trkpt>
      <trkpt lat="44.52516" lon="0.62211">
        <ele>209</ele>
        <time>2015-12-20T08:37:16Z</time>
      </trkpt>
      <trkpt lat="44.52513" lon="0.62205">
        <ele>208</ele>
        <time>2015-12-20T08:37:21Z</time>
      </trkpt>
      <trkpt lat="44.52505" lon="0.62197">
        <ele>205</ele>
        <time>2015-12-20T08:37:26Z</time>
      </trkpt>
      <trkpt lat="44.5249" lon="0.62188">
        <ele>200</ele>
        <time>2015-12-20T08:37:31Z</time>
      </trkpt>
      <trkpt lat="44.52477" lon="0.62181">
        <ele>198</ele>
        <time>2015-12-20T08:37:36Z</time>
      </trkpt>
      <trkpt lat="44.5246" lon="0.62179">
        <ele>200</ele>
        <time>2015-12-20T08:37:41Z</time>
      </trkpt>
      <trkpt lat="44.52445" lon="0.62175">
        <ele>200</ele>
        <time>2015-12-20T08:37:46Z</time>
      </trkpt>
      <trkpt lat="44.52428" lon="0.62175">
        <ele>198</ele>
        <time>2015-12-20T08:37:52Z</time>
      </trkpt>
      <trkpt lat="44.52418" lon="0.62175">
        <ele>198</ele>
        <time>2015-12-20T08:37:56Z</time>
      </trkpt>
      <trkpt lat="44.52402" lon="0.62173">
        <ele>201</ele>
        <time>2015-12-20T08:38:03Z</time>
      </trkpt>
      <trkpt lat="44.52394" lon="0.62173">
        <ele>201</ele>
        <time>2015-12-20T08:38:06Z</time>
      </trkpt>
      <trkpt lat="44.52378" lon="0.62175">
        <ele>203</ele>
        <time>2015-12-20T08:38:12Z</time>
      </trkpt>
      <trkpt lat="44.5237" lon="0.62172">
        <ele>203</ele>
        <time>2015-12-20T08:38:15Z</time>
      </trkpt>
      <trkpt lat="44.52358" lon="0.62176">
        <ele>203</ele>
        <time>2015-12-20T08:38:20Z</time>
      </trkpt>
      <trkpt lat="44.52349" lon="0.62179">
        <ele>202</ele>
        <time>2015-12-20T08:38:25Z</time>
      </trkpt>
      <trkpt lat="44.5234" lon="0.62183">
        <ele>204</ele>
        <time>2015-12-20T08:38:30Z</time>
      </trkpt>
      <trkpt lat="44.52331" lon="0.62183">
        <ele>204</ele>
        <time>2015-12-20T08:38:35Z</time>
      </trkpt>
      <trkpt lat="44.52328" lon="0.62166">
        <ele>200</ele>
        <time>2015-12-20T08:38:40Z</time>
      </trkpt>
      <trkpt lat="44.52324" lon="0.62129">
        <ele>197</ele>
        <time>2015-12-20T08:38:45Z</time>
      </trkpt>
      <trkpt lat="44.52319" lon="0.62094">
        <ele>197</ele>
        <time>2015-12-20T08:38:50Z</time>
      </trkpt>
      <trkpt lat="44.52318" lon="0.62067">
        <ele>200</ele>
        <time>2015-12-20T08:38:56Z</time>
      </trkpt>
      <trkpt lat="44.52314" lon="0.62066">
        <ele>199</ele>
        <time>2015-12-20T08:39:00Z</time>
      </trkpt>
      <trkpt lat="44.52307" lon="0.62065">
        <ele>198</ele>
        <time>2015-12-20T08:39:05Z</time>
      </trkpt>
      <trkpt lat="44.52306" lon="0.62063">
        <ele>201</ele>
        <time>2015-12-20T08:39:10Z</time>
      </trkpt>
      <trkpt lat="44.52297" lon="0.62054">
        <ele>206</ele>
        <time>2015-12-20T08:39:19Z</time>
      </trkpt>
      <trkpt lat="44.5229" lon="0.62049">
        <ele>206</ele>
        <time>2015-12-20T08:39:23Z</time>
      </trkpt>
      <trkpt lat="44.52286" lon="0.62047">
        <ele>206</ele>
        <time>2015-12-20T08:39:26Z</time>
      </trkpt>
      <trkpt lat="44.5228" lon="0.62038">
        <ele>205</ele>
        <time>2015-12-20T08:39:30Z</time>
      </trkpt>
      <trkpt lat="44.52278" lon="0.62023">
        <ele>206</ele>
        <time>2015-12-20T08:39:35Z</time>
      </trkpt>
      <trkpt lat="44.52282" lon="0.61989">
        <ele>208</ele>
        <time>2015-12-20T08:39:40Z</time>
      </trkpt>
      <trkpt lat="44.52285" lon="0.61943">
        <ele>208</ele>
        <time>2015-12-20T08:39:48Z</time>
      </trkpt>
      <trkpt lat="44.52293" lon="0.61931">
        <ele>207</ele>
        <time>2015-12-20T08:39:51Z</time>
      </trkpt>
      <trkpt lat="44.52307" lon="0.61871">
        <ele>204</ele>
        <time>2015-12-20T08:39:59Z</time>
      </trkpt>
      <trkpt lat="44.5231" lon="0.61866">
        <ele>206</ele>
        <time>2015-12-20T08:40:00Z</time>
      </trkpt>
      <trkpt lat="44.52324" lon="0.61833">
        <ele>203</ele>
        <time>2015-12-20T08:40:06Z</time>
      </trkpt>
      <trkpt lat="44.52328" lon="0.61802">
        <ele>199</ele>
        <time>2015-12-20T08:40:10Z</time>
      </trkpt>
      <trkpt lat="44.52343" lon="0.61751">
        <ele>202</ele>
        <time>2015-12-20T08:40:19Z</time>
      </trkpt>
      <trkpt lat="44.52342" lon="0.61747">
        <ele>202</ele>
        <time>2015-12-20T08:40:20Z</time>
      </trkpt>
      <trkpt lat="44.52348" lon="0.61716">
        <ele>202</ele>
        <time>2015-12-20T08:40:29Z</time>
      </trkpt>
      <trkpt lat="44.52347" lon="0.61713">
        <ele>201</ele>
        <time>2015-12-20T08:40:30Z</time>
      </trkpt>
      <trkpt lat="44.52354" lon="0.61694">
        <ele>200</ele>
        <time>2015-12-20T08:40:35Z</time>
      </trkpt>
      <trkpt lat="44.52365" lon="0.61675">
        <ele>199</ele>
        <time>2015-12-20T08:40:40Z</time>
      </trkpt>
      <trkpt lat="44.52379" lon="0.61654">
        <ele>199</ele>
        <time>2015-12-20T08:40:45Z</time>
      </trkpt>
      <trkpt lat="44.52394" lon="0.6163">
        <ele>195</ele>
        <time>2015-12-20T08:40:50Z</time>
      </trkpt>
      <trkpt lat="44.52416" lon="0.61612">
        <ele>190</ele>
        <time>2015-12-20T08:40:55Z</time>
      </trkpt>
      <trkpt lat="44.52441" lon="0.61592">
        <ele>188</ele>
        <time>2015-12-20T08:41:00Z</time>
      </trkpt>
      <trkpt lat="44.52453" lon="0.6157">
        <ele>186</ele>
        <time>2015-12-20T08:41:05Z</time>
      </trkpt>
      <trkpt lat="44.52472" lon="0.61561">
        <ele>185</ele>
        <time>2015-12-20T08:41:10Z</time>
      </trkpt>
      <trkpt lat="44.52475" lon="0.61541">
        <ele>184</ele>
        <time>2015-12-20T08:41:15Z</time>
      </trkpt>
      <trkpt lat="44.5246" lon="0.61545">
        <ele>187</ele>
        <time>2015-12-20T08:41:23Z</time>
      </trkpt>
      <trkpt lat="44.52458" lon="0.61545">
        <ele>187</ele>
        <time>2015-12-20T08:41:25Z</time>
      </trkpt>
      <trkpt lat="44.52452" lon="0.61546">
        <ele>190</ele>
        <time>2015-12-20T08:41:30Z</time>
      </trkpt>
      <trkpt lat="44.52447" lon="0.61549">
        <ele>189</ele>
        <time>2015-12-20T08:41:35Z</time>
      </trkpt>
      <trkpt lat="44.52443" lon="0.61553">
        <ele>190</ele>
        <time>2015-12-20T08:41:40Z</time>
      </trkpt>
      <trkpt lat="44.52439" lon="0.61554">
        <ele>192</ele>
        <time>2015-12-20T08:41:45Z</time>
      </trkpt>
      <trkpt lat="44.52435" lon="0.61558">
        <ele>196</ele>
        <time>2015-12-20T08:41:50Z</time>
      </trkpt>
      <trkpt lat="44.52429" lon="0.61562">
        <ele>195</ele>
        <time>2015-12-20T08:41:55Z</time>
      </trkpt>
      <trkpt lat="44.52423" lon="0.61565">
        <ele>197</ele>
        <time>2015-12-20T08:42:01Z</time>
      </trkpt>
      <trkpt lat="44.52419" lon="0.61568">
        <ele>197</ele>
        <time>2015-12-20T08:42:05Z</time>
      </trkpt>
      <trkpt lat="44.52414" lon="0.61571">
        <ele>198</ele>
        <time>2015-12-20T08:42:10Z</time>
      </trkpt>
      <trkpt lat="44.52409" lon="0.61575">
        <ele>198</ele>
        <time>2015-12-20T08:42:15Z</time>
      </trkpt>
      <trkpt lat="44.52409" lon="0.61576">
        <ele>196</ele>
        <time>2015-12-20T08:42:20Z</time>
      </trkpt>
      <trkpt lat="44.52409" lon="0.61577">
        <ele>196</ele>
        <time>2015-12-20T08:42:23Z</time>
      </trkpt>
      <trkpt lat="44.52409" lon="0.61577">
        <ele>196</ele>
        <time>2015-12-20T08:42:26Z</time>
      </trkpt>
      <trkpt lat="44.52409" lon="0.61577">
        <ele>197</ele>
        <time>2015-12-20T08:42:29Z</time>
      </trkpt>
      <trkpt lat="44.52409" lon="0.61578">
        <ele>197</ele>
        <time>2015-12-20T08:42:32Z</time>
      </trkpt>
      <trkpt lat="44.52409" lon="0.61577">
        <ele>196</ele>
        <time>2015-12-20T08:42:35Z</time>
      </trkpt>
      <trkpt lat="44.5241" lon="0.61572">
        <ele>196</ele>
        <time>2015-12-20T08:42:38Z</time>
      </trkpt>
      <trkpt lat="44.52411" lon="0.61569">
        <ele>196</ele>
        <time>2015-12-20T08:42:43Z</time>
      </trkpt>
      <trkpt lat="44.52415" lon="0.61566">
        <ele>198</ele>
        <time>2015-12-20T08:42:48Z</time>
      </trkpt>
      <trkpt lat="44.52418" lon="0.61556">
        <ele>198</ele>
        <time>2015-12-20T08:42:53Z</time>
      </trkpt>
      <trkpt lat="44.5242" lon="0.61548">
        <ele>199</ele>
        <time>2015-12-20T08:42:58Z</time>
      </trkpt>
      <trkpt lat="44.52427" lon="0.61534">
        <ele>201</ele>
        <time>2015-12-20T08:43:07Z</time>
      </trkpt>
      <trkpt lat="44.52428" lon="0.61533">
        <ele>201</ele>
        <time>2015-12-20T08:43:08Z</time>
      </trkpt>
      <trkpt lat="44.52432" lon="0.61522">
        <ele>202</ele>
        <time>2015-12-20T08:43:13Z</time>
      </trkpt>
      <trkpt lat="44.52428" lon="0.61517">
        <ele>204</ele>
        <time>2015-12-20T08:43:18Z</time>
      </trkpt>
      <trkpt lat="44.52419" lon="0.6152">
        <ele>203</ele>
        <time>2015-12-20T08:43:23Z</time>
      </trkpt>
      <trkpt lat="44.52413" lon="0.61522">
        <ele>203</ele>
        <time>2015-12-20T08:43:28Z</time>
      </trkpt>
      <trkpt lat="44.52408" lon="0.61519">
        <ele>205</ele>
        <time>2015-12-20T08:43:33Z</time>
      </trkpt>
      <trkpt lat="44.52409" lon="0.6151">
        <ele>205</ele>
        <time>2015-12-20T08:43:38Z</time>
      </trkpt>
      <trkpt lat="44.52408" lon="0.61507">
        <ele>206</ele>
        <time>2015-12-20T08:43:43Z</time>
      </trkpt>
      <trkpt lat="44.52407" lon="0.61507">
        <ele>207</ele>
        <time>2015-12-20T08:43:48Z</time>
      </trkpt>
      <trkpt lat="44.52408" lon="0.61508">
        <ele>207</ele>
        <time>2015-12-20T08:43:51Z</time>
      </trkpt>
      <trkpt lat="44.52408" lon="0.61508">
        <ele>207</ele>
        <time>2015-12-20T08:43:54Z</time>
      </trkpt>
      <trkpt lat="44.52408" lon="0.61508">
        <ele>207</ele>
        <time>2015-12-20T08:43:57Z</time>
      </trkpt>
      <trkpt lat="44.52408" lon="0.61508">
        <ele>207</ele>
        <time>2015-12-20T08:44:00Z</time>
      </trkpt>
      <trkpt lat="44.52408" lon="0.61508">
        <ele>207</ele>
        <time>2015-12-20T08:44:03Z</time>
      </trkpt>
      <trkpt lat="44.52408" lon="0.61508">
        <ele>207</ele>
        <time>2015-12-20T08:44:06Z</time>
      </trkpt>
      <trkpt lat="44.52408" lon="0.61508">
        <ele>207</ele>
        <time>2015-12-20T08:44:09Z</time>
      </trkpt>
      <trkpt lat="44.52408" lon="0.61508">
        <ele>207</ele>
        <time>2015-12-20T08:44:12Z</time>
      </trkpt>
      <trkpt lat="44.52408" lon="0.61508">
        <ele>207</ele>
        <time>2015-12-20T08:44:15Z</time>
      </trkpt>
      <trkpt lat="44.52408" lon="0.61508">
        <ele>207</ele>
        <time>2015-12-20T08:44:18Z</time>
      </trkpt>
      <trkpt lat="44.52408" lon="0.61508">
        <ele>207</ele>
        <time>2015-12-20T08:44:21Z</time>
      </trkpt>
      <trkpt lat="44.52408" lon="0.61508">
        <ele>207</ele>
        <time>2015-12-20T08:44:24Z</time>
      </trkpt>
      <trkpt lat="44.52408" lon="0.61508">
        <ele>207</ele>
        <time>2015-12-20T08:44:27Z</time>
      </trkpt>
      <trkpt lat="44.52408" lon="0.61508">
        <ele>207</ele>
        <time>2015-12-20T08:44:30Z</time>
      </trkpt>
      <trkpt lat="44.52408" lon="0.61508">
        <ele>207</ele>
        <time>2015-12-20T08:44:33Z</time>
      </trkpt>
      <trkpt lat="44.52408" lon="0.61508">
        <ele>207</ele>
        <time>2015-12-20T08:44:36Z</time>
      </trkpt>
      <trkpt lat="44.52408" lon="0.61508">
        <ele>207</ele>
        <time>2015-12-20T08:44:39Z</time>
      </trkpt>
      <trkpt lat="44.52408" lon="0.61508">
        <ele>207</ele>
        <time>2015-12-20T08:44:42Z</time>
      </trkpt>
      <trkpt lat="44.52408" lon="0.61508">
        <ele>207</ele>
        <time>2015-12-20T08:44:45Z</time>
      </trkpt>
      <trkpt lat="44.52408" lon="0.61508">
        <ele>207</ele>
        <time>2015-12-20T08:44:48Z</time>
      </trkpt>
      <trkpt lat="44.52408" lon="0.61508">
        <ele>207</ele>
        <time>2015-12-20T08:44:51Z</time>
      </trkpt>
      <trkpt lat="44.52408" lon="0.61508">
        <ele>207</ele>
        <time>2015-12-20T08:44:55Z</time>
      </trkpt>
      <trkpt lat="44.52408" lon="0.61508">
        <ele>207</ele>
        <time>2015-12-20T08:44:57Z</time>
      </trkpt>
      <trkpt lat="44.52408" lon="0.61507">
        <ele>207</ele>
        <time>2015-12-20T08:45:00Z</time>
      </trkpt>
      <trkpt lat="44.52407" lon="0.61506">
        <ele>207</ele>
        <time>2015-12-20T08:45:03Z</time>
      </trkpt>
      <trkpt lat="44.52408" lon="0.61506">
        <ele>207</ele>
        <time>2015-12-20T08:45:06Z</time>
      </trkpt>
      <trkpt lat="44.52407" lon="0.61506">
        <ele>207</ele>
        <time>2015-12-20T08:45:09Z</time>
      </trkpt>
      <trkpt lat="44.52407" lon="0.61506">
        <ele>207</ele>
        <time>2015-12-20T08:45:12Z</time>
      </trkpt>
      <trkpt lat="44.52407" lon="0.61506">
        <ele>207</ele>
        <time>2015-12-20T08:45:15Z</time>
      </trkpt>
      <trkpt lat="44.52407" lon="0.61506">
        <ele>207</ele>
        <time>2015-12-20T08:45:18Z</time>
      </trkpt>
      <trkpt lat="44.52407" lon="0.61506">
        <ele>207</ele>
        <time>2015-12-20T08:45:21Z</time>
      </trkpt>
      <trkpt lat="44.52407" lon="0.61506">
        <ele>207</ele>
        <time>2015-12-20T08:45:24Z</time>
      </trkpt>
      <trkpt lat="44.52407" lon="0.61506">
        <ele>207</ele>
        <time>2015-12-20T08:45:27Z</time>
      </trkpt>
      <trkpt lat="44.52407" lon="0.61506">
        <ele>207</ele>
        <time>2015-12-20T08:45:30Z</time>
      </trkpt>
      <trkpt lat="44.52407" lon="0.61506">
        <ele>207</ele>
        <time>2015-12-20T08:45:33Z</time>
      </trkpt>
      <trkpt lat="44.52407" lon="0.61506">
        <ele>207</ele>
        <time>2015-12-20T08:45:36Z</time>
      </trkpt>
      <trkpt lat="44.52407" lon="0.61506">
        <ele>207</ele>
        <time>2015-12-20T08:45:39Z</time>
      </trkpt>
      <trkpt lat="44.52407" lon="0.61506">
        <ele>207</ele>
        <time>2015-12-20T08:45:42Z</time>
      </trkpt>
      <trkpt lat="44.52407" lon="0.61506">
        <ele>207</ele>
        <time>2015-12-20T08:45:45Z</time>
      </trkpt>
      <trkpt lat="44.52407" lon="0.61506">
        <ele>207</ele>
        <time>2015-12-20T08:45:48Z</time>
      </trkpt>
      <trkpt lat="44.52407" lon="0.61506">
        <ele>207</ele>
        <time>2015-12-20T08:45:51Z</time>
      </trkpt>
      <trkpt lat="44.52407" lon="0.61506">
        <ele>207</ele>
        <time>2015-12-20T08:45:54Z</time>
      </trkpt>
      <trkpt lat="44.52407" lon="0.61506">
        <ele>207</ele>
        <time>2015-12-20T08:45:57Z</time>
      </trkpt>
      <trkpt lat="44.52407" lon="0.61506">
        <ele>207</ele>
        <time>2015-12-20T08:46:00Z</time>
      </trkpt>
      <trkpt lat="44.52407" lon="0.61506">
        <ele>207</ele>
        <time>2015-12-20T08:46:03Z</time>
      </trkpt>
      <trkpt lat="44.52407" lon="0.61506">
        <ele>207</ele>
        <time>2015-12-20T08:46:06Z</time>
      </trkpt>
      <trkpt lat="44.52407" lon="0.61506">
        <ele>207</ele>
        <time>2015-12-20T08:46:09Z</time>
      </trkpt>
      <trkpt lat="44.52407" lon="0.61506">
        <ele>207</ele>
        <time>2015-12-20T08:46:12Z</time>
      </trkpt>
      <trkpt lat="44.52407" lon="0.61506">
        <ele>207</ele>
        <time>2015-12-20T08:46:15Z</time>
      </trkpt>
      <trkpt lat="44.52407" lon="0.61505">
        <ele>208</ele>
        <time>2015-12-20T08:46:18Z</time>
      </trkpt>
      <trkpt lat="44.52408" lon="0.61505">
        <ele>208</ele>
        <time>2015-12-20T08:46:21Z</time>
      </trkpt>
      <trkpt lat="44.52407" lon="0.61505">
        <ele>208</ele>
        <time>2015-12-20T08:46:24Z</time>
      </trkpt>
      <trkpt lat="44.52407" lon="0.61505">
        <ele>208</ele>
        <time>2015-12-20T08:46:27Z</time>
      </trkpt>
      <trkpt lat="44.52407" lon="0.61505">
        <ele>208</ele>
        <time>2015-12-20T08:46:30Z</time>
      </trkpt>
      <trkpt lat="44.52407" lon="0.61505">
        <ele>208</ele>
        <time>2015-12-20T08:46:33Z</time>
      </trkpt>
      <trkpt lat="44.52407" lon="0.61505">
        <ele>208</ele>
        <time>2015-12-20T08:46:36Z</time>
      </trkpt>
      <trkpt lat="44.52407" lon="0.61505">
        <ele>208</ele>
        <time>2015-12-20T08:46:39Z</time>
      </trkpt>
      <trkpt lat="44.52407" lon="0.61505">
        <ele>208</ele>
        <time>2015-12-20T08:46:42Z</time>
      </trkpt>
      <trkpt lat="44.52407" lon="0.61505">
        <ele>209</ele>
        <time>2015-12-20T08:46:45Z</time>
      </trkpt>
      <trkpt lat="44.52406" lon="0.61506">
        <ele>209</ele>
        <time>2015-12-20T08:46:48Z</time>
      </trkpt>
      <trkpt lat="44.52406" lon="0.61505">
        <ele>209</ele>
        <time>2015-12-20T08:46:51Z</time>
      </trkpt>
      <trkpt lat="44.52405" lon="0.61505">
        <ele>208</ele>
        <time>2015-12-20T08:46:54Z</time>
      </trkpt>
      <trkpt lat="44.52405" lon="0.61505">
        <ele>208</ele>
        <time>2015-12-20T08:46:57Z</time>
      </trkpt>
      <trkpt lat="44.52405" lon="0.61505">
        <ele>207</ele>
        <time>2015-12-20T08:47:00Z</time>
      </trkpt>
      <trkpt lat="44.52405" lon="0.61505">
        <ele>207</ele>
        <time>2015-12-20T08:47:03Z</time>
      </trkpt>
      <trkpt lat="44.52405" lon="0.61505">
        <ele>207</ele>
        <time>2015-12-20T08:47:06Z</time>
      </trkpt>
      <trkpt lat="44.52404" lon="0.61502">
        <ele>207</ele>
        <time>2015-12-20T08:47:09Z</time>
      </trkpt>
      <trkpt lat="44.52394" lon="0.61502">
        <ele>206</ele>
        <time>2015-12-20T08:47:14Z</time>
      </trkpt>
      <trkpt lat="44.52377" lon="0.61508">
        <ele>204</ele>
        <time>2015-12-20T08:47:19Z</time>
      </trkpt>
      <trkpt lat="44.52358" lon="0.61532">
        <ele>202</ele>
        <time>2015-12-20T08:47:24Z</time>
      </trkpt>
      <trkpt lat="44.52345" lon="0.6154">
        <ele>200</ele>
        <time>2015-12-20T08:47:29Z</time>
      </trkpt>
      <trkpt lat="44.5233" lon="0.61557">
        <ele>202</ele>
        <time>2015-12-20T08:47:34Z</time>
      </trkpt>
      <trkpt lat="44.52325" lon="0.61584">
        <ele>203</ele>
        <time>2015-12-20T08:47:39Z</time>
      </trkpt>
      <trkpt lat="44.5232" lon="0.61604">
        <ele>204</ele>
        <time>2015-12-20T08:47:44Z</time>
      </trkpt>
      <trkpt lat="44.52314" lon="0.61634">
        <ele>203</ele>
        <time>2015-12-20T08:47:51Z</time>
      </trkpt>
      <trkpt lat="44.52308" lon="0.61644">
        <ele>203</ele>
        <time>2015-12-20T08:47:54Z</time>
      </trkpt>
      <trkpt lat="44.52299" lon="0.61665">
        <ele>203</ele>
        <time>2015-12-20T08:47:59Z</time>
      </trkpt>
      <trkpt lat="44.5229" lon="0.61684">
        <ele>202</ele>
        <time>2015-12-20T08:48:04Z</time>
      </trkpt>
      <trkpt lat="44.52281" lon="0.617">
        <ele>202</ele>
        <time>2015-12-20T08:48:09Z</time>
      </trkpt>
      <trkpt lat="44.52275" lon="0.61722">
        <ele>204</ele>
        <time>2015-12-20T08:48:14Z</time>
      </trkpt>
      <trkpt lat="44.52267" lon="0.61738">
        <ele>204</ele>
        <time>2015-12-20T08:48:19Z</time>
      </trkpt>
      <trkpt lat="44.52259" lon="0.61752">
        <ele>206</ele>
        <time>2015-12-20T08:48:24Z</time>
      </trkpt>
      <trkpt lat="44.52252" lon="0.61766">
        <ele>208</ele>
        <time>2015-12-20T08:48:29Z</time>
      </trkpt>
      <trkpt lat="44.52244" lon="0.61777">
        <ele>207</ele>
        <time>2015-12-20T08:48:34Z</time>
      </trkpt>
      <trkpt lat="44.52234" lon="0.61785">
        <ele>207</ele>
        <time>2015-12-20T08:48:39Z</time>
      </trkpt>
      <trkpt lat="44.52227" lon="0.61795">
        <ele>210</ele>
        <time>2015-12-20T08:48:44Z</time>
      </trkpt>
      <trkpt lat="44.52218" lon="0.61803">
        <ele>210</ele>
        <time>2015-12-20T08:48:49Z</time>
      </trkpt>
      <trkpt lat="44.52209" lon="0.61811">
        <ele>211</ele>
        <time>2015-12-20T08:48:54Z</time>
      </trkpt>
      <trkpt lat="44.522" lon="0.61818">
        <ele>213</ele>
        <time>2015-12-20T08:48:59Z</time>
      </trkpt>
      <trkpt lat="44.52191" lon="0.61827">
        <ele>212</ele>
        <time>2015-12-20T08:49:04Z</time>
      </trkpt>
      <trkpt lat="44.52181" lon="0.61834">
        <ele>214</ele>
        <time>2015-12-20T08:49:09Z</time>
      </trkpt>
      <trkpt lat="44.52166" lon="0.6185">
        <ele>214</ele>
        <time>2015-12-20T08:49:15Z</time>
      </trkpt>
      <trkpt lat="44.52154" lon="0.61861">
        <ele>215</ele>
        <time>2015-12-20T08:49:19Z</time>
      </trkpt>
      <trkpt lat="44.52141" lon="0.61874">
        <ele>215</ele>
        <time>2015-12-20T08:49:24Z</time>
      </trkpt>
      <trkpt lat="44.52127" lon="0.61886">
        <ele>215</ele>
        <time>2015-12-20T08:49:29Z</time>
      </trkpt>
      <trkpt lat="44.52113" lon="0.619">
        <ele>217</ele>
        <time>2015-12-20T08:49:34Z</time>
      </trkpt>
      <trkpt lat="44.52099" lon="0.61916">
        <ele>215</ele>
        <time>2015-12-20T08:49:39Z</time>
      </trkpt>
      <trkpt lat="44.52083" lon="0.61929">
        <ele>217</ele>
        <time>2015-12-20T08:49:44Z</time>
      </trkpt>
      <trkpt lat="44.52075" lon="0.61921">
        <ele>222</ele>
        <time>2015-12-20T08:49:53Z</time>
      </trkpt>
      <trkpt lat="44.52075" lon="0.61919">
        <ele>223</ele>
        <time>2015-12-20T08:49:54Z</time>
      </trkpt>
      <trkpt lat="44.52074" lon="0.61904">
        <ele>222</ele>
        <time>2015-12-20T08:49:59Z</time>
      </trkpt>
      <trkpt lat="44.52071" lon="0.61886">
        <ele>221</ele>
        <time>2015-12-20T08:50:04Z</time>
      </trkpt>
      <trkpt lat="44.52056" lon="0.6188">
        <ele>221</ele>
        <time>2015-12-20T08:50:09Z</time>
      </trkpt>
      <trkpt lat="44.52044" lon="0.61883">
        <ele>219</ele>
        <time>2015-12-20T08:50:14Z</time>
      </trkpt>
      <trkpt lat="44.52035" lon="0.61883">
        <ele>216</ele>
        <time>2015-12-20T08:50:22Z</time>
      </trkpt>
      <trkpt lat="44.52034" lon="0.61884">
        <ele>216</ele>
        <time>2015-12-20T08:50:24Z</time>
      </trkpt>
      <trkpt lat="44.52034" lon="0.61884">
        <ele>216</ele>
        <time>2015-12-20T08:50:27Z</time>
      </trkpt>
      <trkpt lat="44.52033" lon="0.61884">
        <ele>216</ele>
        <time>2015-12-20T08:50:30Z</time>
      </trkpt>
      <trkpt lat="44.52032" lon="0.61883">
        <ele>216</ele>
        <time>2015-12-20T08:50:33Z</time>
      </trkpt>
      <trkpt lat="44.52032" lon="0.61883">
        <ele>215</ele>
        <time>2015-12-20T08:50:36Z</time>
      </trkpt>
      <trkpt lat="44.52032" lon="0.61884">
        <ele>215</ele>
        <time>2015-12-20T08:50:39Z</time>
      </trkpt>
      <trkpt lat="44.52032" lon="0.61884">
        <ele>215</ele>
        <time>2015-12-20T08:50:42Z</time>
      </trkpt>
      <trkpt lat="44.52032" lon="0.61884">
        <ele>215</ele>
        <time>2015-12-20T08:50:45Z</time>
      </trkpt>
      <trkpt lat="44.52032" lon="0.61884">
        <ele>215</ele>
        <time>2015-12-20T08:50:48Z</time>
      </trkpt>
      <trkpt lat="44.52032" lon="0.61884">
        <ele>215</ele>
        <time>2015-12-20T08:50:51Z</time>
      </trkpt>
      <trkpt lat="44.52032" lon="0.61884">
        <ele>215</ele>
        <time>2015-12-20T08:50:54Z</time>
      </trkpt>
      <trkpt lat="44.52032" lon="0.61884">
        <ele>215</ele>
        <time>2015-12-20T08:50:57Z</time>
      </trkpt>
      <trkpt lat="44.52032" lon="0.61884">
        <ele>215</ele>
        <time>2015-12-20T08:51:00Z</time>
      </trkpt>
      <trkpt lat="44.52032" lon="0.61884">
        <ele>215</ele>
        <time>2015-12-20T08:51:03Z</time>
      </trkpt>
      <trkpt lat="44.52031" lon="0.61886">
        <ele>213</ele>
        <time>2015-12-20T08:51:06Z</time>
      </trkpt>
      <trkpt lat="44.52035" lon="0.61889">
        <ele>213</ele>
        <time>2015-12-20T08:51:11Z</time>
      </trkpt>
      <trkpt lat="44.52037" lon="0.61891">
        <ele>215</ele>
        <time>2015-12-20T08:51:16Z</time>
      </trkpt>
      <trkpt lat="44.52037" lon="0.61893">
        <ele>216</ele>
        <time>2015-12-20T08:51:21Z</time>
      </trkpt>
      <trkpt lat="44.52039" lon="0.61891">
        <ele>215</ele>
        <time>2015-12-20T08:51:24Z</time>
      </trkpt>
      <trkpt lat="44.5204" lon="0.61891">
        <ele>217</ele>
        <time>2015-12-20T08:51:29Z</time>
      </trkpt>
      <trkpt lat="44.5204" lon="0.6189">
        <ele>217</ele>
        <time>2015-12-20T08:51:32Z</time>
      </trkpt>
      <trkpt lat="44.52041" lon="0.6189">
        <ele>217</ele>
        <time>2015-12-20T08:51:35Z</time>
      </trkpt>
      <trkpt lat="44.52041" lon="0.6189">
        <ele>217</ele>
        <time>2015-12-20T08:51:38Z</time>
      </trkpt>
      <trkpt lat="44.52041" lon="0.61889">
        <ele>217</ele>
        <time>2015-12-20T08:51:41Z</time>
      </trkpt>
      <trkpt lat="44.52041" lon="0.61889">
        <ele>217</ele>
        <time>2015-12-20T08:51:44Z</time>
      </trkpt>
      <trkpt lat="44.52042" lon="0.61889">
        <ele>217</ele>
        <time>2015-12-20T08:51:47Z</time>
      </trkpt>
      <trkpt lat="44.52042" lon="0.61889">
        <ele>217</ele>
        <time>2015-12-20T08:51:50Z</time>
      </trkpt>
      <trkpt lat="44.52042" lon="0.61889">
        <ele>216</ele>
        <time>2015-12-20T08:51:53Z</time>
      </trkpt>
      <trkpt lat="44.52043" lon="0.6189">
        <ele>219</ele>
        <time>2015-12-20T08:51:58Z</time>
      </trkpt>
      <trkpt lat="44.52043" lon="0.6189">
        <ele>218</ele>
        <time>2015-12-20T08:51:59Z</time>
      </trkpt>
      <trkpt lat="44.52044" lon="0.6189">
        <ele>217</ele>
        <time>2015-12-20T08:52:02Z</time>
      </trkpt>
      <trkpt lat="44.52044" lon="0.61891">
        <ele>217</ele>
        <time>2015-12-20T08:52:06Z</time>
      </trkpt>
      <trkpt lat="44.52045" lon="0.61891">
        <ele>219</ele>
        <time>2015-12-20T08:52:08Z</time>
      </trkpt>
      <trkpt lat="44.52046" lon="0.6189">
        <ele>218</ele>
        <time>2015-12-20T08:52:13Z</time>
      </trkpt>
      <trkpt lat="44.52046" lon="0.6189">
        <ele>218</ele>
        <time>2015-12-20T08:52:16Z</time>
      </trkpt>
      <trkpt lat="44.52044" lon="0.61891">
        <ele>217</ele>
        <time>2015-12-20T08:52:19Z</time>
      </trkpt>
      <trkpt lat="44.52041" lon="0.61891">
        <ele>215</ele>
        <time>2015-12-20T08:52:24Z</time>
      </trkpt>
      <trkpt lat="44.52041" lon="0.61891">
        <ele>214</ele>
        <time>2015-12-20T08:52:29Z</time>
      </trkpt>
      <trkpt lat="44.5204" lon="0.61892">
        <ele>213</ele>
        <time>2015-12-20T08:52:32Z</time>
      </trkpt>
      <trkpt lat="44.52041" lon="0.61891">
        <ele>213</ele>
        <time>2015-12-20T08:52:35Z</time>
      </trkpt>
      <trkpt lat="44.52041" lon="0.61891">
        <ele>213</ele>
        <time>2015-12-20T08:52:38Z</time>
      </trkpt>
      <trkpt lat="44.52041" lon="0.61891">
        <ele>213</ele>
        <time>2015-12-20T08:52:41Z</time>
      </trkpt>
      <trkpt lat="44.52041" lon="0.61891">
        <ele>213</ele>
        <time>2015-12-20T08:52:44Z</time>
      </trkpt>
      <trkpt lat="44.52041" lon="0.61891">
        <ele>213</ele>
        <time>2015-12-20T08:52:47Z</time>
      </trkpt>
      <trkpt lat="44.52041" lon="0.61891">
        <ele>213</ele>
        <time>2015-12-20T08:52:50Z</time>
      </trkpt>
      <trkpt lat="44.52041" lon="0.61891">
        <ele>213</ele>
        <time>2015-12-20T08:52:53Z</time>
      </trkpt>
      <trkpt lat="44.52041" lon="0.61891">
        <ele>213</ele>
        <time>2015-12-20T08:52:56Z</time>
      </trkpt>
      <trkpt lat="44.52041" lon="0.61891">
        <ele>213</ele>
        <time>2015-12-20T08:52:59Z</time>
      </trkpt>
      <trkpt lat="44.52041" lon="0.61891">
        <ele>213</ele>
        <time>2015-12-20T08:53:02Z</time>
      </trkpt>
      <trkpt lat="44.52041" lon="0.61891">
        <ele>213</ele>
        <time>2015-12-20T08:53:05Z</time>
      </trkpt>
      <trkpt lat="44.52041" lon="0.61891">
        <ele>213</ele>
        <time>2015-12-20T08:53:10Z</time>
      </trkpt>
      <trkpt lat="44.52041" lon="0.61891">
        <ele>213</ele>
        <time>2015-12-20T08:53:13Z</time>
      </trkpt>
      <trkpt lat="44.52041" lon="0.61891">
        <ele>213</ele>
        <time>2015-12-20T08:53:16Z</time>
      </trkpt>
      <trkpt lat="44.52041" lon="0.61891">
        <ele>213</ele>
        <time>2015-12-20T08:53:17Z</time>
      </trkpt>
      <trkpt lat="44.52041" lon="0.61891">
        <ele>213</ele>
        <time>2015-12-20T08:53:20Z</time>
      </trkpt>
      <trkpt lat="44.52041" lon="0.61891">
        <ele>213</ele>
        <time>2015-12-20T08:53:23Z</time>
      </trkpt>
      <trkpt lat="44.52041" lon="0.61891">
        <ele>213</ele>
        <time>2015-12-20T08:53:26Z</time>
      </trkpt>
      <trkpt lat="44.5204" lon="0.61891">
        <ele>214</ele>
        <time>2015-12-20T08:53:29Z</time>
      </trkpt>
      <trkpt lat="44.5204" lon="0.61892">
        <ele>213</ele>
        <time>2015-12-20T08:53:32Z</time>
      </trkpt>
      <trkpt lat="44.5204" lon="0.61892">
        <ele>214</ele>
        <time>2015-12-20T08:53:35Z</time>
      </trkpt>
      <trkpt lat="44.5204" lon="0.61892">
        <ele>213</ele>
        <time>2015-12-20T08:53:38Z</time>
      </trkpt>
      <trkpt lat="44.5204" lon="0.61892">
        <ele>214</ele>
        <time>2015-12-20T08:53:41Z</time>
      </trkpt>
      <trkpt lat="44.5204" lon="0.61891">
        <ele>215</ele>
        <time>2015-12-20T08:53:44Z</time>
      </trkpt>
      <trkpt lat="44.52041" lon="0.61891">
        <ele>215</ele>
        <time>2015-12-20T08:53:47Z</time>
      </trkpt>
      <trkpt lat="44.52041" lon="0.6189">
        <ele>215</ele>
        <time>2015-12-20T08:53:50Z</time>
      </trkpt>
      <trkpt lat="44.52041" lon="0.6189">
        <ele>215</ele>
        <time>2015-12-20T08:53:53Z</time>
      </trkpt>
      <trkpt lat="44.52041" lon="0.61889">
        <ele>215</ele>
        <time>2015-12-20T08:53:56Z</time>
      </trkpt>
      <trkpt lat="44.52041" lon="0.61889">
        <ele>215</ele>
        <time>2015-12-20T08:53:59Z</time>
      </trkpt>
      <trkpt lat="44.52041" lon="0.61889">
        <ele>215</ele>
        <time>2015-12-20T08:54:02Z</time>
      </trkpt>
      <trkpt lat="44.5204" lon="0.6189">
        <ele>214</ele>
        <time>2015-12-20T08:54:05Z</time>
      </trkpt>
      <trkpt lat="44.5204" lon="0.6189">
        <ele>215</ele>
        <time>2015-12-20T08:54:08Z</time>
      </trkpt>
      <trkpt lat="44.5204" lon="0.6189">
        <ele>215</ele>
        <time>2015-12-20T08:54:11Z</time>
      </trkpt>
      <trkpt lat="44.52035" lon="0.61888">
        <ele>215</ele>
        <time>2015-12-20T08:54:14Z</time>
      </trkpt>
      <trkpt lat="44.52023" lon="0.61887">
        <ele>213</ele>
        <time>2015-12-20T08:54:19Z</time>
      </trkpt>
      <trkpt lat="44.52013" lon="0.61894">
        <ele>212</ele>
        <time>2015-12-20T08:54:24Z</time>
      </trkpt>
      <trkpt lat="44.52011" lon="0.61894">
        <ele>212</ele>
        <time>2015-12-20T08:54:29Z</time>
      </trkpt>
      <trkpt lat="44.52011" lon="0.61895">
        <ele>212</ele>
        <time>2015-12-20T08:54:34Z</time>
      </trkpt>
      <trkpt lat="44.52011" lon="0.61894">
        <ele>212</ele>
        <time>2015-12-20T08:54:37Z</time>
      </trkpt>
      <trkpt lat="44.52011" lon="0.61894">
        <ele>212</ele>
        <time>2015-12-20T08:54:40Z</time>
      </trkpt>
      <trkpt lat="44.52011" lon="0.61894">
        <ele>212</ele>
        <time>2015-12-20T08:54:43Z</time>
      </trkpt>
      <trkpt lat="44.52009" lon="0.61898">
        <ele>213</ele>
        <time>2015-12-20T08:54:47Z</time>
      </trkpt>
      <trkpt lat="44.52001" lon="0.61907">
        <ele>212</ele>
        <time>2015-12-20T08:54:52Z</time>
      </trkpt>
      <trkpt lat="44.51995" lon="0.61915">
        <ele>212</ele>
        <time>2015-12-20T08:54:56Z</time>
      </trkpt>
      <trkpt lat="44.51981" lon="0.61917">
        <ele>209</ele>
        <time>2015-12-20T08:55:01Z</time>
      </trkpt>
      <trkpt lat="44.51967" lon="0.61914">
        <ele>208</ele>
        <time>2015-12-20T08:55:06Z</time>
      </trkpt>
      <trkpt lat="44.51929" lon="0.61909">
        <ele>202</ele>
        <time>2015-12-20T08:55:15Z</time>
      </trkpt>
      <trkpt lat="44.5192" lon="0.61899">
        <ele>202</ele>
        <time>2015-12-20T08:55:19Z</time>
      </trkpt>
      <trkpt lat="44.51918" lon="0.61896">
        <ele>201</ele>
        <time>2015-12-20T08:55:21Z</time>
      </trkpt>
      <trkpt lat="44.51908" lon="0.61892">
        <ele>201</ele>
        <time>2015-12-20T08:55:26Z</time>
      </trkpt>
      <trkpt lat="44.51897" lon="0.61883">
        <ele>205</ele>
        <time>2015-12-20T08:55:33Z</time>
      </trkpt>
      <trkpt lat="44.51892" lon="0.61876">
        <ele>205</ele>
        <time>2015-12-20T08:55:36Z</time>
      </trkpt>
      <trkpt lat="44.51886" lon="0.61867">
        <ele>208</ele>
        <time>2015-12-20T08:55:41Z</time>
      </trkpt>
      <trkpt lat="44.51881" lon="0.61865">
        <ele>207</ele>
        <time>2015-12-20T08:55:47Z</time>
      </trkpt>
      <trkpt lat="44.5188" lon="0.61865">
        <ele>207</ele>
        <time>2015-12-20T08:55:51Z</time>
      </trkpt>
      <trkpt lat="44.5188" lon="0.61865">
        <ele>207</ele>
        <time>2015-12-20T08:55:54Z</time>
      </trkpt>
      <trkpt lat="44.5188" lon="0.61865">
        <ele>207</ele>
        <time>2015-12-20T08:55:57Z</time>
      </trkpt>
      <trkpt lat="44.5188" lon="0.61865">
        <ele>207</ele>
        <time>2015-12-20T08:56:00Z</time>
      </trkpt>
      <trkpt lat="44.51879" lon="0.61865">
        <ele>207</ele>
        <time>2015-12-20T08:56:03Z</time>
      </trkpt>
      <trkpt lat="44.5188" lon="0.61865">
        <ele>207</ele>
        <time>2015-12-20T08:56:06Z</time>
      </trkpt>
      <trkpt lat="44.5188" lon="0.61865">
        <ele>207</ele>
        <time>2015-12-20T08:56:09Z</time>
      </trkpt>
      <trkpt lat="44.5188" lon="0.61865">
        <ele>207</ele>
        <time>2015-12-20T08:56:12Z</time>
      </trkpt>
      <trkpt lat="44.51879" lon="0.61865">
        <ele>207</ele>
        <time>2015-12-20T08:56:15Z</time>
      </trkpt>
      <trkpt lat="44.51879" lon="0.61865">
        <ele>207</ele>
        <time>2015-12-20T08:56:18Z</time>
      </trkpt>
      <trkpt lat="44.51879" lon="0.61865">
        <ele>207</ele>
        <time>2015-12-20T08:56:21Z</time>
      </trkpt>
      <trkpt lat="44.51879" lon="0.61865">
        <ele>207</ele>
        <time>2015-12-20T08:56:24Z</time>
      </trkpt>
      <trkpt lat="44.51879" lon="0.61865">
        <ele>207</ele>
        <time>2015-12-20T08:56:27Z</time>
      </trkpt>
      <trkpt lat="44.51879" lon="0.61865">
        <ele>207</ele>
        <time>2015-12-20T08:56:30Z</time>
      </trkpt>
      <trkpt lat="44.51879" lon="0.61865">
        <ele>207</ele>
        <time>2015-12-20T08:56:33Z</time>
      </trkpt>
      <trkpt lat="44.51877" lon="0.61862">
        <ele>208</ele>
        <time>2015-12-20T08:56:36Z</time>
      </trkpt>
      <trkpt lat="44.5187" lon="0.61856">
        <ele>208</ele>
        <time>2015-12-20T08:56:41Z</time>
      </trkpt>
      <trkpt lat="44.51856" lon="0.61848">
        <ele>208</ele>
        <time>2015-12-20T08:56:50Z</time>
      </trkpt>
      <trkpt lat="44.51856" lon="0.61845">
        <ele>209</ele>
        <time>2015-12-20T08:56:51Z</time>
      </trkpt>
      <trkpt lat="44.51848" lon="0.61839">
        <ele>207</ele>
        <time>2015-12-20T08:56:56Z</time>
      </trkpt>
      <trkpt lat="44.51845" lon="0.61837">
        <ele>207</ele>
        <time>2015-12-20T08:57:01Z</time>
      </trkpt>
      <trkpt lat="44.51843" lon="0.61835">
        <ele>207</ele>
        <time>2015-12-20T08:57:06Z</time>
      </trkpt>
      <trkpt lat="44.5184" lon="0.61835">
        <ele>207</ele>
        <time>2015-12-20T08:57:11Z</time>
      </trkpt>
      <trkpt lat="44.51838" lon="0.61836">
        <ele>208</ele>
        <time>2015-12-20T08:57:16Z</time>
      </trkpt>
      <trkpt lat="44.51837" lon="0.61835">
        <ele>210</ele>
        <time>2015-12-20T08:57:21Z</time>
      </trkpt>
      <trkpt lat="44.51837" lon="0.61835">
        <ele>210</ele>
        <time>2015-12-20T08:57:24Z</time>
      </trkpt>
      <trkpt lat="44.51837" lon="0.61835">
        <ele>210</ele>
        <time>2015-12-20T08:57:27Z</time>
      </trkpt>
      <trkpt lat="44.51836" lon="0.61834">
        <ele>210</ele>
        <time>2015-12-20T08:57:30Z</time>
      </trkpt>
      <trkpt lat="44.51836" lon="0.61834">
        <ele>209</ele>
        <time>2015-12-20T08:57:33Z</time>
      </trkpt>
      <trkpt lat="44.51836" lon="0.61834">
        <ele>209</ele>
        <time>2015-12-20T08:57:36Z</time>
      </trkpt>
      <trkpt lat="44.51836" lon="0.61834">
        <ele>209</ele>
        <time>2015-12-20T08:57:39Z</time>
      </trkpt>
      <trkpt lat="44.51836" lon="0.61834">
        <ele>209</ele>
        <time>2015-12-20T08:57:42Z</time>
      </trkpt>
      <trkpt lat="44.51836" lon="0.61834">
        <ele>209</ele>
        <time>2015-12-20T08:57:45Z</time>
      </trkpt>
      <trkpt lat="44.51834" lon="0.6183">
        <ele>212</ele>
        <time>2015-12-20T08:57:48Z</time>
      </trkpt>
      <trkpt lat="44.51826" lon="0.61818">
        <ele>212</ele>
        <time>2015-12-20T08:57:54Z</time>
      </trkpt>
      <trkpt lat="44.5182" lon="0.61804">
        <ele>212</ele>
        <time>2015-12-20T08:57:58Z</time>
      </trkpt>
      <trkpt lat="44.51814" lon="0.61783">
        <ele>212</ele>
        <time>2015-12-20T08:58:03Z</time>
      </trkpt>
      <trkpt lat="44.51808" lon="0.61764">
        <ele>213</ele>
        <time>2015-12-20T08:58:08Z</time>
      </trkpt>
      <trkpt lat="44.51807" lon="0.61743">
        <ele>211</ele>
        <time>2015-12-20T08:58:13Z</time>
      </trkpt>
      <trkpt lat="44.51805" lon="0.6172">
        <ele>211</ele>
        <time>2015-12-20T08:58:18Z</time>
      </trkpt>
      <trkpt lat="44.51803" lon="0.61691">
        <ele>211</ele>
        <time>2015-12-20T08:58:23Z</time>
      </trkpt>
      <trkpt lat="44.518" lon="0.61659">
        <ele>210</ele>
        <time>2015-12-20T08:58:28Z</time>
      </trkpt>
      <trkpt lat="44.51798" lon="0.61634">
        <ele>213</ele>
        <time>2015-12-20T08:58:33Z</time>
      </trkpt>
      <trkpt lat="44.51796" lon="0.61609">
        <ele>211</ele>
        <time>2015-12-20T08:58:38Z</time>
      </trkpt>
      <trkpt lat="44.51796" lon="0.61585">
        <ele>206</ele>
        <time>2015-12-20T08:58:43Z</time>
      </trkpt>
      <trkpt lat="44.51794" lon="0.61557">
        <ele>207</ele>
        <time>2015-12-20T08:58:48Z</time>
      </trkpt>
      <trkpt lat="44.51784" lon="0.61527">
        <ele>207</ele>
        <time>2015-12-20T08:58:53Z</time>
      </trkpt>
      <trkpt lat="44.51758" lon="0.61511">
        <ele>206</ele>
        <time>2015-12-20T08:58:58Z</time>
      </trkpt>
      <trkpt lat="44.51727" lon="0.61516">
        <ele>206</ele>
        <time>2015-12-20T08:59:03Z</time>
      </trkpt>
      <trkpt lat="44.5169" lon="0.61518">
        <ele>204</ele>
        <time>2015-12-20T08:59:08Z</time>
      </trkpt>
      <trkpt lat="44.5164" lon="0.61501">
        <ele>202</ele>
        <time>2015-12-20T08:59:15Z</time>
      </trkpt>
      <trkpt lat="44.5162" lon="0.61493">
        <ele>199</ele>
        <time>2015-12-20T08:59:18Z</time>
      </trkpt>
      <trkpt lat="44.51587" lon="0.61474">
        <ele>199</ele>
        <time>2015-12-20T08:59:24Z</time>
      </trkpt>
      <trkpt lat="44.5155" lon="0.61465">
        <ele>197</ele>
        <time>2015-12-20T08:59:30Z</time>
      </trkpt>
      <trkpt lat="44.51528" lon="0.61461">
        <ele>195</ele>
        <time>2015-12-20T08:59:33Z</time>
      </trkpt>
      <trkpt lat="44.51487" lon="0.61459">
        <ele>193</ele>
        <time>2015-12-20T08:59:38Z</time>
      </trkpt>
      <trkpt lat="44.51426" lon="0.61469">
        <ele>191</ele>
        <time>2015-12-20T08:59:45Z</time>
      </trkpt>
      <trkpt lat="44.514" lon="0.61471">
        <ele>190</ele>
        <time>2015-12-20T08:59:48Z</time>
      </trkpt>
      <trkpt lat="44.51336" lon="0.61479">
        <ele>188</ele>
        <time>2015-12-20T08:59:55Z</time>
      </trkpt>
      <trkpt lat="44.51313" lon="0.61502">
        <ele>183</ele>
        <time>2015-12-20T08:59:58Z</time>
      </trkpt>
      <trkpt lat="44.51289" lon="0.61545">
        <ele>180</ele>
        <time>2015-12-20T09:00:03Z</time>
      </trkpt>
      <trkpt lat="44.51263" lon="0.61579">
        <ele>178</ele>
        <time>2015-12-20T09:00:08Z</time>
      </trkpt>
      <trkpt lat="44.51229" lon="0.61596">
        <ele>177</ele>
        <time>2015-12-20T09:00:13Z</time>
      </trkpt>
      <trkpt lat="44.51195" lon="0.61591">
        <ele>176</ele>
        <time>2015-12-20T09:00:18Z</time>
      </trkpt>
      <trkpt lat="44.51168" lon="0.61568">
        <ele>180</ele>
        <time>2015-12-20T09:00:23Z</time>
      </trkpt>
      <trkpt lat="44.5115" lon="0.61543">
        <ele>182</ele>
        <time>2015-12-20T09:00:28Z</time>
      </trkpt>
      <trkpt lat="44.51138" lon="0.6153">
        <ele>186</ele>
        <time>2015-12-20T09:00:33Z</time>
      </trkpt>
      <trkpt lat="44.5113" lon="0.61522">
        <ele>187</ele>
        <time>2015-12-20T09:00:38Z</time>
      </trkpt>
      <trkpt lat="44.51124" lon="0.61516">
        <ele>187</ele>
        <time>2015-12-20T09:00:43Z</time>
      </trkpt>
      <trkpt lat="44.51117" lon="0.61512">
        <ele>189</ele>
        <time>2015-12-20T09:00:48Z</time>
      </trkpt>
      <trkpt lat="44.51111" lon="0.61508">
        <ele>191</ele>
        <time>2015-12-20T09:00:53Z</time>
      </trkpt>
      <trkpt lat="44.51106" lon="0.61504">
        <ele>191</ele>
        <time>2015-12-20T09:00:58Z</time>
      </trkpt>
      <trkpt lat="44.51102" lon="0.61499">
        <ele>197</ele>
        <time>2015-12-20T09:01:03Z</time>
      </trkpt>
      <trkpt lat="44.51095" lon="0.61497">
        <ele>198</ele>
        <time>2015-12-20T09:01:08Z</time>
      </trkpt>
      <trkpt lat="44.51089" lon="0.61494">
        <ele>200</ele>
        <time>2015-12-20T09:01:13Z</time>
      </trkpt>
      <trkpt lat="44.51085" lon="0.61489">
        <ele>200</ele>
        <time>2015-12-20T09:01:18Z</time>
      </trkpt>
      <trkpt lat="44.5108" lon="0.61485">
        <ele>200</ele>
        <time>2015-12-20T09:01:23Z</time>
      </trkpt>
      <trkpt lat="44.51075" lon="0.61482">
        <ele>201</ele>
        <time>2015-12-20T09:01:28Z</time>
      </trkpt>
      <trkpt lat="44.51071" lon="0.6148">
        <ele>202</ele>
        <time>2015-12-20T09:01:33Z</time>
      </trkpt>
      <trkpt lat="44.51069" lon="0.61475">
        <ele>202</ele>
        <time>2015-12-20T09:01:38Z</time>
      </trkpt>
      <trkpt lat="44.51064" lon="0.61474">
        <ele>201</ele>
        <time>2015-12-20T09:01:44Z</time>
      </trkpt>
      <trkpt lat="44.51062" lon="0.61474">
        <ele>199</ele>
        <time>2015-12-20T09:01:48Z</time>
      </trkpt>
      <trkpt lat="44.5106" lon="0.61473">
        <ele>200</ele>
        <time>2015-12-20T09:01:53Z</time>
      </trkpt>
      <trkpt lat="44.51056" lon="0.61467">
        <ele>201</ele>
        <time>2015-12-20T09:01:59Z</time>
      </trkpt>
      <trkpt lat="44.51054" lon="0.61465">
        <ele>201</ele>
        <time>2015-12-20T09:02:03Z</time>
      </trkpt>
      <trkpt lat="44.51053" lon="0.61464">
        <ele>201</ele>
        <time>2015-12-20T09:02:08Z</time>
      </trkpt>
      <trkpt lat="44.5105" lon="0.61462">
        <ele>202</ele>
        <time>2015-12-20T09:02:11Z</time>
      </trkpt>
      <trkpt lat="44.51048" lon="0.61461">
        <ele>204</ele>
        <time>2015-12-20T09:02:16Z</time>
      </trkpt>
      <trkpt lat="44.51047" lon="0.61461">
        <ele>204</ele>
        <time>2015-12-20T09:02:21Z</time>
      </trkpt>
      <trkpt lat="44.51047" lon="0.6146">
        <ele>203</ele>
        <time>2015-12-20T09:02:24Z</time>
      </trkpt>
      <trkpt lat="44.51047" lon="0.6146">
        <ele>204</ele>
        <time>2015-12-20T09:02:27Z</time>
      </trkpt>
      <trkpt lat="44.51045" lon="0.61459">
        <ele>203</ele>
        <time>2015-12-20T09:02:30Z</time>
      </trkpt>
      <trkpt lat="44.51042" lon="0.61456">
        <ele>204</ele>
        <time>2015-12-20T09:02:35Z</time>
      </trkpt>
      <trkpt lat="44.51038" lon="0.61453">
        <ele>206</ele>
        <time>2015-12-20T09:02:40Z</time>
      </trkpt>
      <trkpt lat="44.51036" lon="0.61451">
        <ele>207</ele>
        <time>2015-12-20T09:02:45Z</time>
      </trkpt>
      <trkpt lat="44.51032" lon="0.6145">
        <ele>207</ele>
        <time>2015-12-20T09:02:50Z</time>
      </trkpt>
      <trkpt lat="44.51028" lon="0.61449">
        <ele>207</ele>
        <time>2015-12-20T09:02:55Z</time>
      </trkpt>
      <trkpt lat="44.51025" lon="0.61447">
        <ele>208</ele>
        <time>2015-12-20T09:03:00Z</time>
      </trkpt>
      <trkpt lat="44.51021" lon="0.61444">
        <ele>209</ele>
        <time>2015-12-20T09:03:04Z</time>
      </trkpt>
      <trkpt lat="44.5102" lon="0.61443">
        <ele>209</ele>
        <time>2015-12-20T09:03:09Z</time>
      </trkpt>
      <trkpt lat="44.51019" lon="0.61443">
        <ele>209</ele>
        <time>2015-12-20T09:03:12Z</time>
      </trkpt>
      <trkpt lat="44.51017" lon="0.61443">
        <ele>208</ele>
        <time>2015-12-20T09:03:17Z</time>
      </trkpt>
      <trkpt lat="44.51014" lon="0.61442">
        <ele>209</ele>
        <time>2015-12-20T09:03:22Z</time>
      </trkpt>
      <trkpt lat="44.51009" lon="0.61438">
        <ele>212</ele>
        <time>2015-12-20T09:03:27Z</time>
      </trkpt>
      <trkpt lat="44.51004" lon="0.61434">
        <ele>212</ele>
        <time>2015-12-20T09:03:32Z</time>
      </trkpt>
      <trkpt lat="44.51005" lon="0.61434">
        <ele>212</ele>
        <time>2015-12-20T09:03:37Z</time>
      </trkpt>
      <trkpt lat="44.51005" lon="0.61435">
        <ele>212</ele>
        <time>2015-12-20T09:03:40Z</time>
      </trkpt>
      <trkpt lat="44.51005" lon="0.61434">
        <ele>212</ele>
        <time>2015-12-20T09:03:43Z</time>
      </trkpt>
      <trkpt lat="44.51005" lon="0.61434">
        <ele>212</ele>
        <time>2015-12-20T09:03:46Z</time>
      </trkpt>
      <trkpt lat="44.51005" lon="0.61434">
        <ele>212</ele>
        <time>2015-12-20T09:03:51Z</time>
      </trkpt>
      <trkpt lat="44.51005" lon="0.61434">
        <ele>212</ele>
        <time>2015-12-20T09:03:54Z</time>
      </trkpt>
      <trkpt lat="44.51005" lon="0.61434">
        <ele>212</ele>
        <time>2015-12-20T09:03:55Z</time>
      </trkpt>
      <trkpt lat="44.51005" lon="0.61434">
        <ele>212</ele>
        <time>2015-12-20T09:03:58Z</time>
      </trkpt>
      <trkpt lat="44.51005" lon="0.61434">
        <ele>212</ele>
        <time>2015-12-20T09:04:01Z</time>
      </trkpt>
      <trkpt lat="44.51005" lon="0.61434">
        <ele>212</ele>
        <time>2015-12-20T09:04:04Z</time>
      </trkpt>
      <trkpt lat="44.51005" lon="0.61434">
        <ele>212</ele>
        <time>2015-12-20T09:04:07Z</time>
      </trkpt>
      <trkpt lat="44.51005" lon="0.61434">
        <ele>212</ele>
        <time>2015-12-20T09:04:10Z</time>
      </trkpt>
      <trkpt lat="44.51005" lon="0.61434">
        <ele>212</ele>
        <time>2015-12-20T09:04:13Z</time>
      </trkpt>
      <trkpt lat="44.51005" lon="0.61434">
        <ele>212</ele>
        <time>2015-12-20T09:04:17Z</time>
      </trkpt>
      <trkpt lat="44.51005" lon="0.61434">
        <ele>212</ele>
        <time>2015-12-20T09:04:19Z</time>
      </trkpt>
      <trkpt lat="44.51005" lon="0.61434">
        <ele>212</ele>
        <time>2015-12-20T09:04:22Z</time>
      </trkpt>
      <trkpt lat="44.51005" lon="0.61434">
        <ele>212</ele>
        <time>2015-12-20T09:04:25Z</time>
      </trkpt>
      <trkpt lat="44.51005" lon="0.61434">
        <ele>212</ele>
        <time>2015-12-20T09:04:28Z</time>
      </trkpt>
      <trkpt lat="44.51005" lon="0.61434">
        <ele>212</ele>
        <time>2015-12-20T09:04:31Z</time>
      </trkpt>
      <trkpt lat="44.51005" lon="0.61434">
        <ele>212</ele>
        <time>2015-12-20T09:04:34Z</time>
      </trkpt>
      <trkpt lat="44.51003" lon="0.61434">
        <ele>212</ele>
        <time>2015-12-20T09:04:37Z</time>
      </trkpt>
      <trkpt lat="44.50997" lon="0.6143">
        <ele>213</ele>
        <time>2015-12-20T09:04:42Z</time>
      </trkpt>
      <trkpt lat="44.5099" lon="0.61426">
        <ele>212</ele>
        <time>2015-12-20T09:04:47Z</time>
      </trkpt>
      <trkpt lat="44.50985" lon="0.61421">
        <ele>211</ele>
        <time>2015-12-20T09:04:52Z</time>
      </trkpt>
      <trkpt lat="44.5099" lon="0.61408">
        <ele>210</ele>
        <time>2015-12-20T09:05:01Z</time>
      </trkpt>
      <trkpt lat="44.50991" lon="0.61406">
        <ele>211</ele>
        <time>2015-12-20T09:05:02Z</time>
      </trkpt>
      <trkpt lat="44.50996" lon="0.61391">
        <ele>211</ele>
        <time>2015-12-20T09:05:07Z</time>
      </trkpt>
      <trkpt lat="44.51003" lon="0.61378">
        <ele>212</ele>
        <time>2015-12-20T09:05:12Z</time>
      </trkpt>
      <trkpt lat="44.51008" lon="0.61362">
        <ele>210</ele>
        <time>2015-12-20T09:05:17Z</time>
      </trkpt>
      <trkpt lat="44.51014" lon="0.61344">
        <ele>209</ele>
        <time>2015-12-20T09:05:22Z</time>
      </trkpt>
      <trkpt lat="44.51012" lon="0.61313">
        <ele>209</ele>
        <time>2015-12-20T09:05:30Z</time>
      </trkpt>
      <trkpt lat="44.51013" lon="0.61307">
        <ele>210</ele>
        <time>2015-12-20T09:05:32Z</time>
      </trkpt>
      <trkpt lat="44.5101" lon="0.6129">
        <ele>208</ele>
        <time>2015-12-20T09:05:37Z</time>
      </trkpt>
      <trkpt lat="44.51003" lon="0.61272">
        <ele>212</ele>
        <time>2015-12-20T09:05:42Z</time>
      </trkpt>
      <trkpt lat="44.50996" lon="0.61259">
        <ele>212</ele>
        <time>2015-12-20T09:05:47Z</time>
      </trkpt>
      <trkpt lat="44.50984" lon="0.61245">
        <ele>214</ele>
        <time>2015-12-20T09:05:52Z</time>
      </trkpt>
      <trkpt lat="44.50968" lon="0.61241">
        <ele>214</ele>
        <time>2015-12-20T09:05:57Z</time>
      </trkpt>
      <trkpt lat="44.5095" lon="0.61221">
        <ele>214</ele>
        <time>2015-12-20T09:06:04Z</time>
      </trkpt>
      <trkpt lat="44.50918" lon="0.61193">
        <ele>211</ele>
        <time>2015-12-20T09:06:10Z</time>
      </trkpt>
      <trkpt lat="44.50907" lon="0.61192">
        <ele>212</ele>
        <time>2015-12-20T09:06:12Z</time>
      </trkpt>
      <trkpt lat="44.50863" lon="0.6119">
        <ele>211</ele>
        <time>2015-12-20T09:06:19Z</time>
      </trkpt>
      <trkpt lat="44.50843" lon="0.6119">
        <ele>209</ele>
        <time>2015-12-20T09:06:22Z</time>
      </trkpt>
      <trkpt lat="44.50816" lon="0.61188">
        <ele>209</ele>
        <time>2015-12-20T09:06:27Z</time>
      </trkpt>
      <trkpt lat="44.50796" lon="0.61174">
        <ele>207</ele>
        <time>2015-12-20T09:06:32Z</time>
      </trkpt>
      <trkpt lat="44.50783" lon="0.61139">
        <ele>209</ele>
        <time>2015-12-20T09:06:37Z</time>
      </trkpt>
      <trkpt lat="44.50771" lon="0.61101">
        <ele>210</ele>
        <time>2015-12-20T09:06:42Z</time>
      </trkpt>
      <trkpt lat="44.5076" lon="0.61067">
        <ele>211</ele>
        <time>2015-12-20T09:06:47Z</time>
      </trkpt>
      <trkpt lat="44.50751" lon="0.61036">
        <ele>210</ele>
        <time>2015-12-20T09:06:52Z</time>
      </trkpt>
      <trkpt lat="44.50743" lon="0.61">
        <ele>208</ele>
        <time>2015-12-20T09:06:57Z</time>
      </trkpt>
      <trkpt lat="44.50739" lon="0.60952">
        <ele>205</ele>
        <time>2015-12-20T09:07:02Z</time>
      </trkpt>
      <trkpt lat="44.50727" lon="0.60899">
        <ele>203</ele>
        <time>2015-12-20T09:07:07Z</time>
      </trkpt>
      <trkpt lat="44.50713" lon="0.60857">
        <ele>204</ele>
        <time>2015-12-20T09:07:12Z</time>
      </trkpt>
      <trkpt lat="44.50713" lon="0.60807">
        <ele>196</ele>
        <time>2015-12-20T09:07:17Z</time>
      </trkpt>
      <trkpt lat="44.50713" lon="0.60749">
        <ele>191</ele>
        <time>2015-12-20T09:07:22Z</time>
      </trkpt>
      <trkpt lat="44.50697" lon="0.60704">
        <ele>192</ele>
        <time>2015-12-20T09:07:27Z</time>
      </trkpt>
      <trkpt lat="44.50687" lon="0.60658">
        <ele>191</ele>
        <time>2015-12-20T09:07:32Z</time>
      </trkpt>
      <trkpt lat="44.50658" lon="0.60595">
        <ele>186</ele>
        <time>2015-12-20T09:07:39Z</time>
      </trkpt>
      <trkpt lat="44.50643" lon="0.60582">
        <ele>187</ele>
        <time>2015-12-20T09:07:42Z</time>
      </trkpt>
      <trkpt lat="44.50626" lon="0.60492">
        <ele>176</ele>
        <time>2015-12-20T09:07:51Z</time>
      </trkpt>
      <trkpt lat="44.50624" lon="0.60482">
        <ele>174</ele>
        <time>2015-12-20T09:07:52Z</time>
      </trkpt>
      <trkpt lat="44.5062" lon="0.6043">
        <ele>170</ele>
        <time>2015-12-20T09:07:57Z</time>
      </trkpt>
      <trkpt lat="44.50588" lon="0.60404">
        <ele>168</ele>
        <time>2015-12-20T09:08:03Z</time>
      </trkpt>
      <trkpt lat="44.50566" lon="0.60391">
        <ele>169</ele>
        <time>2015-12-20T09:08:07Z</time>
      </trkpt>
      <trkpt lat="44.50544" lon="0.60371">
        <ele>169</ele>
        <time>2015-12-20T09:08:12Z</time>
      </trkpt>
      <trkpt lat="44.50525" lon="0.60353">
        <ele>168</ele>
        <time>2015-12-20T09:08:17Z</time>
      </trkpt>
      <trkpt lat="44.50509" lon="0.60345">
        <ele>170</ele>
        <time>2015-12-20T09:08:22Z</time>
      </trkpt>
      <trkpt lat="44.50493" lon="0.6034">
        <ele>170</ele>
        <time>2015-12-20T09:08:27Z</time>
      </trkpt>
      <trkpt lat="44.50472" lon="0.60341">
        <ele>169</ele>
        <time>2015-12-20T09:08:32Z</time>
      </trkpt>
      <trkpt lat="44.5045" lon="0.60347">
        <ele>168</ele>
        <time>2015-12-20T09:08:37Z</time>
      </trkpt>
      <trkpt lat="44.50419" lon="0.60351">
        <ele>165</ele>
        <time>2015-12-20T09:08:42Z</time>
      </trkpt>
      <trkpt lat="44.50388" lon="0.60361">
        <ele>165</ele>
        <time>2015-12-20T09:08:47Z</time>
      </trkpt>
      <trkpt lat="44.50352" lon="0.60379">
        <ele>162</ele>
        <time>2015-12-20T09:08:53Z</time>
      </trkpt>
      <trkpt lat="44.50314" lon="0.60395">
        <ele>158</ele>
        <time>2015-12-20T09:09:01Z</time>
      </trkpt>
      <trkpt lat="44.50311" lon="0.60399">
        <ele>159</ele>
        <time>2015-12-20T09:09:02Z</time>
      </trkpt>
      <trkpt lat="44.50301" lon="0.60421">
        <ele>158</ele>
        <time>2015-12-20T09:09:07Z</time>
      </trkpt>
      <trkpt lat="44.50291" lon="0.60441">
        <ele>158</ele>
        <time>2015-12-20T09:09:12Z</time>
      </trkpt>
      <trkpt lat="44.50278" lon="0.60459">
        <ele>155</ele>
        <time>2015-12-20T09:09:17Z</time>
      </trkpt>
      <trkpt lat="44.50262" lon="0.60472">
        <ele>154</ele>
        <time>2015-12-20T09:09:22Z</time>
      </trkpt>
      <trkpt lat="44.50247" lon="0.60479">
        <ele>153</ele>
        <time>2015-12-20T09:09:27Z</time>
      </trkpt>
      <trkpt lat="44.50233" lon="0.60483">
        <ele>152</ele>
        <time>2015-12-20T09:09:32Z</time>
      </trkpt>
      <trkpt lat="44.50218" lon="0.60481">
        <ele>151</ele>
        <time>2015-12-20T09:09:37Z</time>
      </trkpt>
      <trkpt lat="44.50205" lon="0.60478">
        <ele>150</ele>
        <time>2015-12-20T09:09:42Z</time>
      </trkpt>
      <trkpt lat="44.50193" lon="0.60475">
        <ele>152</ele>
        <time>2015-12-20T09:09:47Z</time>
      </trkpt>
      <trkpt lat="44.5018" lon="0.60471">
        <ele>154</ele>
        <time>2015-12-20T09:09:52Z</time>
      </trkpt>
      <trkpt lat="44.50168" lon="0.60465">
        <ele>155</ele>
        <time>2015-12-20T09:09:57Z</time>
      </trkpt>
      <trkpt lat="44.50157" lon="0.6046">
        <ele>156</ele>
        <time>2015-12-20T09:10:02Z</time>
      </trkpt>
      <trkpt lat="44.50143" lon="0.60456">
        <ele>158</ele>
        <time>2015-12-20T09:10:07Z</time>
      </trkpt>
      <trkpt lat="44.50128" lon="0.60453">
        <ele>159</ele>
        <time>2015-12-20T09:10:12Z</time>
      </trkpt>
      <trkpt lat="44.50111" lon="0.60454">
        <ele>160</ele>
        <time>2015-12-20T09:10:17Z</time>
      </trkpt>
      <trkpt lat="44.50094" lon="0.60459">
        <ele>160</ele>
        <time>2015-12-20T09:10:22Z</time>
      </trkpt>
      <trkpt lat="44.50078" lon="0.60466">
        <ele>172</ele>
        <time>2015-12-20T09:10:27Z</time>
      </trkpt>
      <trkpt lat="44.50061" lon="0.60476">
        <ele>161</ele>
        <time>2015-12-20T09:10:32Z</time>
      </trkpt>
      <trkpt lat="44.5004" lon="0.60491">
        <ele>158</ele>
        <time>2015-12-20T09:10:37Z</time>
      </trkpt>
      <trkpt lat="44.50014" lon="0.60508">
        <ele>156</ele>
        <time>2015-12-20T09:10:42Z</time>
      </trkpt>
      <trkpt lat="44.49988" lon="0.6053">
        <ele>155</ele>
        <time>2015-12-20T09:10:47Z</time>
      </trkpt>
      <trkpt lat="44.49965" lon="0.60557">
        <ele>154</ele>
        <time>2015-12-20T09:10:52Z</time>
      </trkpt>
      <trkpt lat="44.49943" lon="0.60582">
        <ele>154</ele>
        <time>2015-12-20T09:10:57Z</time>
      </trkpt>
      <trkpt lat="44.49922" lon="0.60596">
        <ele>154</ele>
        <time>2015-12-20T09:11:02Z</time>
      </trkpt>
      <trkpt lat="44.49898" lon="0.60597">
        <ele>155</ele>
        <time>2015-12-20T09:11:07Z</time>
      </trkpt>
      <trkpt lat="44.49871" lon="0.60594">
        <ele>155</ele>
        <time>2015-12-20T09:11:12Z</time>
      </trkpt>
      <trkpt lat="44.49845" lon="0.60594">
        <ele>155</ele>
        <time>2015-12-20T09:11:17Z</time>
      </trkpt>
      <trkpt lat="44.49817" lon="0.60599">
        <ele>155</ele>
        <time>2015-12-20T09:11:22Z</time>
      </trkpt>
      <trkpt lat="44.49788" lon="0.60611">
        <ele>154</ele>
        <time>2015-12-20T09:11:27Z</time>
      </trkpt>
      <trkpt lat="44.49754" lon="0.60625">
        <ele>150</ele>
        <time>2015-12-20T09:11:32Z</time>
      </trkpt>
      <trkpt lat="44.49719" lon="0.6064">
        <ele>148</ele>
        <time>2015-12-20T09:11:37Z</time>
      </trkpt>
      <trkpt lat="44.49685" lon="0.60651">
        <ele>147</ele>
        <time>2015-12-20T09:11:42Z</time>
      </trkpt>
      <trkpt lat="44.49652" lon="0.60655">
        <ele>148</ele>
        <time>2015-12-20T09:11:47Z</time>
      </trkpt>
      <trkpt lat="44.49628" lon="0.60653">
        <ele>148</ele>
        <time>2015-12-20T09:11:52Z</time>
      </trkpt>
      <trkpt lat="44.49611" lon="0.60647">
        <ele>148</ele>
        <time>2015-12-20T09:11:57Z</time>
      </trkpt>
      <trkpt lat="44.49602" lon="0.60644">
        <ele>148</ele>
        <time>2015-12-20T09:12:02Z</time>
      </trkpt>
      <trkpt lat="44.49595" lon="0.60639">
        <ele>148</ele>
        <time>2015-12-20T09:12:07Z</time>
      </trkpt>
      <trkpt lat="44.49582" lon="0.60634">
        <ele>149</ele>
        <time>2015-12-20T09:12:12Z</time>
      </trkpt>
      <trkpt lat="44.49568" lon="0.60628">
        <ele>149</ele>
        <time>2015-12-20T09:12:17Z</time>
      </trkpt>
      <trkpt lat="44.49552" lon="0.60622">
        <ele>149</ele>
        <time>2015-12-20T09:12:22Z</time>
      </trkpt>
      <trkpt lat="44.49538" lon="0.60616">
        <ele>150</ele>
        <time>2015-12-20T09:12:27Z</time>
      </trkpt>
      <trkpt lat="44.49525" lon="0.60611">
        <ele>152</ele>
        <time>2015-12-20T09:12:32Z</time>
      </trkpt>
      <trkpt lat="44.4951" lon="0.60606">
        <ele>152</ele>
        <time>2015-12-20T09:12:37Z</time>
      </trkpt>
      <trkpt lat="44.49497" lon="0.60604">
        <ele>152</ele>
        <time>2015-12-20T09:12:42Z</time>
      </trkpt>
      <trkpt lat="44.49483" lon="0.60601">
        <ele>153</ele>
        <time>2015-12-20T09:12:47Z</time>
      </trkpt>
      <trkpt lat="44.49468" lon="0.60601">
        <ele>153</ele>
        <time>2015-12-20T09:12:52Z</time>
      </trkpt>
      <trkpt lat="44.49453" lon="0.60601">
        <ele>155</ele>
        <time>2015-12-20T09:12:57Z</time>
      </trkpt>
      <trkpt lat="44.49439" lon="0.60601">
        <ele>156</ele>
        <time>2015-12-20T09:13:02Z</time>
      </trkpt>
      <trkpt lat="44.49426" lon="0.60604">
        <ele>156</ele>
        <time>2015-12-20T09:13:07Z</time>
      </trkpt>
      <trkpt lat="44.49411" lon="0.60605">
        <ele>156</ele>
        <time>2015-12-20T09:13:12Z</time>
      </trkpt>
      <trkpt lat="44.49397" lon="0.60608">
        <ele>156</ele>
        <time>2015-12-20T09:13:17Z</time>
      </trkpt>
      <trkpt lat="44.49381" lon="0.60613">
        <ele>159</ele>
        <time>2015-12-20T09:13:22Z</time>
      </trkpt>
      <trkpt lat="44.49367" lon="0.60621">
        <ele>159</ele>
        <time>2015-12-20T09:13:27Z</time>
      </trkpt>
      <trkpt lat="44.49353" lon="0.6063">
        <ele>160</ele>
        <time>2015-12-20T09:13:32Z</time>
      </trkpt>
      <trkpt lat="44.49335" lon="0.60632">
        <ele>161</ele>
        <time>2015-12-20T09:13:37Z</time>
      </trkpt>
      <trkpt lat="44.49317" lon="0.60629">
        <ele>161</ele>
        <time>2015-12-20T09:13:42Z</time>
      </trkpt>
      <trkpt lat="44.49299" lon="0.60623">
        <ele>160</ele>
        <time>2015-12-20T09:13:47Z</time>
      </trkpt>
      <trkpt lat="44.49274" lon="0.60616">
        <ele>157</ele>
        <time>2015-12-20T09:13:52Z</time>
      </trkpt>
      <trkpt lat="44.49243" lon="0.60593">
        <ele>157</ele>
        <time>2015-12-20T09:13:58Z</time>
      </trkpt>
      <trkpt lat="44.49223" lon="0.60574">
        <ele>157</ele>
        <time>2015-12-20T09:14:02Z</time>
      </trkpt>
      <trkpt lat="44.492" lon="0.60535">
        <ele>156</ele>
        <time>2015-12-20T09:14:08Z</time>
      </trkpt>
      <trkpt lat="44.49189" lon="0.60504">
        <ele>156</ele>
        <time>2015-12-20T09:14:12Z</time>
      </trkpt>
      <trkpt lat="44.49173" lon="0.60467">
        <ele>158</ele>
        <time>2015-12-20T09:14:17Z</time>
      </trkpt>
      <trkpt lat="44.49153" lon="0.60431">
        <ele>165</ele>
        <time>2015-12-20T09:14:22Z</time>
      </trkpt>
      <trkpt lat="44.49135" lon="0.60405">
        <ele>160</ele>
        <time>2015-12-20T09:14:27Z</time>
      </trkpt>
      <trkpt lat="44.49117" lon="0.60385">
        <ele>159</ele>
        <time>2015-12-20T09:14:32Z</time>
      </trkpt>
      <trkpt lat="44.49091" lon="0.6037">
        <ele>161</ele>
        <time>2015-12-20T09:14:37Z</time>
      </trkpt>
      <trkpt lat="44.49067" lon="0.60361">
        <ele>163</ele>
        <time>2015-12-20T09:14:42Z</time>
      </trkpt>
      <trkpt lat="44.49043" lon="0.60355">
        <ele>165</ele>
        <time>2015-12-20T09:14:47Z</time>
      </trkpt>
      <trkpt lat="44.49025" lon="0.60348">
        <ele>166</ele>
        <time>2015-12-20T09:14:52Z</time>
      </trkpt>
      <trkpt lat="44.49011" lon="0.60344">
        <ele>167</ele>
        <time>2015-12-20T09:14:57Z</time>
      </trkpt>
      <trkpt lat="44.48998" lon="0.60338">
        <ele>167</ele>
        <time>2015-12-20T09:15:02Z</time>
      </trkpt>
      <trkpt lat="44.48986" lon="0.60327">
        <ele>168</ele>
        <time>2015-12-20T09:15:07Z</time>
      </trkpt>
      <trkpt lat="44.48975" lon="0.60315">
        <ele>168</ele>
        <time>2015-12-20T09:15:12Z</time>
      </trkpt>
      <trkpt lat="44.4897" lon="0.60298">
        <ele>168</ele>
        <time>2015-12-20T09:15:17Z</time>
      </trkpt>
      <trkpt lat="44.48965" lon="0.6028">
        <ele>170</ele>
        <time>2015-12-20T09:15:22Z</time>
      </trkpt>
      <trkpt lat="44.48961" lon="0.60265">
        <ele>172</ele>
        <time>2015-12-20T09:15:27Z</time>
      </trkpt>
      <trkpt lat="44.48958" lon="0.60248">
        <ele>174</ele>
        <time>2015-12-20T09:15:32Z</time>
      </trkpt>
      <trkpt lat="44.48955" lon="0.60231">
        <ele>175</ele>
        <time>2015-12-20T09:15:37Z</time>
      </trkpt>
      <trkpt lat="44.48951" lon="0.60214">
        <ele>177</ele>
        <time>2015-12-20T09:15:42Z</time>
      </trkpt>
      <trkpt lat="44.48941" lon="0.60202">
        <ele>176</ele>
        <time>2015-12-20T09:15:47Z</time>
      </trkpt>
      <trkpt lat="44.48938" lon="0.60191">
        <ele>174</ele>
        <time>2015-12-20T09:15:52Z</time>
      </trkpt>
      <trkpt lat="44.48939" lon="0.60189">
        <ele>174</ele>
        <time>2015-12-20T09:15:57Z</time>
      </trkpt>
      <trkpt lat="44.48939" lon="0.6019">
        <ele>174</ele>
        <time>2015-12-20T09:16:00Z</time>
      </trkpt>
      <trkpt lat="44.4894" lon="0.60185">
        <ele>175</ele>
        <time>2015-12-20T09:16:03Z</time>
      </trkpt>
      <trkpt lat="44.48938" lon="0.60165">
        <ele>174</ele>
        <time>2015-12-20T09:16:08Z</time>
      </trkpt>
      <trkpt lat="44.48935" lon="0.60136">
        <ele>174</ele>
        <time>2015-12-20T09:16:13Z</time>
      </trkpt>
      <trkpt lat="44.4893" lon="0.60106">
        <ele>171</ele>
        <time>2015-12-20T09:16:18Z</time>
      </trkpt>
      <trkpt lat="44.48924" lon="0.60065">
        <ele>169</ele>
        <time>2015-12-20T09:16:24Z</time>
      </trkpt>
      <trkpt lat="44.4892" lon="0.60039">
        <ele>169</ele>
        <time>2015-12-20T09:16:28Z</time>
      </trkpt>
      <trkpt lat="44.48915" lon="0.60013">
        <ele>167</ele>
        <time>2015-12-20T09:16:33Z</time>
      </trkpt>
      <trkpt lat="44.48909" lon="0.5999">
        <ele>169</ele>
        <time>2015-12-20T09:16:38Z</time>
      </trkpt>
      <trkpt lat="44.48901" lon="0.5994">
        <ele>169</ele>
        <time>2015-12-20T09:16:47Z</time>
      </trkpt>
      <trkpt lat="44.48899" lon="0.59928">
        <ele>169</ele>
        <time>2015-12-20T09:16:49Z</time>
      </trkpt>
      <trkpt lat="44.48891" lon="0.59893">
        <ele>167</ele>
        <time>2015-12-20T09:16:57Z</time>
      </trkpt>
      <trkpt lat="44.48892" lon="0.59889">
        <ele>166</ele>
        <time>2015-12-20T09:16:58Z</time>
      </trkpt>
      <trkpt lat="44.48888" lon="0.59861">
        <ele>164</ele>
        <time>2015-12-20T09:17:03Z</time>
      </trkpt>
      <trkpt lat="44.48892" lon="0.59794">
        <ele>158</ele>
        <time>2015-12-20T09:17:10Z</time>
      </trkpt>
      <trkpt lat="44.48895" lon="0.5976">
        <ele>155</ele>
        <time>2015-12-20T09:17:13Z</time>
      </trkpt>
      <trkpt lat="44.48899" lon="0.59696">
        <ele>148</ele>
        <time>2015-12-20T09:17:18Z</time>
      </trkpt>
      <trkpt lat="44.48911" lon="0.59633">
        <ele>144</ele>
        <time>2015-12-20T09:17:23Z</time>
      </trkpt>
      <trkpt lat="44.4893" lon="0.59571">
        <ele>137</ele>
        <time>2015-12-20T09:17:28Z</time>
      </trkpt>
      <trkpt lat="44.48968" lon="0.59481">
        <ele>128</ele>
        <time>2015-12-20T09:17:36Z</time>
      </trkpt>
      <trkpt lat="44.48968" lon="0.59451">
        <ele>126</ele>
        <time>2015-12-20T09:17:40Z</time>
      </trkpt>
      <trkpt lat="44.48958" lon="0.59434">
        <ele>125</ele>
        <time>2015-12-20T09:17:43Z</time>
      </trkpt>
      <trkpt lat="44.48937" lon="0.59396">
        <ele>124</ele>
        <time>2015-12-20T09:17:48Z</time>
      </trkpt>
      <trkpt lat="44.48923" lon="0.59369">
        <ele>125</ele>
        <time>2015-12-20T09:17:53Z</time>
      </trkpt>
      <trkpt lat="44.48938" lon="0.59354">
        <ele>122</ele>
        <time>2015-12-20T09:17:58Z</time>
      </trkpt>
      <trkpt lat="44.48965" lon="0.59342">
        <ele>119</ele>
        <time>2015-12-20T09:18:03Z</time>
      </trkpt>
      <trkpt lat="44.48988" lon="0.59326">
        <ele>118</ele>
        <time>2015-12-20T09:18:08Z</time>
      </trkpt>
      <trkpt lat="44.49011" lon="0.59309">
        <ele>117</ele>
        <time>2015-12-20T09:18:13Z</time>
      </trkpt>
      <trkpt lat="44.49036" lon="0.59292">
        <ele>115</ele>
        <time>2015-12-20T09:18:18Z</time>
      </trkpt>
      <trkpt lat="44.49063" lon="0.59277">
        <ele>114</ele>
        <time>2015-12-20T09:18:23Z</time>
      </trkpt>
      <trkpt lat="44.49087" lon="0.59261">
        <ele>113</ele>
        <time>2015-12-20T09:18:28Z</time>
      </trkpt>
      <trkpt lat="44.49114" lon="0.59243">
        <ele>113</ele>
        <time>2015-12-20T09:18:33Z</time>
      </trkpt>
      <trkpt lat="44.49141" lon="0.59218">
        <ele>111</ele>
        <time>2015-12-20T09:18:38Z</time>
      </trkpt>
      <trkpt lat="44.49168" lon="0.59192">
        <ele>109</ele>
        <time>2015-12-20T09:18:43Z</time>
      </trkpt>
      <trkpt lat="44.49196" lon="0.59164">
        <ele>108</ele>
        <time>2015-12-20T09:18:48Z</time>
      </trkpt>
      <trkpt lat="44.4923" lon="0.59133">
        <ele>105</ele>
        <time>2015-12-20T09:18:53Z</time>
      </trkpt>
      <trkpt lat="44.49267" lon="0.59099">
        <ele>101</ele>
        <time>2015-12-20T09:18:58Z</time>
      </trkpt>
      <trkpt lat="44.49304" lon="0.5906">
        <ele>100</ele>
        <time>2015-12-20T09:19:03Z</time>
      </trkpt>
      <trkpt lat="44.49343" lon="0.59035">
        <ele>101</ele>
        <time>2015-12-20T09:19:08Z</time>
      </trkpt>
      <trkpt lat="44.49394" lon="0.59004">
        <ele>105</ele>
        <time>2015-12-20T09:19:16Z</time>
      </trkpt>
      <trkpt lat="44.49423" lon="0.58967">
        <ele>102</ele>
        <time>2015-12-20T09:19:22Z</time>
      </trkpt>
      <trkpt lat="44.49427" lon="0.58959">
        <ele>112</ele>
        <time>2015-12-20T09:19:23Z</time>
      </trkpt>
      <trkpt lat="44.49445" lon="0.58919">
        <ele>104</ele>
        <time>2015-12-20T09:19:28Z</time>
      </trkpt>
      <trkpt lat="44.49459" lon="0.5888">
        <ele>102</ele>
        <time>2015-12-20T09:19:33Z</time>
      </trkpt>
      <trkpt lat="44.49493" lon="0.58836">
        <ele>102</ele>
        <time>2015-12-20T09:19:42Z</time>
      </trkpt>
      <trkpt lat="44.4951" lon="0.58825">
        <ele>105</ele>
        <time>2015-12-20T09:19:46Z</time>
      </trkpt>
      <trkpt lat="44.49518" lon="0.58819">
        <ele>105</ele>
        <time>2015-12-20T09:19:48Z</time>
      </trkpt>
      <trkpt lat="44.49542" lon="0.58799">
        <ele>105</ele>
        <time>2015-12-20T09:19:53Z</time>
      </trkpt>
      <trkpt lat="44.49563" lon="0.58777">
        <ele>104</ele>
        <time>2015-12-20T09:19:58Z</time>
      </trkpt>
      <trkpt lat="44.49583" lon="0.58756">
        <ele>102</ele>
        <time>2015-12-20T09:20:03Z</time>
      </trkpt>
      <trkpt lat="44.49626" lon="0.58713">
        <ele>100</ele>
        <time>2015-12-20T09:20:12Z</time>
      </trkpt>
      <trkpt lat="44.49633" lon="0.58707">
        <ele>100</ele>
        <time>2015-12-20T09:20:13Z</time>
      </trkpt>
      <trkpt lat="44.49682" lon="0.58691">
        <ele>102</ele>
        <time>2015-12-20T09:20:22Z</time>
      </trkpt>
      <trkpt lat="44.49687" lon="0.58691">
        <ele>101</ele>
        <time>2015-12-20T09:20:23Z</time>
      </trkpt>
      <trkpt lat="44.49724" lon="0.58676">
        <ele>98</ele>
        <time>2015-12-20T09:20:29Z</time>
      </trkpt>
      <trkpt lat="44.49746" lon="0.58668">
        <ele>95</ele>
        <time>2015-12-20T09:20:34Z</time>
      </trkpt>
      <trkpt lat="44.49764" lon="0.5867">
        <ele>96</ele>
        <time>2015-12-20T09:20:38Z</time>
      </trkpt>
      <trkpt lat="44.49788" lon="0.58669">
        <ele>99</ele>
        <time>2015-12-20T09:20:43Z</time>
      </trkpt>
      <trkpt lat="44.49811" lon="0.58664">
        <ele>100</ele>
        <time>2015-12-20T09:20:48Z</time>
      </trkpt>
      <trkpt lat="44.49832" lon="0.58658">
        <ele>101</ele>
        <time>2015-12-20T09:20:53Z</time>
      </trkpt>
      <trkpt lat="44.49868" lon="0.58629">
        <ele>99</ele>
        <time>2015-12-20T09:21:00Z</time>
      </trkpt>
      <trkpt lat="44.49881" lon="0.58621">
        <ele>99</ele>
        <time>2015-12-20T09:21:03Z</time>
      </trkpt>
      <trkpt lat="44.49906" lon="0.58605">
        <ele>98</ele>
        <time>2015-12-20T09:21:08Z</time>
      </trkpt>
      <trkpt lat="44.4993" lon="0.58588">
        <ele>98</ele>
        <time>2015-12-20T09:21:13Z</time>
      </trkpt>
      <trkpt lat="44.49954" lon="0.5858">
        <ele>98</ele>
        <time>2015-12-20T09:21:18Z</time>
      </trkpt>
      <trkpt lat="44.49983" lon="0.58577">
        <ele>95</ele>
        <time>2015-12-20T09:21:23Z</time>
      </trkpt>
      <trkpt lat="44.50006" lon="0.58585">
        <ele>93</ele>
        <time>2015-12-20T09:21:28Z</time>
      </trkpt>
      <trkpt lat="44.50049" lon="0.58551">
        <ele>95</ele>
        <time>2015-12-20T09:21:37Z</time>
      </trkpt>
      <trkpt lat="44.50066" lon="0.5854">
        <ele>96</ele>
        <time>2015-12-20T09:21:40Z</time>
      </trkpt>
      <trkpt lat="44.50082" lon="0.58524">
        <ele>94</ele>
        <time>2015-12-20T09:21:43Z</time>
      </trkpt>
      <trkpt lat="44.50106" lon="0.58496">
        <ele>94</ele>
        <time>2015-12-20T09:21:48Z</time>
      </trkpt>
      <trkpt lat="44.50129" lon="0.58472">
        <ele>95</ele>
        <time>2015-12-20T09:21:53Z</time>
      </trkpt>
      <trkpt lat="44.50151" lon="0.58446">
        <ele>97</ele>
        <time>2015-12-20T09:21:58Z</time>
      </trkpt>
      <trkpt lat="44.50173" lon="0.58409">
        <ele>92</ele>
        <time>2015-12-20T09:22:03Z</time>
      </trkpt>
      <trkpt lat="44.50193" lon="0.58379">
        <ele>92</ele>
        <time>2015-12-20T09:22:08Z</time>
      </trkpt>
      <trkpt lat="44.50211" lon="0.58352">
        <ele>93</ele>
        <time>2015-12-20T09:22:13Z</time>
      </trkpt>
      <trkpt lat="44.50209" lon="0.58321">
        <ele>92</ele>
        <time>2015-12-20T09:22:18Z</time>
      </trkpt>
      <trkpt lat="44.50204" lon="0.58304">
        <ele>94</ele>
        <time>2015-12-20T09:22:23Z</time>
      </trkpt>
      <trkpt lat="44.50212" lon="0.58278">
        <ele>95</ele>
        <time>2015-12-20T09:22:29Z</time>
      </trkpt>
      <trkpt lat="44.50224" lon="0.58253">
        <ele>94</ele>
        <time>2015-12-20T09:22:34Z</time>
      </trkpt>
      <trkpt lat="44.50233" lon="0.58227">
        <ele>95</ele>
        <time>2015-12-20T09:22:39Z</time>
      </trkpt>
      <trkpt lat="44.50244" lon="0.582">
        <ele>93</ele>
        <time>2015-12-20T09:22:43Z</time>
      </trkpt>
      <trkpt lat="44.50261" lon="0.58148">
        <ele>92</ele>
        <time>2015-12-20T09:22:50Z</time>
      </trkpt>
      <trkpt lat="44.50269" lon="0.58096">
        <ele>93</ele>
        <time>2015-12-20T09:22:57Z</time>
      </trkpt>
      <trkpt lat="44.50275" lon="0.58058">
        <ele>90</ele>
        <time>2015-12-20T09:23:02Z</time>
      </trkpt>
      <trkpt lat="44.50278" lon="0.58045">
        <ele>89</ele>
        <time>2015-12-20T09:23:04Z</time>
      </trkpt>
      <trkpt lat="44.50288" lon="0.58021">
        <ele>88</ele>
        <time>2015-12-20T09:23:08Z</time>
      </trkpt>
      <trkpt lat="44.50303" lon="0.57994">
        <ele>90</ele>
        <time>2015-12-20T09:23:14Z</time>
      </trkpt>
      <trkpt lat="44.50317" lon="0.57942">
        <ele>88</ele>
        <time>2015-12-20T09:23:21Z</time>
      </trkpt>
      <trkpt lat="44.50323" lon="0.57902">
        <ele>87</ele>
        <time>2015-12-20T09:23:27Z</time>
      </trkpt>
      <trkpt lat="44.50325" lon="0.57883">
        <ele>86</ele>
        <time>2015-12-20T09:23:30Z</time>
      </trkpt>
      <trkpt lat="44.50327" lon="0.57864">
        <ele>87</ele>
        <time>2015-12-20T09:23:33Z</time>
      </trkpt>
      <trkpt lat="44.50334" lon="0.57831">
        <ele>87</ele>
        <time>2015-12-20T09:23:38Z</time>
      </trkpt>
      <trkpt lat="44.50342" lon="0.57799">
        <ele>89</ele>
        <time>2015-12-20T09:23:43Z</time>
      </trkpt>
      <trkpt lat="44.5035" lon="0.57766">
        <ele>88</ele>
        <time>2015-12-20T09:23:48Z</time>
      </trkpt>
      <trkpt lat="44.5035" lon="0.57727">
        <ele>87</ele>
        <time>2015-12-20T09:23:53Z</time>
      </trkpt>
      <trkpt lat="44.50349" lon="0.57693">
        <ele>85</ele>
        <time>2015-12-20T09:23:58Z</time>
      </trkpt>
      <trkpt lat="44.50349" lon="0.57661">
        <ele>88</ele>
        <time>2015-12-20T09:24:03Z</time>
      </trkpt>
      <trkpt lat="44.50349" lon="0.57628">
        <ele>89</ele>
        <time>2015-12-20T09:24:08Z</time>
      </trkpt>
      <trkpt lat="44.50353" lon="0.57599">
        <ele>88</ele>
        <time>2015-12-20T09:24:13Z</time>
      </trkpt>
      <trkpt lat="44.50352" lon="0.57561">
        <ele>89</ele>
        <time>2015-12-20T09:24:18Z</time>
      </trkpt>
      <trkpt lat="44.50348" lon="0.57529">
        <ele>88</ele>
        <time>2015-12-20T09:24:23Z</time>
      </trkpt>
      <trkpt lat="44.50349" lon="0.575">
        <ele>86</ele>
        <time>2015-12-20T09:24:28Z</time>
      </trkpt>
      <trkpt lat="44.50353" lon="0.57473">
        <ele>86</ele>
        <time>2015-12-20T09:24:33Z</time>
      </trkpt>
      <trkpt lat="44.50355" lon="0.57443">
        <ele>85</ele>
        <time>2015-12-20T09:24:38Z</time>
      </trkpt>
      <trkpt lat="44.5036" lon="0.57414">
        <ele>86</ele>
        <time>2015-12-20T09:24:43Z</time>
      </trkpt>
      <trkpt lat="44.50364" lon="0.57385">
        <ele>88</ele>
        <time>2015-12-20T09:24:48Z</time>
      </trkpt>
      <trkpt lat="44.50368" lon="0.57361">
        <ele>86</ele>
        <time>2015-12-20T09:24:53Z</time>
      </trkpt>
      <trkpt lat="44.50371" lon="0.57331">
        <ele>85</ele>
        <time>2015-12-20T09:24:58Z</time>
      </trkpt>
      <trkpt lat="44.50374" lon="0.57309">
        <ele>87</ele>
        <time>2015-12-20T09:25:03Z</time>
      </trkpt>
      <trkpt lat="44.50377" lon="0.57295">
        <ele>84</ele>
        <time>2015-12-20T09:25:08Z</time>
      </trkpt>
      <trkpt lat="44.5038" lon="0.57287">
        <ele>85</ele>
        <time>2015-12-20T09:25:13Z</time>
      </trkpt>
      <trkpt lat="44.50381" lon="0.5728">
        <ele>85</ele>
        <time>2015-12-20T09:25:18Z</time>
      </trkpt>
      <trkpt lat="44.50381" lon="0.5728">
        <ele>87</ele>
        <time>2015-12-20T09:25:23Z</time>
      </trkpt>
      <trkpt lat="44.50381" lon="0.57279">
        <ele>87</ele>
        <time>2015-12-20T09:25:26Z</time>
      </trkpt>
      <trkpt lat="44.50381" lon="0.57279">
        <ele>87</ele>
        <time>2015-12-20T09:25:29Z</time>
      </trkpt>
      <trkpt lat="44.50381" lon="0.57279">
        <ele>87</ele>
        <time>2015-12-20T09:25:32Z</time>
      </trkpt>
      <trkpt lat="44.50381" lon="0.57279">
        <ele>87</ele>
        <time>2015-12-20T09:25:35Z</time>
      </trkpt>
      <trkpt lat="44.50381" lon="0.57279">
        <ele>87</ele>
        <time>2015-12-20T09:25:38Z</time>
      </trkpt>
      <trkpt lat="44.50381" lon="0.57279">
        <ele>87</ele>
        <time>2015-12-20T09:25:41Z</time>
      </trkpt>
      <trkpt lat="44.50381" lon="0.57279">
        <ele>87</ele>
        <time>2015-12-20T09:25:44Z</time>
      </trkpt>
      <trkpt lat="44.50381" lon="0.57279">
        <ele>87</ele>
        <time>2015-12-20T09:25:47Z</time>
      </trkpt>
      <trkpt lat="44.50381" lon="0.57279">
        <ele>87</ele>
        <time>2015-12-20T09:25:50Z</time>
      </trkpt>
      <trkpt lat="44.5038" lon="0.57277">
        <ele>86</ele>
        <time>2015-12-20T09:25:53Z</time>
      </trkpt>
      <trkpt lat="44.50379" lon="0.57274">
        <ele>88</ele>
        <time>2015-12-20T09:25:58Z</time>
      </trkpt>
      <trkpt lat="44.50379" lon="0.57273">
        <ele>87</ele>
        <time>2015-12-20T09:26:03Z</time>
      </trkpt>
      <trkpt lat="44.50379" lon="0.57272">
        <ele>87</ele>
        <time>2015-12-20T09:26:06Z</time>
      </trkpt>
      <trkpt lat="44.50378" lon="0.57273">
        <ele>87</ele>
        <time>2015-12-20T09:26:09Z</time>
      </trkpt>
      <trkpt lat="44.50378" lon="0.57273">
        <ele>87</ele>
        <time>2015-12-20T09:26:12Z</time>
      </trkpt>
      <trkpt lat="44.50378" lon="0.57273">
        <ele>87</ele>
        <time>2015-12-20T09:26:15Z</time>
      </trkpt>
      <trkpt lat="44.50379" lon="0.57275">
        <ele>88</ele>
        <time>2015-12-20T09:26:17Z</time>
      </trkpt>
      <trkpt lat="44.5038" lon="0.57275">
        <ele>90</ele>
        <time>2015-12-20T09:26:21Z</time>
      </trkpt>
      <trkpt lat="44.50381" lon="0.57276">
        <ele>88</ele>
        <time>2015-12-20T09:26:27Z</time>
      </trkpt>
      <trkpt lat="44.50381" lon="0.57275">
        <ele>88</ele>
        <time>2015-12-20T09:26:28Z</time>
      </trkpt>
      <trkpt lat="44.50381" lon="0.57275">
        <ele>87</ele>
        <time>2015-12-20T09:26:31Z</time>
      </trkpt>
      <trkpt lat="44.50381" lon="0.57275">
        <ele>87</ele>
        <time>2015-12-20T09:26:34Z</time>
      </trkpt>
      <trkpt lat="44.5038" lon="0.57275">
        <ele>88</ele>
        <time>2015-12-20T09:26:37Z</time>
      </trkpt>
      <trkpt lat="44.50381" lon="0.57275">
        <ele>88</ele>
        <time>2015-12-20T09:26:41Z</time>
      </trkpt>
      <trkpt lat="44.50381" lon="0.57275">
        <ele>88</ele>
        <time>2015-12-20T09:26:43Z</time>
      </trkpt>
      <trkpt lat="44.50381" lon="0.57275">
        <ele>87</ele>
        <time>2015-12-20T09:26:46Z</time>
      </trkpt>
      <trkpt lat="44.50381" lon="0.57275">
        <ele>87</ele>
        <time>2015-12-20T09:26:49Z</time>
      </trkpt>
      <trkpt lat="44.50381" lon="0.57275">
        <ele>89</ele>
        <time>2015-12-20T09:26:53Z</time>
      </trkpt>
      <trkpt lat="44.50382" lon="0.57271">
        <ele>89</ele>
        <time>2015-12-20T09:26:55Z</time>
      </trkpt>
      <trkpt lat="44.5039" lon="0.57245">
        <ele>85</ele>
        <time>2015-12-20T09:27:00Z</time>
      </trkpt>
      <trkpt lat="44.50401" lon="0.57203">
        <ele>87</ele>
        <time>2015-12-20T09:27:07Z</time>
      </trkpt>
      <trkpt lat="44.5041" lon="0.57181">
        <ele>89</ele>
        <time>2015-12-20T09:27:10Z</time>
      </trkpt>
      <trkpt lat="44.50418" lon="0.57152">
        <ele>89</ele>
        <time>2015-12-20T09:27:15Z</time>
      </trkpt>
      <trkpt lat="44.50425" lon="0.57129">
        <ele>89</ele>
        <time>2015-12-20T09:27:20Z</time>
      </trkpt>
      <trkpt lat="44.50432" lon="0.57101">
        <ele>87</ele>
        <time>2015-12-20T09:27:26Z</time>
      </trkpt>
      <trkpt lat="44.5044" lon="0.57052">
        <ele>85</ele>
        <time>2015-12-20T09:27:34Z</time>
      </trkpt>
      <trkpt lat="44.50442" lon="0.57044">
        <ele>84</ele>
        <time>2015-12-20T09:27:35Z</time>
      </trkpt>
      <trkpt lat="44.50446" lon="0.57023">
        <ele>81</ele>
        <time>2015-12-20T09:27:40Z</time>
      </trkpt>
      <trkpt lat="44.5045" lon="0.57">
        <ele>80</ele>
        <time>2015-12-20T09:27:45Z</time>
      </trkpt>
      <trkpt lat="44.50451" lon="0.56974">
        <ele>77</ele>
        <time>2015-12-20T09:27:50Z</time>
      </trkpt>
      <trkpt lat="44.50467" lon="0.56929">
        <ele>81</ele>
        <time>2015-12-20T09:27:59Z</time>
      </trkpt>
      <trkpt lat="44.5047" lon="0.56925">
        <ele>81</ele>
        <time>2015-12-20T09:28:00Z</time>
      </trkpt>
      <trkpt lat="44.50479" lon="0.56902">
        <ele>81</ele>
        <time>2015-12-20T09:28:05Z</time>
      </trkpt>
      <trkpt lat="44.50489" lon="0.56865">
        <ele>80</ele>
        <time>2015-12-20T09:28:12Z</time>
      </trkpt>
      <trkpt lat="44.50493" lon="0.56851">
        <ele>81</ele>
        <time>2015-12-20T09:28:15Z</time>
      </trkpt>
      <trkpt lat="44.50502" lon="0.56825">
        <ele>80</ele>
        <time>2015-12-20T09:28:20Z</time>
      </trkpt>
      <trkpt lat="44.50512" lon="0.568">
        <ele>82</ele>
        <time>2015-12-20T09:28:27Z</time>
      </trkpt>
      <trkpt lat="44.50527" lon="0.56776">
        <ele>84</ele>
        <time>2015-12-20T09:28:34Z</time>
      </trkpt>
      <trkpt lat="44.50535" lon="0.56755">
        <ele>83</ele>
        <time>2015-12-20T09:28:39Z</time>
      </trkpt>
      <trkpt lat="44.50542" lon="0.56737">
        <ele>84</ele>
        <time>2015-12-20T09:28:43Z</time>
      </trkpt>
      <trkpt lat="44.50543" lon="0.5673">
        <ele>84</ele>
        <time>2015-12-20T09:28:45Z</time>
      </trkpt>
      <trkpt lat="44.50546" lon="0.56697">
        <ele>84</ele>
        <time>2015-12-20T09:28:53Z</time>
      </trkpt>
      <trkpt lat="44.50549" lon="0.56691">
        <ele>86</ele>
        <time>2015-12-20T09:28:55Z</time>
      </trkpt>
      <trkpt lat="44.50554" lon="0.56679">
        <ele>87</ele>
        <time>2015-12-20T09:29:00Z</time>
      </trkpt>
      <trkpt lat="44.50554" lon="0.56664">
        <ele>86</ele>
        <time>2015-12-20T09:29:05Z</time>
      </trkpt>
      <trkpt lat="44.50548" lon="0.56662">
        <ele>86</ele>
        <time>2015-12-20T09:29:10Z</time>
      </trkpt>
      <trkpt lat="44.5054" lon="0.56664">
        <ele>92</ele>
        <time>2015-12-20T09:29:16Z</time>
      </trkpt>
      <trkpt lat="44.50535" lon="0.56661">
        <ele>96</ele>
        <time>2015-12-20T09:29:20Z</time>
      </trkpt>
      <trkpt lat="44.50526" lon="0.56658">
        <ele>95</ele>
        <time>2015-12-20T09:29:25Z</time>
      </trkpt>
      <trkpt lat="44.50526" lon="0.5665">
        <ele>95</ele>
        <time>2015-12-20T09:29:30Z</time>
      </trkpt>
      <trkpt lat="44.50524" lon="0.56642">
        <ele>94</ele>
        <time>2015-12-20T09:29:36Z</time>
      </trkpt>
      <trkpt lat="44.50517" lon="0.56638">
        <ele>94</ele>
        <time>2015-12-20T09:29:40Z</time>
      </trkpt>
      <trkpt lat="44.50506" lon="0.56636">
        <ele>93</ele>
        <time>2015-12-20T09:29:46Z</time>
      </trkpt>
      <trkpt lat="44.505" lon="0.56632">
        <ele>96</ele>
        <time>2015-12-20T09:29:50Z</time>
      </trkpt>
      <trkpt lat="44.50492" lon="0.56629">
        <ele>98</ele>
        <time>2015-12-20T09:29:55Z</time>
      </trkpt>
      <trkpt lat="44.50487" lon="0.56626">
        <ele>101</ele>
        <time>2015-12-20T09:30:00Z</time>
      </trkpt>
      <trkpt lat="44.50485" lon="0.56627">
        <ele>99</ele>
        <time>2015-12-20T09:30:05Z</time>
      </trkpt>
      <trkpt lat="44.50483" lon="0.56629">
        <ele>98</ele>
        <time>2015-12-20T09:30:11Z</time>
      </trkpt>
      <trkpt lat="44.50483" lon="0.56629">
        <ele>99</ele>
        <time>2015-12-20T09:30:15Z</time>
      </trkpt>
      <trkpt lat="44.50481" lon="0.56629">
        <ele>98</ele>
        <time>2015-12-20T09:30:20Z</time>
      </trkpt>
      <trkpt lat="44.50479" lon="0.56629">
        <ele>98</ele>
        <time>2015-12-20T09:30:21Z</time>
      </trkpt>
      <trkpt lat="44.50474" lon="0.56626">
        <ele>100</ele>
        <time>2015-12-20T09:30:26Z</time>
      </trkpt>
      <trkpt lat="44.5047" lon="0.56625">
        <ele>101</ele>
        <time>2015-12-20T09:30:31Z</time>
      </trkpt>
      <trkpt lat="44.50468" lon="0.56624">
        <ele>99</ele>
        <time>2015-12-20T09:30:36Z</time>
      </trkpt>
      <trkpt lat="44.50468" lon="0.56624">
        <ele>99</ele>
        <time>2015-12-20T09:30:39Z</time>
      </trkpt>
      <trkpt lat="44.50461" lon="0.56623">
        <ele>99</ele>
        <time>2015-12-20T09:30:42Z</time>
      </trkpt>
      <trkpt lat="44.50457" lon="0.56613">
        <ele>101</ele>
        <time>2015-12-20T09:30:47Z</time>
      </trkpt>
      <trkpt lat="44.50451" lon="0.56605">
        <ele>100</ele>
        <time>2015-12-20T09:30:52Z</time>
      </trkpt>
      <trkpt lat="44.50447" lon="0.566">
        <ele>101</ele>
        <time>2015-12-20T09:30:57Z</time>
      </trkpt>
      <trkpt lat="44.50445" lon="0.566">
        <ele>101</ele>
        <time>2015-12-20T09:31:02Z</time>
      </trkpt>
      <trkpt lat="44.50442" lon="0.56599">
        <ele>101</ele>
        <time>2015-12-20T09:31:07Z</time>
      </trkpt>
      <trkpt lat="44.50439" lon="0.566">
        <ele>101</ele>
        <time>2015-12-20T09:31:12Z</time>
      </trkpt>
      <trkpt lat="44.50435" lon="0.56601">
        <ele>99</ele>
        <time>2015-12-20T09:31:17Z</time>
      </trkpt>
      <trkpt lat="44.50434" lon="0.566">
        <ele>100</ele>
        <time>2015-12-20T09:31:22Z</time>
      </trkpt>
      <trkpt lat="44.50433" lon="0.566">
        <ele>99</ele>
        <time>2015-12-20T09:31:26Z</time>
      </trkpt>
      <trkpt lat="44.50422" lon="0.56587">
        <ele>105</ele>
        <time>2015-12-20T09:31:32Z</time>
      </trkpt>
      <trkpt lat="44.50421" lon="0.56585">
        <ele>105</ele>
        <time>2015-12-20T09:31:33Z</time>
      </trkpt>
      <trkpt lat="44.50412" lon="0.5658">
        <ele>109</ele>
        <time>2015-12-20T09:31:38Z</time>
      </trkpt>
      <trkpt lat="44.50404" lon="0.56576">
        <ele>107</ele>
        <time>2015-12-20T09:31:43Z</time>
      </trkpt>
      <trkpt lat="44.504" lon="0.5657">
        <ele>107</ele>
        <time>2015-12-20T09:31:48Z</time>
      </trkpt>
      <trkpt lat="44.50393" lon="0.56568">
        <ele>103</ele>
        <time>2015-12-20T09:31:53Z</time>
      </trkpt>
      <trkpt lat="44.50393" lon="0.56564">
        <ele>100</ele>
        <time>2015-12-20T09:31:58Z</time>
      </trkpt>
      <trkpt lat="44.50389" lon="0.56557">
        <ele>100</ele>
        <time>2015-12-20T09:32:03Z</time>
      </trkpt>
      <trkpt lat="44.50377" lon="0.56549">
        <ele>103</ele>
        <time>2015-12-20T09:32:12Z</time>
      </trkpt>
      <trkpt lat="44.50375" lon="0.56549">
        <ele>103</ele>
        <time>2015-12-20T09:32:13Z</time>
      </trkpt>
      <trkpt lat="44.50368" lon="0.56544">
        <ele>105</ele>
        <time>2015-12-20T09:32:18Z</time>
      </trkpt>
      <trkpt lat="44.50364" lon="0.56536">
        <ele>104</ele>
        <time>2015-12-20T09:32:23Z</time>
      </trkpt>
      <trkpt lat="44.50359" lon="0.56531">
        <ele>105</ele>
        <time>2015-12-20T09:32:28Z</time>
      </trkpt>
      <trkpt lat="44.50352" lon="0.56529">
        <ele>102</ele>
        <time>2015-12-20T09:32:33Z</time>
      </trkpt>
      <trkpt lat="44.50352" lon="0.56528">
        <ele>102</ele>
        <time>2015-12-20T09:32:38Z</time>
      </trkpt>
      <trkpt lat="44.50352" lon="0.56529">
        <ele>102</ele>
        <time>2015-12-20T09:32:41Z</time>
      </trkpt>
      <trkpt lat="44.50351" lon="0.5653">
        <ele>102</ele>
        <time>2015-12-20T09:32:44Z</time>
      </trkpt>
      <trkpt lat="44.50351" lon="0.56529">
        <ele>102</ele>
        <time>2015-12-20T09:32:47Z</time>
      </trkpt>
      <trkpt lat="44.50351" lon="0.56529">
        <ele>102</ele>
        <time>2015-12-20T09:32:50Z</time>
      </trkpt>
      <trkpt lat="44.50351" lon="0.56529">
        <ele>102</ele>
        <time>2015-12-20T09:32:53Z</time>
      </trkpt>
      <trkpt lat="44.50351" lon="0.56529">
        <ele>102</ele>
        <time>2015-12-20T09:32:56Z</time>
      </trkpt>
      <trkpt lat="44.50351" lon="0.56529">
        <ele>102</ele>
        <time>2015-12-20T09:32:59Z</time>
      </trkpt>
      <trkpt lat="44.50351" lon="0.56529">
        <ele>102</ele>
        <time>2015-12-20T09:33:02Z</time>
      </trkpt>
      <trkpt lat="44.50351" lon="0.56529">
        <ele>102</ele>
        <time>2015-12-20T09:33:05Z</time>
      </trkpt>
      <trkpt lat="44.50351" lon="0.56529">
        <ele>102</ele>
        <time>2015-12-20T09:33:08Z</time>
      </trkpt>
      <trkpt lat="44.50351" lon="0.56529">
        <ele>102</ele>
        <time>2015-12-20T09:33:11Z</time>
      </trkpt>
      <trkpt lat="44.50351" lon="0.56529">
        <ele>102</ele>
        <time>2015-12-20T09:33:14Z</time>
      </trkpt>
      <trkpt lat="44.50351" lon="0.56529">
        <ele>102</ele>
        <time>2015-12-20T09:33:17Z</time>
      </trkpt>
      <trkpt lat="44.50351" lon="0.56529">
        <ele>102</ele>
        <time>2015-12-20T09:33:20Z</time>
      </trkpt>
      <trkpt lat="44.50351" lon="0.56529">
        <ele>102</ele>
        <time>2015-12-20T09:33:23Z</time>
      </trkpt>
      <trkpt lat="44.50352" lon="0.56528">
        <ele>101</ele>
        <time>2015-12-20T09:33:26Z</time>
      </trkpt>
      <trkpt lat="44.50353" lon="0.56517">
        <ele>103</ele>
        <time>2015-12-20T09:33:31Z</time>
      </trkpt>
      <trkpt lat="44.50347" lon="0.56507">
        <ele>102</ele>
        <time>2015-12-20T09:33:36Z</time>
      </trkpt>
      <trkpt lat="44.50336" lon="0.56501">
        <ele>96</ele>
        <time>2015-12-20T09:33:40Z</time>
      </trkpt>
      <trkpt lat="44.50326" lon="0.56494">
        <ele>93</ele>
        <time>2015-12-20T09:33:45Z</time>
      </trkpt>
      <trkpt lat="44.5032" lon="0.56486">
        <ele>98</ele>
        <time>2015-12-20T09:33:53Z</time>
      </trkpt>
      <trkpt lat="44.50317" lon="0.56486">
        <ele>97</ele>
        <time>2015-12-20T09:33:55Z</time>
      </trkpt>
      <trkpt lat="44.5031" lon="0.56482">
        <ele>97</ele>
        <time>2015-12-20T09:34:00Z</time>
      </trkpt>
      <trkpt lat="44.50314" lon="0.56459">
        <ele>95</ele>
        <time>2015-12-20T09:34:08Z</time>
      </trkpt>
      <trkpt lat="44.5032" lon="0.56452">
        <ele>95</ele>
        <time>2015-12-20T09:34:10Z</time>
      </trkpt>
      <trkpt lat="44.50337" lon="0.56395">
        <ele>94</ele>
        <time>2015-12-20T09:34:19Z</time>
      </trkpt>
      <trkpt lat="44.50337" lon="0.56389">
        <ele>96</ele>
        <time>2015-12-20T09:34:23Z</time>
      </trkpt>
      <trkpt lat="44.50333" lon="0.56389">
        <ele>94</ele>
        <time>2015-12-20T09:34:27Z</time>
      </trkpt>
      <trkpt lat="44.50333" lon="0.56389">
        <ele>93</ele>
        <time>2015-12-20T09:34:30Z</time>
      </trkpt>
      <trkpt lat="44.50332" lon="0.56389">
        <ele>93</ele>
        <time>2015-12-20T09:34:33Z</time>
      </trkpt>
      <trkpt lat="44.50332" lon="0.56388">
        <ele>94</ele>
        <time>2015-12-20T09:34:36Z</time>
      </trkpt>
      <trkpt lat="44.50332" lon="0.56386">
        <ele>94</ele>
        <time>2015-12-20T09:34:41Z</time>
      </trkpt>
      <trkpt lat="44.50333" lon="0.56384">
        <ele>95</ele>
        <time>2015-12-20T09:34:43Z</time>
      </trkpt>
      <trkpt lat="44.50334" lon="0.56378">
        <ele>98</ele>
        <time>2015-12-20T09:34:47Z</time>
      </trkpt>
      <trkpt lat="44.50334" lon="0.56377">
        <ele>100</ele>
        <time>2015-12-20T09:34:52Z</time>
      </trkpt>
      <trkpt lat="44.50334" lon="0.56376">
        <ele>101</ele>
        <time>2015-12-20T09:34:55Z</time>
      </trkpt>
      <trkpt lat="44.50332" lon="0.56376">
        <ele>101</ele>
        <time>2015-12-20T09:34:58Z</time>
      </trkpt>
      <trkpt lat="44.50331" lon="0.56376">
        <ele>102</ele>
        <time>2015-12-20T09:35:03Z</time>
      </trkpt>
      <trkpt lat="44.50334" lon="0.56361">
        <ele>101</ele>
        <time>2015-12-20T09:35:06Z</time>
      </trkpt>
      <trkpt lat="44.50345" lon="0.56331">
        <ele>99</ele>
        <time>2015-12-20T09:35:13Z</time>
      </trkpt>
      <trkpt lat="44.50345" lon="0.56326">
        <ele>99</ele>
        <time>2015-12-20T09:35:18Z</time>
      </trkpt>
      <trkpt lat="44.50345" lon="0.56326">
        <ele>99</ele>
        <time>2015-12-20T09:35:21Z</time>
      </trkpt>
      <trkpt lat="44.50344" lon="0.56327">
        <ele>98</ele>
        <time>2015-12-20T09:35:24Z</time>
      </trkpt>
      <trkpt lat="44.50344" lon="0.56326">
        <ele>97</ele>
        <time>2015-12-20T09:35:29Z</time>
      </trkpt>
      <trkpt lat="44.50343" lon="0.56326">
        <ele>97</ele>
        <time>2015-12-20T09:35:34Z</time>
      </trkpt>
      <trkpt lat="44.50343" lon="0.56326">
        <ele>97</ele>
        <time>2015-12-20T09:35:35Z</time>
      </trkpt>
      <trkpt lat="44.50343" lon="0.56327">
        <ele>96</ele>
        <time>2015-12-20T09:35:38Z</time>
      </trkpt>
      <trkpt lat="44.50341" lon="0.56326">
        <ele>96</ele>
        <time>2015-12-20T09:35:43Z</time>
      </trkpt>
      <trkpt lat="44.50341" lon="0.56326">
        <ele>94</ele>
        <time>2015-12-20T09:35:46Z</time>
      </trkpt>
      <trkpt lat="44.50339" lon="0.56325">
        <ele>94</ele>
        <time>2015-12-20T09:35:49Z</time>
      </trkpt>
      <trkpt lat="44.50337" lon="0.5632">
        <ele>96</ele>
        <time>2015-12-20T09:35:54Z</time>
      </trkpt>
      <trkpt lat="44.50337" lon="0.5632">
        <ele>97</ele>
        <time>2015-12-20T09:35:59Z</time>
      </trkpt>
      <trkpt lat="44.50337" lon="0.5632">
        <ele>97</ele>
        <time>2015-12-20T09:36:02Z</time>
      </trkpt>
      <trkpt lat="44.50337" lon="0.5632">
        <ele>97</ele>
        <time>2015-12-20T09:36:05Z</time>
      </trkpt>
      <trkpt lat="44.50337" lon="0.5632">
        <ele>97</ele>
        <time>2015-12-20T09:36:08Z</time>
      </trkpt>
      <trkpt lat="44.50337" lon="0.5632">
        <ele>97</ele>
        <time>2015-12-20T09:36:12Z</time>
      </trkpt>
      <trkpt lat="44.50337" lon="0.5632">
        <ele>97</ele>
        <time>2015-12-20T09:36:14Z</time>
      </trkpt>
      <trkpt lat="44.5034" lon="0.56316">
        <ele>96</ele>
        <time>2015-12-20T09:36:17Z</time>
      </trkpt>
      <trkpt lat="44.50344" lon="0.56313">
        <ele>94</ele>
        <time>2015-12-20T09:36:22Z</time>
      </trkpt>
      <trkpt lat="44.50345" lon="0.56311">
        <ele>93</ele>
        <time>2015-12-20T09:36:27Z</time>
      </trkpt>
      <trkpt lat="44.50346" lon="0.56311">
        <ele>93</ele>
        <time>2015-12-20T09:36:30Z</time>
      </trkpt>
      <trkpt lat="44.50346" lon="0.56311">
        <ele>93</ele>
        <time>2015-12-20T09:36:33Z</time>
      </trkpt>
      <trkpt lat="44.50346" lon="0.56311">
        <ele>93</ele>
        <time>2015-12-20T09:36:36Z</time>
      </trkpt>
      <trkpt lat="44.50346" lon="0.56311">
        <ele>93</ele>
        <time>2015-12-20T09:36:40Z</time>
      </trkpt>
      <trkpt lat="44.50346" lon="0.56311">
        <ele>93</ele>
        <time>2015-12-20T09:36:42Z</time>
      </trkpt>
      <trkpt lat="44.50346" lon="0.56311">
        <ele>93</ele>
        <time>2015-12-20T09:36:45Z</time>
      </trkpt>
      <trkpt lat="44.50346" lon="0.56311">
        <ele>93</ele>
        <time>2015-12-20T09:36:48Z</time>
      </trkpt>
      <trkpt lat="44.50346" lon="0.56311">
        <ele>93</ele>
        <time>2015-12-20T09:36:51Z</time>
      </trkpt>
      <trkpt lat="44.50346" lon="0.56311">
        <ele>93</ele>
        <time>2015-12-20T09:36:54Z</time>
      </trkpt>
      <trkpt lat="44.50347" lon="0.56309">
        <ele>93</ele>
        <time>2015-12-20T09:36:57Z</time>
      </trkpt>
      <trkpt lat="44.5035" lon="0.56306">
        <ele>94</ele>
        <time>2015-12-20T09:37:02Z</time>
      </trkpt>
      <trkpt lat="44.5035" lon="0.56305">
        <ele>95</ele>
        <time>2015-12-20T09:37:07Z</time>
      </trkpt>
      <trkpt lat="44.50349" lon="0.56305">
        <ele>94</ele>
        <time>2015-12-20T09:37:10Z</time>
      </trkpt>
      <trkpt lat="44.50346" lon="0.56304">
        <ele>92</ele>
        <time>2015-12-20T09:37:13Z</time>
      </trkpt>
      <trkpt lat="44.50345" lon="0.56305">
        <ele>92</ele>
        <time>2015-12-20T09:37:18Z</time>
      </trkpt>
      <trkpt lat="44.50345" lon="0.56306">
        <ele>92</ele>
        <time>2015-12-20T09:37:21Z</time>
      </trkpt>
      <trkpt lat="44.50345" lon="0.56307">
        <ele>91</ele>
        <time>2015-12-20T09:37:24Z</time>
      </trkpt>
      <trkpt lat="44.50345" lon="0.56307">
        <ele>91</ele>
        <time>2015-12-20T09:37:27Z</time>
      </trkpt>
      <trkpt lat="44.50345" lon="0.56307">
        <ele>91</ele>
        <time>2015-12-20T09:37:30Z</time>
      </trkpt>
      <trkpt lat="44.50345" lon="0.56307">
        <ele>91</ele>
        <time>2015-12-20T09:37:33Z</time>
      </trkpt>
      <trkpt lat="44.50345" lon="0.56307">
        <ele>91</ele>
        <time>2015-12-20T09:37:36Z</time>
      </trkpt>
      <trkpt lat="44.50345" lon="0.56307">
        <ele>91</ele>
        <time>2015-12-20T09:37:39Z</time>
      </trkpt>
      <trkpt lat="44.50345" lon="0.56307">
        <ele>91</ele>
        <time>2015-12-20T09:37:42Z</time>
      </trkpt>
      <trkpt lat="44.50339" lon="0.56302">
        <ele>93</ele>
        <time>2015-12-20T09:37:46Z</time>
      </trkpt>
      <trkpt lat="44.50334" lon="0.56301">
        <ele>95</ele>
        <time>2015-12-20T09:37:50Z</time>
      </trkpt>
      <trkpt lat="44.50326" lon="0.56296">
        <ele>97</ele>
        <time>2015-12-20T09:37:58Z</time>
      </trkpt>
      <trkpt lat="44.50324" lon="0.56298">
        <ele>97</ele>
        <time>2015-12-20T09:38:00Z</time>
      </trkpt>
      <trkpt lat="44.50319" lon="0.56297">
        <ele>97</ele>
        <time>2015-12-20T09:38:05Z</time>
      </trkpt>
      <trkpt lat="44.50312" lon="0.56302">
        <ele>95</ele>
        <time>2015-12-20T09:38:10Z</time>
      </trkpt>
      <trkpt lat="44.5031" lon="0.56302">
        <ele>97</ele>
        <time>2015-12-20T09:38:15Z</time>
      </trkpt>
      <trkpt lat="44.50309" lon="0.56303">
        <ele>96</ele>
        <time>2015-12-20T09:38:20Z</time>
      </trkpt>
      <trkpt lat="44.50309" lon="0.56303">
        <ele>95</ele>
        <time>2015-12-20T09:38:23Z</time>
      </trkpt>
      <trkpt lat="44.50307" lon="0.56305">
        <ele>94</ele>
        <time>2015-12-20T09:38:26Z</time>
      </trkpt>
      <trkpt lat="44.50299" lon="0.56311">
        <ele>96</ele>
        <time>2015-12-20T09:38:31Z</time>
      </trkpt>
      <trkpt lat="44.50287" lon="0.56309">
        <ele>94</ele>
        <time>2015-12-20T09:38:40Z</time>
      </trkpt>
      <trkpt lat="44.50284" lon="0.56307">
        <ele>95</ele>
        <time>2015-12-20T09:38:41Z</time>
      </trkpt>
      <trkpt lat="44.50279" lon="0.56302">
        <ele>99</ele>
        <time>2015-12-20T09:38:46Z</time>
      </trkpt>
      <trkpt lat="44.50273" lon="0.56299">
        <ele>100</ele>
        <time>2015-12-20T09:38:53Z</time>
      </trkpt>
      <trkpt lat="44.5027" lon="0.56298">
        <ele>99</ele>
        <time>2015-12-20T09:38:56Z</time>
      </trkpt>
      <trkpt lat="44.50267" lon="0.56293">
        <ele>100</ele>
        <time>2015-12-20T09:39:01Z</time>
      </trkpt>
      <trkpt lat="44.50265" lon="0.56288">
        <ele>101</ele>
        <time>2015-12-20T09:39:06Z</time>
      </trkpt>
      <trkpt lat="44.50267" lon="0.56281">
        <ele>98</ele>
        <time>2015-12-20T09:39:11Z</time>
      </trkpt>
      <trkpt lat="44.50268" lon="0.5628">
        <ele>95</ele>
        <time>2015-12-20T09:39:16Z</time>
      </trkpt>
      <trkpt lat="44.50271" lon="0.56272">
        <ele>94</ele>
        <time>2015-12-20T09:39:20Z</time>
      </trkpt>
      <trkpt lat="44.50276" lon="0.5626">
        <ele>91</ele>
        <time>2015-12-20T09:39:24Z</time>
      </trkpt>
      <trkpt lat="44.50291" lon="0.5624">
        <ele>88</ele>
        <time>2015-12-20T09:39:33Z</time>
      </trkpt>
      <trkpt lat="44.50292" lon="0.56238">
        <ele>87</ele>
        <time>2015-12-20T09:39:34Z</time>
      </trkpt>
      <trkpt lat="44.50294" lon="0.56232">
        <ele>87</ele>
        <time>2015-12-20T09:39:39Z</time>
      </trkpt>
      <trkpt lat="44.50298" lon="0.56225">
        <ele>90</ele>
        <time>2015-12-20T09:39:46Z</time>
      </trkpt>
      <trkpt lat="44.503" lon="0.5622">
        <ele>90</ele>
        <time>2015-12-20T09:39:49Z</time>
      </trkpt>
      <trkpt lat="44.50303" lon="0.56209">
        <ele>89</ele>
        <time>2015-12-20T09:39:54Z</time>
      </trkpt>
      <trkpt lat="44.503" lon="0.56203">
        <ele>86</ele>
        <time>2015-12-20T09:39:59Z</time>
      </trkpt>
      <trkpt lat="44.50299" lon="0.56194">
        <ele>83</ele>
        <time>2015-12-20T09:40:04Z</time>
      </trkpt>
      <trkpt lat="44.50297" lon="0.56185">
        <ele>82</ele>
        <time>2015-12-20T09:40:09Z</time>
      </trkpt>
      <trkpt lat="44.50294" lon="0.56182">
        <ele>81</ele>
        <time>2015-12-20T09:40:14Z</time>
      </trkpt>
      <trkpt lat="44.50294" lon="0.56182">
        <ele>82</ele>
        <time>2015-12-20T09:40:18Z</time>
      </trkpt>
      <trkpt lat="44.50294" lon="0.56183">
        <ele>82</ele>
        <time>2015-12-20T09:40:21Z</time>
      </trkpt>
      <trkpt lat="44.50294" lon="0.56183">
        <ele>83</ele>
        <time>2015-12-20T09:40:23Z</time>
      </trkpt>
      <trkpt lat="44.50299" lon="0.56177">
        <ele>83</ele>
        <time>2015-12-20T09:40:26Z</time>
      </trkpt>
      <trkpt lat="44.50313" lon="0.56164">
        <ele>82</ele>
        <time>2015-12-20T09:40:31Z</time>
      </trkpt>
      <trkpt lat="44.50342" lon="0.5613">
        <ele>79</ele>
        <time>2015-12-20T09:40:39Z</time>
      </trkpt>
      <trkpt lat="44.50359" lon="0.56107">
        <ele>80</ele>
        <time>2015-12-20T09:40:44Z</time>
      </trkpt>
      <trkpt lat="44.50368" lon="0.56094">
        <ele>81</ele>
        <time>2015-12-20T09:40:47Z</time>
      </trkpt>
      <trkpt lat="44.50374" lon="0.5608">
        <ele>79</ele>
        <time>2015-12-20T09:40:51Z</time>
      </trkpt>
      <trkpt lat="44.50379" lon="0.56063">
        <ele>77</ele>
        <time>2015-12-20T09:40:57Z</time>
      </trkpt>
      <trkpt lat="44.50385" lon="0.56049">
        <ele>74</ele>
        <time>2015-12-20T09:41:01Z</time>
      </trkpt>
      <trkpt lat="44.50392" lon="0.56031">
        <ele>75</ele>
        <time>2015-12-20T09:41:07Z</time>
      </trkpt>
      <trkpt lat="44.50397" lon="0.56018">
        <ele>76</ele>
        <time>2015-12-20T09:41:11Z</time>
      </trkpt>
      <trkpt lat="44.50406" lon="0.56007">
        <ele>78</ele>
        <time>2015-12-20T09:41:16Z</time>
      </trkpt>
      <trkpt lat="44.50418" lon="0.55982">
        <ele>82</ele>
        <time>2015-12-20T09:41:23Z</time>
      </trkpt>
      <trkpt lat="44.50426" lon="0.55972">
        <ele>82</ele>
        <time>2015-12-20T09:41:26Z</time>
      </trkpt>
      <trkpt lat="44.50441" lon="0.55941">
        <ele>83</ele>
        <time>2015-12-20T09:41:34Z</time>
      </trkpt>
      <trkpt lat="44.50438" lon="0.55934">
        <ele>83</ele>
        <time>2015-12-20T09:41:36Z</time>
      </trkpt>
      <trkpt lat="44.50416" lon="0.55905">
        <ele>83</ele>
        <time>2015-12-20T09:41:43Z</time>
      </trkpt>
      <trkpt lat="44.50406" lon="0.55892">
        <ele>84</ele>
        <time>2015-12-20T09:41:46Z</time>
      </trkpt>
      <trkpt lat="44.5039" lon="0.55869">
        <ele>80</ele>
        <time>2015-12-20T09:41:51Z</time>
      </trkpt>
      <trkpt lat="44.50373" lon="0.55848">
        <ele>80</ele>
        <time>2015-12-20T09:41:56Z</time>
      </trkpt>
      <trkpt lat="44.50356" lon="0.55829">
        <ele>79</ele>
        <time>2015-12-20T09:42:01Z</time>
      </trkpt>
      <trkpt lat="44.50349" lon="0.55809">
        <ele>81</ele>
        <time>2015-12-20T09:42:05Z</time>
      </trkpt>
      <trkpt lat="44.5036" lon="0.55785">
        <ele>80</ele>
        <time>2015-12-20T09:42:10Z</time>
      </trkpt>
      <trkpt lat="44.50374" lon="0.55759">
        <ele>79</ele>
        <time>2015-12-20T09:42:15Z</time>
      </trkpt>
      <trkpt lat="44.50387" lon="0.55731">
        <ele>80</ele>
        <time>2015-12-20T09:42:23Z</time>
      </trkpt>
      <trkpt lat="44.5039" lon="0.55725">
        <ele>80</ele>
        <time>2015-12-20T09:42:25Z</time>
      </trkpt>
      <trkpt lat="44.50396" lon="0.55715">
        <ele>82</ele>
        <time>2015-12-20T09:42:29Z</time>
      </trkpt>
      <trkpt lat="44.504" lon="0.55707">
        <ele>83</ele>
        <time>2015-12-20T09:42:33Z</time>
      </trkpt>
      <trkpt lat="44.50406" lon="0.55695">
        <ele>84</ele>
        <time>2015-12-20T09:42:38Z</time>
      </trkpt>
      <trkpt lat="44.5041" lon="0.55686">
        <ele>85</ele>
        <time>2015-12-20T09:42:42Z</time>
      </trkpt>
      <trkpt lat="44.50415" lon="0.55675">
        <ele>85</ele>
        <time>2015-12-20T09:42:46Z</time>
      </trkpt>
      <trkpt lat="44.50424" lon="0.55657">
        <ele>87</ele>
        <time>2015-12-20T09:42:55Z</time>
      </trkpt>
      <trkpt lat="44.50425" lon="0.55655">
        <ele>86</ele>
        <time>2015-12-20T09:42:56Z</time>
      </trkpt>
      <trkpt lat="44.5043" lon="0.55645">
        <ele>88</ele>
        <time>2015-12-20T09:43:00Z</time>
      </trkpt>
      <trkpt lat="44.50438" lon="0.55632">
        <ele>90</ele>
        <time>2015-12-20T09:43:07Z</time>
      </trkpt>
      <trkpt lat="44.5044" lon="0.55627">
        <ele>90</ele>
        <time>2015-12-20T09:43:10Z</time>
      </trkpt>
      <trkpt lat="44.50445" lon="0.5562">
        <ele>91</ele>
        <time>2015-12-20T09:43:15Z</time>
      </trkpt>
      <trkpt lat="44.50449" lon="0.55612">
        <ele>92</ele>
        <time>2015-12-20T09:43:20Z</time>
      </trkpt>
      <trkpt lat="44.50453" lon="0.55605">
        <ele>92</ele>
        <time>2015-12-20T09:43:25Z</time>
      </trkpt>
      <trkpt lat="44.50457" lon="0.55597">
        <ele>93</ele>
        <time>2015-12-20T09:43:33Z</time>
      </trkpt>
      <trkpt lat="44.50458" lon="0.55594">
        <ele>94</ele>
        <time>2015-12-20T09:43:38Z</time>
      </trkpt>
      <trkpt lat="44.50461" lon="0.55589">
        <ele>94</ele>
        <time>2015-12-20T09:43:42Z</time>
      </trkpt>
      <trkpt lat="44.50461" lon="0.55585">
        <ele>95</ele>
        <time>2015-12-20T09:43:45Z</time>
      </trkpt>
      <trkpt lat="44.50465" lon="0.55574">
        <ele>95</ele>
        <time>2015-12-20T09:43:50Z</time>
      </trkpt>
      <trkpt lat="44.50469" lon="0.55567">
        <ele>96</ele>
        <time>2015-12-20T09:43:55Z</time>
      </trkpt>
      <trkpt lat="44.50474" lon="0.55561">
        <ele>97</ele>
        <time>2015-12-20T09:44:00Z</time>
      </trkpt>
      <trkpt lat="44.50475" lon="0.55557">
        <ele>98</ele>
        <time>2015-12-20T09:44:05Z</time>
      </trkpt>
      <trkpt lat="44.50479" lon="0.5555">
        <ele>98</ele>
        <time>2015-12-20T09:44:10Z</time>
      </trkpt>
      <trkpt lat="44.50484" lon="0.55543">
        <ele>98</ele>
        <time>2015-12-20T09:44:15Z</time>
      </trkpt>
      <trkpt lat="44.50485" lon="0.55533">
        <ele>94</ele>
        <time>2015-12-20T09:44:20Z</time>
      </trkpt>
      <trkpt lat="44.50489" lon="0.55525">
        <ele>95</ele>
        <time>2015-12-20T09:44:24Z</time>
      </trkpt>
      <trkpt lat="44.50496" lon="0.55518">
        <ele>95</ele>
        <time>2015-12-20T09:44:30Z</time>
      </trkpt>
      <trkpt lat="44.505" lon="0.55512">
        <ele>93</ele>
        <time>2015-12-20T09:44:34Z</time>
      </trkpt>
      <trkpt lat="44.50503" lon="0.55506">
        <ele>93</ele>
        <time>2015-12-20T09:44:39Z</time>
      </trkpt>
      <trkpt lat="44.50509" lon="0.55496">
        <ele>100</ele>
        <time>2015-12-20T09:44:44Z</time>
      </trkpt>
      <trkpt lat="44.50519" lon="0.5548">
        <ele>97</ele>
        <time>2015-12-20T09:44:52Z</time>
      </trkpt>
      <trkpt lat="44.50522" lon="0.5548">
        <ele>96</ele>
        <time>2015-12-20T09:44:54Z</time>
      </trkpt>
      <trkpt lat="44.50529" lon="0.55482">
        <ele>97</ele>
        <time>2015-12-20T09:44:59Z</time>
      </trkpt>
      <trkpt lat="44.50537" lon="0.55487">
        <ele>106</ele>
        <time>2015-12-20T09:45:08Z</time>
      </trkpt>
      <trkpt lat="44.50539" lon="0.55488">
        <ele>107</ele>
        <time>2015-12-20T09:45:09Z</time>
      </trkpt>
      <trkpt lat="44.5055" lon="0.55493">
        <ele>100</ele>
        <time>2015-12-20T09:45:14Z</time>
      </trkpt>
      <trkpt lat="44.50552" lon="0.55494">
        <ele>107</ele>
        <time>2015-12-20T09:45:19Z</time>
      </trkpt>
      <trkpt lat="44.50564" lon="0.55507">
        <ele>110</ele>
        <time>2015-12-20T09:45:27Z</time>
      </trkpt>
      <trkpt lat="44.50571" lon="0.55506">
        <ele>110</ele>
        <time>2015-12-20T09:45:31Z</time>
      </trkpt>
      <trkpt lat="44.50576" lon="0.55507">
        <ele>113</ele>
        <time>2015-12-20T09:45:34Z</time>
      </trkpt>
      <trkpt lat="44.50592" lon="0.55516">
        <ele>113</ele>
        <time>2015-12-20T09:45:41Z</time>
      </trkpt>
      <trkpt lat="44.506" lon="0.55522">
        <ele>112</ele>
        <time>2015-12-20T09:45:45Z</time>
      </trkpt>
      <trkpt lat="44.50611" lon="0.55531">
        <ele>115</ele>
        <time>2015-12-20T09:45:51Z</time>
      </trkpt>
      <trkpt lat="44.50615" lon="0.55532">
        <ele>116</ele>
        <time>2015-12-20T09:45:53Z</time>
      </trkpt>
      <trkpt lat="44.50627" lon="0.55536">
        <ele>119</ele>
        <time>2015-12-20T09:45:58Z</time>
      </trkpt>
      <trkpt lat="44.50656" lon="0.55541">
        <ele>113</ele>
        <time>2015-12-20T09:46:06Z</time>
      </trkpt>
      <trkpt lat="44.50664" lon="0.5554">
        <ele>112</ele>
        <time>2015-12-20T09:46:08Z</time>
      </trkpt>
      <trkpt lat="44.5068" lon="0.55544">
        <ele>110</ele>
        <time>2015-12-20T09:46:13Z</time>
      </trkpt>
      <trkpt lat="44.50695" lon="0.55547">
        <ele>113</ele>
        <time>2015-12-20T09:46:18Z</time>
      </trkpt>
      <trkpt lat="44.50745" lon="0.55569">
        <ele>111</ele>
        <time>2015-12-20T09:46:27Z</time>
      </trkpt>
      <trkpt lat="44.50751" lon="0.55573">
        <ele>109</ele>
        <time>2015-12-20T09:46:28Z</time>
      </trkpt>
      <trkpt lat="44.50779" lon="0.55586">
        <ele>103</ele>
        <time>2015-12-20T09:46:33Z</time>
      </trkpt>
      <trkpt lat="44.50803" lon="0.55602">
        <ele>102</ele>
        <time>2015-12-20T09:46:38Z</time>
      </trkpt>
      <trkpt lat="44.50824" lon="0.55613">
        <ele>105</ele>
        <time>2015-12-20T09:46:43Z</time>
      </trkpt>
      <trkpt lat="44.50858" lon="0.5565">
        <ele>103</ele>
        <time>2015-12-20T09:46:51Z</time>
      </trkpt>
      <trkpt lat="44.50867" lon="0.55651">
        <ele>104</ele>
        <time>2015-12-20T09:46:57Z</time>
      </trkpt>
      <trkpt lat="44.50872" lon="0.55652">
        <ele>105</ele>
        <time>2015-12-20T09:47:01Z</time>
      </trkpt>
      <trkpt lat="44.50874" lon="0.5565">
        <ele>103</ele>
        <time>2015-12-20T09:47:05Z</time>
      </trkpt>
      <trkpt lat="44.50875" lon="0.5565">
        <ele>102</ele>
        <time>2015-12-20T09:47:08Z</time>
      </trkpt>
      <trkpt lat="44.50877" lon="0.55644">
        <ele>102</ele>
        <time>2015-12-20T09:47:11Z</time>
      </trkpt>
      <trkpt lat="44.50886" lon="0.55624">
        <ele>104</ele>
        <time>2015-12-20T09:47:17Z</time>
      </trkpt>
      <trkpt lat="44.50889" lon="0.55624">
        <ele>105</ele>
        <time>2015-12-20T09:47:21Z</time>
      </trkpt>
      <trkpt lat="44.50899" lon="0.55629">
        <ele>104</ele>
        <time>2015-12-20T09:47:26Z</time>
      </trkpt>
      <trkpt lat="44.50926" lon="0.55615">
        <ele>98</ele>
        <time>2015-12-20T09:47:34Z</time>
      </trkpt>
      <trkpt lat="44.50934" lon="0.55612">
        <ele>97</ele>
        <time>2015-12-20T09:47:36Z</time>
      </trkpt>
      <trkpt lat="44.50952" lon="0.55606">
        <ele>97</ele>
        <time>2015-12-20T09:47:41Z</time>
      </trkpt>
      <trkpt lat="44.50964" lon="0.55596">
        <ele>93</ele>
        <time>2015-12-20T09:47:46Z</time>
      </trkpt>
      <trkpt lat="44.50978" lon="0.55586">
        <ele>91</ele>
        <time>2015-12-20T09:47:51Z</time>
      </trkpt>
      <trkpt lat="44.50993" lon="0.55568">
        <ele>94</ele>
        <time>2015-12-20T09:47:56Z</time>
      </trkpt>
      <trkpt lat="44.51004" lon="0.55551">
        <ele>95</ele>
        <time>2015-12-20T09:48:01Z</time>
      </trkpt>
      <trkpt lat="44.51016" lon="0.55536">
        <ele>98</ele>
        <time>2015-12-20T09:48:06Z</time>
      </trkpt>
      <trkpt lat="44.51034" lon="0.55519">
        <ele>96</ele>
        <time>2015-12-20T09:48:11Z</time>
      </trkpt>
      <trkpt lat="44.51047" lon="0.55503">
        <ele>95</ele>
        <time>2015-12-20T09:48:16Z</time>
      </trkpt>
      <trkpt lat="44.51054" lon="0.55478">
        <ele>98</ele>
        <time>2015-12-20T09:48:21Z</time>
      </trkpt>
      <trkpt lat="44.51062" lon="0.55456">
        <ele>102</ele>
        <time>2015-12-20T09:48:26Z</time>
      </trkpt>
      <trkpt lat="44.51069" lon="0.55432">
        <ele>103</ele>
        <time>2015-12-20T09:48:31Z</time>
      </trkpt>
      <trkpt lat="44.51076" lon="0.55407">
        <ele>104</ele>
        <time>2015-12-20T09:48:36Z</time>
      </trkpt>
      <trkpt lat="44.51078" lon="0.55379">
        <ele>108</ele>
        <time>2015-12-20T09:48:42Z</time>
      </trkpt>
      <trkpt lat="44.5108" lon="0.55366">
        <ele>109</ele>
        <time>2015-12-20T09:48:46Z</time>
      </trkpt>
      <trkpt lat="44.51081" lon="0.55351">
        <ele>109</ele>
        <time>2015-12-20T09:48:53Z</time>
      </trkpt>
      <trkpt lat="44.51082" lon="0.55342">
        <ele>106</ele>
        <time>2015-12-20T09:48:56Z</time>
      </trkpt>
      <trkpt lat="44.51082" lon="0.55325">
        <ele>105</ele>
        <time>2015-12-20T09:49:02Z</time>
      </trkpt>
      <trkpt lat="44.51082" lon="0.55313">
        <ele>102</ele>
        <time>2015-12-20T09:49:07Z</time>
      </trkpt>
      <trkpt lat="44.51081" lon="0.55301">
        <ele>105</ele>
        <time>2015-12-20T09:49:11Z</time>
      </trkpt>
      <trkpt lat="44.51079" lon="0.55288">
        <ele>108</ele>
        <time>2015-12-20T09:49:16Z</time>
      </trkpt>
      <trkpt lat="44.51081" lon="0.55273">
        <ele>111</ele>
        <time>2015-12-20T09:49:23Z</time>
      </trkpt>
      <trkpt lat="44.51076" lon="0.55261">
        <ele>114</ele>
        <time>2015-12-20T09:49:27Z</time>
      </trkpt>
      <trkpt lat="44.51076" lon="0.55251">
        <ele>117</ele>
        <time>2015-12-20T09:49:31Z</time>
      </trkpt>
      <trkpt lat="44.51074" lon="0.55237">
        <ele>121</ele>
        <time>2015-12-20T09:49:36Z</time>
      </trkpt>
      <trkpt lat="44.51077" lon="0.55213">
        <ele>125</ele>
        <time>2015-12-20T09:49:45Z</time>
      </trkpt>
      <trkpt lat="44.51076" lon="0.55204">
        <ele>129</ele>
        <time>2015-12-20T09:49:48Z</time>
      </trkpt>
      <trkpt lat="44.51073" lon="0.55194">
        <ele>133</ele>
        <time>2015-12-20T09:49:52Z</time>
      </trkpt>
      <trkpt lat="44.51076" lon="0.55179">
        <ele>132</ele>
        <time>2015-12-20T09:49:56Z</time>
      </trkpt>
      <trkpt lat="44.51071" lon="0.55173">
        <ele>131</ele>
        <time>2015-12-20T09:50:01Z</time>
      </trkpt>
      <trkpt lat="44.51069" lon="0.55172">
        <ele>130</ele>
        <time>2015-12-20T09:50:07Z</time>
      </trkpt>
      <trkpt lat="44.51069" lon="0.55171">
        <ele>131</ele>
        <time>2015-12-20T09:50:11Z</time>
      </trkpt>
      <trkpt lat="44.51069" lon="0.55171">
        <ele>132</ele>
        <time>2015-12-20T09:50:14Z</time>
      </trkpt>
      <trkpt lat="44.51069" lon="0.5517">
        <ele>133</ele>
        <time>2015-12-20T09:50:17Z</time>
      </trkpt>
      <trkpt lat="44.51069" lon="0.55169">
        <ele>133</ele>
        <time>2015-12-20T09:50:20Z</time>
      </trkpt>
      <trkpt lat="44.51069" lon="0.55168">
        <ele>133</ele>
        <time>2015-12-20T09:50:23Z</time>
      </trkpt>
      <trkpt lat="44.51069" lon="0.55167">
        <ele>134</ele>
        <time>2015-12-20T09:50:26Z</time>
      </trkpt>
      <trkpt lat="44.51069" lon="0.55166">
        <ele>135</ele>
        <time>2015-12-20T09:50:31Z</time>
      </trkpt>
      <trkpt lat="44.51069" lon="0.55166">
        <ele>135</ele>
        <time>2015-12-20T09:50:32Z</time>
      </trkpt>
      <trkpt lat="44.51069" lon="0.55165">
        <ele>136</ele>
        <time>2015-12-20T09:50:37Z</time>
      </trkpt>
      <trkpt lat="44.51069" lon="0.55165">
        <ele>136</ele>
        <time>2015-12-20T09:50:38Z</time>
      </trkpt>
      <trkpt lat="44.51069" lon="0.55165">
        <ele>136</ele>
        <time>2015-12-20T09:50:41Z</time>
      </trkpt>
      <trkpt lat="44.51069" lon="0.55165">
        <ele>136</ele>
        <time>2015-12-20T09:50:44Z</time>
      </trkpt>
      <trkpt lat="44.51069" lon="0.55165">
        <ele>136</ele>
        <time>2015-12-20T09:50:48Z</time>
      </trkpt>
      <trkpt lat="44.51069" lon="0.55164">
        <ele>135</ele>
        <time>2015-12-20T09:50:50Z</time>
      </trkpt>
      <trkpt lat="44.5107" lon="0.55158">
        <ele>132</ele>
        <time>2015-12-20T09:50:56Z</time>
      </trkpt>
      <trkpt lat="44.51072" lon="0.55156">
        <ele>130</ele>
        <time>2015-12-20T09:51:00Z</time>
      </trkpt>
      <trkpt lat="44.51083" lon="0.55148">
        <ele>125</ele>
        <time>2015-12-20T09:51:08Z</time>
      </trkpt>
      <trkpt lat="44.51087" lon="0.55131">
        <ele>124</ele>
        <time>2015-12-20T09:51:12Z</time>
      </trkpt>
      <trkpt lat="44.5109" lon="0.5512">
        <ele>125</ele>
        <time>2015-12-20T09:51:15Z</time>
      </trkpt>
      <trkpt lat="44.51095" lon="0.55108">
        <ele>127</ele>
        <time>2015-12-20T09:51:20Z</time>
      </trkpt>
      <trkpt lat="44.51102" lon="0.55089">
        <ele>132</ele>
        <time>2015-12-20T09:51:29Z</time>
      </trkpt>
      <trkpt lat="44.51103" lon="0.55087">
        <ele>132</ele>
        <time>2015-12-20T09:51:30Z</time>
      </trkpt>
      <trkpt lat="44.51105" lon="0.55072">
        <ele>133</ele>
        <time>2015-12-20T09:51:35Z</time>
      </trkpt>
      <trkpt lat="44.51106" lon="0.55057">
        <ele>134</ele>
        <time>2015-12-20T09:51:40Z</time>
      </trkpt>
      <trkpt lat="44.5111" lon="0.55038">
        <ele>130</ele>
        <time>2015-12-20T09:51:45Z</time>
      </trkpt>
      <trkpt lat="44.51112" lon="0.55026">
        <ele>129</ele>
        <time>2015-12-20T09:51:50Z</time>
      </trkpt>
      <trkpt lat="44.51113" lon="0.55013">
        <ele>130</ele>
        <time>2015-12-20T09:51:55Z</time>
      </trkpt>
      <trkpt lat="44.51117" lon="0.54999">
        <ele>134</ele>
        <time>2015-12-20T09:52:00Z</time>
      </trkpt>
      <trkpt lat="44.51121" lon="0.54983">
        <ele>133</ele>
        <time>2015-12-20T09:52:05Z</time>
      </trkpt>
      <trkpt lat="44.51122" lon="0.54964">
        <ele>131</ele>
        <time>2015-12-20T09:52:10Z</time>
      </trkpt>
      <trkpt lat="44.51129" lon="0.54938">
        <ele>127</ele>
        <time>2015-12-20T09:52:19Z</time>
      </trkpt>
      <trkpt lat="44.51133" lon="0.5493">
        <ele>129</ele>
        <time>2015-12-20T09:52:24Z</time>
      </trkpt>
      <trkpt lat="44.51136" lon="0.54925">
        <ele>129</ele>
        <time>2015-12-20T09:52:27Z</time>
      </trkpt>
      <trkpt lat="44.51144" lon="0.54925">
        <ele>131</ele>
        <time>2015-12-20T09:52:33Z</time>
      </trkpt>
      <trkpt lat="44.51147" lon="0.54922">
        <ele>130</ele>
        <time>2015-12-20T09:52:35Z</time>
      </trkpt>
      <trkpt lat="44.51154" lon="0.54925">
        <ele>130</ele>
        <time>2015-12-20T09:52:40Z</time>
      </trkpt>
      <trkpt lat="44.51163" lon="0.54929">
        <ele>132</ele>
        <time>2015-12-20T09:52:45Z</time>
      </trkpt>
      <trkpt lat="44.51175" lon="0.54936">
        <ele>130</ele>
        <time>2015-12-20T09:52:50Z</time>
      </trkpt>
      <trkpt lat="44.51185" lon="0.5495">
        <ele>132</ele>
        <time>2015-12-20T09:52:55Z</time>
      </trkpt>
      <trkpt lat="44.51192" lon="0.54957">
        <ele>133</ele>
        <time>2015-12-20T09:53:00Z</time>
      </trkpt>
      <trkpt lat="44.51199" lon="0.54968">
        <ele>131</ele>
        <time>2015-12-20T09:53:05Z</time>
      </trkpt>
      <trkpt lat="44.51206" lon="0.54979">
        <ele>130</ele>
        <time>2015-12-20T09:53:10Z</time>
      </trkpt>
      <trkpt lat="44.51216" lon="0.5499">
        <ele>129</ele>
        <time>2015-12-20T09:53:15Z</time>
      </trkpt>
      <trkpt lat="44.51235" lon="0.55007">
        <ele>125</ele>
        <time>2015-12-20T09:53:22Z</time>
      </trkpt>
      <trkpt lat="44.51238" lon="0.55011">
        <ele>127</ele>
        <time>2015-12-20T09:53:25Z</time>
      </trkpt>
      <trkpt lat="44.51249" lon="0.5502">
        <ele>132</ele>
        <time>2015-12-20T09:53:30Z</time>
      </trkpt>
      <trkpt lat="44.51259" lon="0.55034">
        <ele>131</ele>
        <time>2015-12-20T09:53:35Z</time>
      </trkpt>
      <trkpt lat="44.51269" lon="0.55044">
        <ele>133</ele>
        <time>2015-12-20T09:53:40Z</time>
      </trkpt>
      <trkpt lat="44.51281" lon="0.55052">
        <ele>136</ele>
        <time>2015-12-20T09:53:45Z</time>
      </trkpt>
      <trkpt lat="44.51291" lon="0.55052">
        <ele>132</ele>
        <time>2015-12-20T09:53:50Z</time>
      </trkpt>
      <trkpt lat="44.51295" lon="0.55054">
        <ele>133</ele>
        <time>2015-12-20T09:53:55Z</time>
      </trkpt>
      <trkpt lat="44.51297" lon="0.55054">
        <ele>132</ele>
        <time>2015-12-20T09:54:00Z</time>
      </trkpt>
      <trkpt lat="44.51289" lon="0.55069">
        <ele>130</ele>
        <time>2015-12-20T09:54:07Z</time>
      </trkpt>
      <trkpt lat="44.51286" lon="0.55074">
        <ele>132</ele>
        <time>2015-12-20T09:54:08Z</time>
      </trkpt>
      <trkpt lat="44.51271" lon="0.55103">
        <ele>128</ele>
        <time>2015-12-20T09:54:13Z</time>
      </trkpt>
      <trkpt lat="44.51255" lon="0.55115">
        <ele>123</ele>
        <time>2015-12-20T09:54:18Z</time>
      </trkpt>
      <trkpt lat="44.51235" lon="0.55123">
        <ele>121</ele>
        <time>2015-12-20T09:54:23Z</time>
      </trkpt>
      <trkpt lat="44.51207" lon="0.5514">
        <ele>124</ele>
        <time>2015-12-20T09:54:32Z</time>
      </trkpt>
      <trkpt lat="44.51206" lon="0.55142">
        <ele>123</ele>
        <time>2015-12-20T09:54:33Z</time>
      </trkpt>
      <trkpt lat="44.51205" lon="0.55144">
        <ele>123</ele>
        <time>2015-12-20T09:54:38Z</time>
      </trkpt>
      <trkpt lat="44.51205" lon="0.55144">
        <ele>124</ele>
        <time>2015-12-20T09:54:43Z</time>
      </trkpt>
      <trkpt lat="44.51205" lon="0.55143">
        <ele>124</ele>
        <time>2015-12-20T09:54:46Z</time>
      </trkpt>
      <trkpt lat="44.51205" lon="0.55143">
        <ele>124</ele>
        <time>2015-12-20T09:54:49Z</time>
      </trkpt>
      <trkpt lat="44.51205" lon="0.55143">
        <ele>124</ele>
        <time>2015-12-20T09:54:52Z</time>
      </trkpt>
      <trkpt lat="44.51205" lon="0.55143">
        <ele>124</ele>
        <time>2015-12-20T09:54:55Z</time>
      </trkpt>
      <trkpt lat="44.51205" lon="0.55143">
        <ele>124</ele>
        <time>2015-12-20T09:54:58Z</time>
      </trkpt>
      <trkpt lat="44.51203" lon="0.55147">
        <ele>123</ele>
        <time>2015-12-20T09:55:01Z</time>
      </trkpt>
      <trkpt lat="44.51193" lon="0.55171">
        <ele>123</ele>
        <time>2015-12-20T09:55:08Z</time>
      </trkpt>
      <trkpt lat="44.51192" lon="0.55183">
        <ele>124</ele>
        <time>2015-12-20T09:55:11Z</time>
      </trkpt>
      <trkpt lat="44.51189" lon="0.55202">
        <ele>125</ele>
        <time>2015-12-20T09:55:16Z</time>
      </trkpt>
      <trkpt lat="44.51208" lon="0.55272">
        <ele>112</ele>
        <time>2015-12-20T09:55:23Z</time>
      </trkpt>
      <trkpt lat="44.51214" lon="0.55297">
        <ele>105</ele>
        <time>2015-12-20T09:55:26Z</time>
      </trkpt>
      <trkpt lat="44.51215" lon="0.55328">
        <ele>100</ele>
        <time>2015-12-20T09:55:31Z</time>
      </trkpt>
      <trkpt lat="44.51236" lon="0.55414">
        <ele>91</ele>
        <time>2015-12-20T09:55:40Z</time>
      </trkpt>
      <trkpt lat="44.51237" lon="0.55424">
        <ele>90</ele>
        <time>2015-12-20T09:55:41Z</time>
      </trkpt>
      <trkpt lat="44.51241" lon="0.55465">
        <ele>90</ele>
        <time>2015-12-20T09:55:46Z</time>
      </trkpt>
      <trkpt lat="44.51252" lon="0.55506">
        <ele>89</ele>
        <time>2015-12-20T09:55:51Z</time>
      </trkpt>
      <trkpt lat="44.51292" lon="0.55576">
        <ele>87</ele>
        <time>2015-12-20T09:56:00Z</time>
      </trkpt>
      <trkpt lat="44.51298" lon="0.55584">
        <ele>86</ele>
        <time>2015-12-20T09:56:01Z</time>
      </trkpt>
      <trkpt lat="44.5132" lon="0.55612">
        <ele>86</ele>
        <time>2015-12-20T09:56:06Z</time>
      </trkpt>
      <trkpt lat="44.51333" lon="0.55645">
        <ele>86</ele>
        <time>2015-12-20T09:56:15Z</time>
      </trkpt>
      <trkpt lat="44.51335" lon="0.55643">
        <ele>84</ele>
        <time>2015-12-20T09:56:19Z</time>
      </trkpt>
      <trkpt lat="44.51336" lon="0.55643">
        <ele>84</ele>
        <time>2015-12-20T09:56:21Z</time>
      </trkpt>
      <trkpt lat="44.51336" lon="0.55644">
        <ele>84</ele>
        <time>2015-12-20T09:56:24Z</time>
      </trkpt>
      <trkpt lat="44.51336" lon="0.55645">
        <ele>85</ele>
        <time>2015-12-20T09:56:27Z</time>
      </trkpt>
      <trkpt lat="44.51336" lon="0.55645">
        <ele>84</ele>
        <time>2015-12-20T09:56:30Z</time>
      </trkpt>
      <trkpt lat="44.51336" lon="0.55645">
        <ele>84</ele>
        <time>2015-12-20T09:56:33Z</time>
      </trkpt>
      <trkpt lat="44.51336" lon="0.55645">
        <ele>84</ele>
        <time>2015-12-20T09:56:36Z</time>
      </trkpt>
      <trkpt lat="44.51336" lon="0.55645">
        <ele>84</ele>
        <time>2015-12-20T09:56:39Z</time>
      </trkpt>
      <trkpt lat="44.51336" lon="0.55645">
        <ele>84</ele>
        <time>2015-12-20T09:56:42Z</time>
      </trkpt>
      <trkpt lat="44.51336" lon="0.55645">
        <ele>84</ele>
        <time>2015-12-20T09:56:46Z</time>
      </trkpt>
      <trkpt lat="44.51336" lon="0.55647">
        <ele>85</ele>
        <time>2015-12-20T09:56:48Z</time>
      </trkpt>
      <trkpt lat="44.51336" lon="0.55647">
        <ele>84</ele>
        <time>2015-12-20T09:56:52Z</time>
      </trkpt>
      <trkpt lat="44.51334" lon="0.55645">
        <ele>83</ele>
        <time>2015-12-20T09:56:55Z</time>
      </trkpt>
      <trkpt lat="44.51334" lon="0.55645">
        <ele>84</ele>
        <time>2015-12-20T09:57:00Z</time>
      </trkpt>
      <trkpt lat="44.51334" lon="0.55643">
        <ele>85</ele>
        <time>2015-12-20T09:57:03Z</time>
      </trkpt>
      <trkpt lat="44.51334" lon="0.55641">
        <ele>83</ele>
        <time>2015-12-20T09:57:06Z</time>
      </trkpt>
      <trkpt lat="44.51334" lon="0.55641">
        <ele>83</ele>
        <time>2015-12-20T09:57:11Z</time>
      </trkpt>
      <trkpt lat="44.51334" lon="0.55641">
        <ele>83</ele>
        <time>2015-12-20T09:57:15Z</time>
      </trkpt>
      <trkpt lat="44.51333" lon="0.5564">
        <ele>83</ele>
        <time>2015-12-20T09:57:17Z</time>
      </trkpt>
      <trkpt lat="44.51333" lon="0.5564">
        <ele>83</ele>
        <time>2015-12-20T09:57:20Z</time>
      </trkpt>
      <trkpt lat="44.51333" lon="0.55641">
        <ele>83</ele>
        <time>2015-12-20T09:57:22Z</time>
      </trkpt>
      <trkpt lat="44.51333" lon="0.55641">
        <ele>83</ele>
        <time>2015-12-20T09:57:25Z</time>
      </trkpt>
      <trkpt lat="44.51334" lon="0.55641">
        <ele>83</ele>
        <time>2015-12-20T09:57:28Z</time>
      </trkpt>
      <trkpt lat="44.51334" lon="0.55641">
        <ele>83</ele>
        <time>2015-12-20T09:57:31Z</time>
      </trkpt>
      <trkpt lat="44.51333" lon="0.55641">
        <ele>83</ele>
        <time>2015-12-20T09:57:33Z</time>
      </trkpt>
      <trkpt lat="44.51333" lon="0.55641">
        <ele>83</ele>
        <time>2015-12-20T09:57:36Z</time>
      </trkpt>
      <trkpt lat="44.51333" lon="0.55641">
        <ele>83</ele>
        <time>2015-12-20T09:57:41Z</time>
      </trkpt>
      <trkpt lat="44.51333" lon="0.55641">
        <ele>83</ele>
        <time>2015-12-20T09:57:42Z</time>
      </trkpt>
      <trkpt lat="44.51334" lon="0.5564">
        <ele>83</ele>
        <time>2015-12-20T09:57:44Z</time>
      </trkpt>
      <trkpt lat="44.51333" lon="0.5564">
        <ele>84</ele>
        <time>2015-12-20T09:57:47Z</time>
      </trkpt>
      <trkpt lat="44.51333" lon="0.5564">
        <ele>83</ele>
        <time>2015-12-20T09:57:49Z</time>
      </trkpt>
      <trkpt lat="44.51333" lon="0.5564">
        <ele>82</ele>
        <time>2015-12-20T09:57:53Z</time>
      </trkpt>
      <trkpt lat="44.51333" lon="0.5564">
        <ele>82</ele>
        <time>2015-12-20T09:57:55Z</time>
      </trkpt>
      <trkpt lat="44.51333" lon="0.5564">
        <ele>82</ele>
        <time>2015-12-20T09:57:58Z</time>
      </trkpt>
      <trkpt lat="44.51333" lon="0.5564">
        <ele>82</ele>
        <time>2015-12-20T09:58:01Z</time>
      </trkpt>
      <trkpt lat="44.51333" lon="0.5564">
        <ele>82</ele>
        <time>2015-12-20T09:58:04Z</time>
      </trkpt>
      <trkpt lat="44.51334" lon="0.5564">
        <ele>83</ele>
        <time>2015-12-20T09:58:06Z</time>
      </trkpt>
      <trkpt lat="44.51334" lon="0.5564">
        <ele>83</ele>
        <time>2015-12-20T09:58:08Z</time>
      </trkpt>
      <trkpt lat="44.51334" lon="0.5564">
        <ele>82</ele>
        <time>2015-12-20T09:58:11Z</time>
      </trkpt>
      <trkpt lat="44.51335" lon="0.5564">
        <ele>81</ele>
        <time>2015-12-20T09:58:15Z</time>
      </trkpt>
      <trkpt lat="44.51335" lon="0.5564">
        <ele>81</ele>
        <time>2015-12-20T09:58:16Z</time>
      </trkpt>
      <trkpt lat="44.51334" lon="0.5564">
        <ele>81</ele>
        <time>2015-12-20T09:58:19Z</time>
      </trkpt>
      <trkpt lat="44.51334" lon="0.5564">
        <ele>81</ele>
        <time>2015-12-20T09:58:22Z</time>
      </trkpt>
      <trkpt lat="44.51335" lon="0.5564">
        <ele>81</ele>
        <time>2015-12-20T09:58:25Z</time>
      </trkpt>
      <trkpt lat="44.51334" lon="0.5564">
        <ele>81</ele>
        <time>2015-12-20T09:58:28Z</time>
      </trkpt>
      <trkpt lat="44.51335" lon="0.55643">
        <ele>78</ele>
        <time>2015-12-20T09:58:35Z</time>
      </trkpt>
      <trkpt lat="44.51335" lon="0.55643">
        <ele>78</ele>
        <time>2015-12-20T09:58:36Z</time>
      </trkpt>
      <trkpt lat="44.51335" lon="0.55643">
        <ele>78</ele>
        <time>2015-12-20T09:58:39Z</time>
      </trkpt>
      <trkpt lat="44.51334" lon="0.55643">
        <ele>75</ele>
        <time>2015-12-20T09:58:42Z</time>
      </trkpt>
      <trkpt lat="44.51334" lon="0.55643">
        <ele>74</ele>
        <time>2015-12-20T09:58:45Z</time>
      </trkpt>
      <trkpt lat="44.51335" lon="0.55643">
        <ele>75</ele>
        <time>2015-12-20T09:58:48Z</time>
      </trkpt>
      <trkpt lat="44.51335" lon="0.55644">
        <ele>76</ele>
        <time>2015-12-20T09:58:53Z</time>
      </trkpt>
      <trkpt lat="44.51335" lon="0.55644">
        <ele>77</ele>
        <time>2015-12-20T09:58:56Z</time>
      </trkpt>
      <trkpt lat="44.51335" lon="0.55644">
        <ele>77</ele>
        <time>2015-12-20T09:58:59Z</time>
      </trkpt>
      <trkpt lat="44.51335" lon="0.55644">
        <ele>77</ele>
        <time>2015-12-20T09:59:04Z</time>
      </trkpt>
      <trkpt lat="44.51335" lon="0.55644">
        <ele>77</ele>
        <time>2015-12-20T09:59:05Z</time>
      </trkpt>
      <trkpt lat="44.51335" lon="0.55644">
        <ele>77</ele>
        <time>2015-12-20T09:59:08Z</time>
      </trkpt>
      <trkpt lat="44.51335" lon="0.55644">
        <ele>77</ele>
        <time>2015-12-20T09:59:13Z</time>
      </trkpt>
      <trkpt lat="44.51335" lon="0.55644">
        <ele>77</ele>
        <time>2015-12-20T09:59:14Z</time>
      </trkpt>
      <trkpt lat="44.51335" lon="0.55644">
        <ele>77</ele>
        <time>2015-12-20T09:59:17Z</time>
      </trkpt>
      <trkpt lat="44.51335" lon="0.55643">
        <ele>77</ele>
        <time>2015-12-20T09:59:20Z</time>
      </trkpt>
      <trkpt lat="44.51335" lon="0.55643">
        <ele>77</ele>
        <time>2015-12-20T09:59:23Z</time>
      </trkpt>
      <trkpt lat="44.51335" lon="0.55643">
        <ele>77</ele>
        <time>2015-12-20T09:59:26Z</time>
      </trkpt>
      <trkpt lat="44.51335" lon="0.55643">
        <ele>77</ele>
        <time>2015-12-20T09:59:29Z</time>
      </trkpt>
      <trkpt lat="44.51335" lon="0.55643">
        <ele>77</ele>
        <time>2015-12-20T09:59:34Z</time>
      </trkpt>
      <trkpt lat="44.51335" lon="0.55643">
        <ele>77</ele>
        <time>2015-12-20T09:59:35Z</time>
      </trkpt>
      <trkpt lat="44.51335" lon="0.55643">
        <ele>77</ele>
        <time>2015-12-20T09:59:38Z</time>
      </trkpt>
      <trkpt lat="44.51335" lon="0.55644">
        <ele>77</ele>
        <time>2015-12-20T09:59:41Z</time>
      </trkpt>
      <trkpt lat="44.51335" lon="0.55644">
        <ele>77</ele>
        <time>2015-12-20T09:59:46Z</time>
      </trkpt>
      <trkpt lat="44.51334" lon="0.55645">
        <ele>78</ele>
        <time>2015-12-20T09:59:49Z</time>
      </trkpt>
      <trkpt lat="44.51334" lon="0.55645">
        <ele>78</ele>
        <time>2015-12-20T09:59:52Z</time>
      </trkpt>
      <trkpt lat="44.51335" lon="0.55646">
        <ele>77</ele>
        <time>2015-12-20T09:59:55Z</time>
      </trkpt>
      <trkpt lat="44.51335" lon="0.55646">
        <ele>77</ele>
        <time>2015-12-20T09:59:56Z</time>
      </trkpt>
      <trkpt lat="44.51335" lon="0.55646">
        <ele>78</ele>
        <time>2015-12-20T10:00:01Z</time>
      </trkpt>
      <trkpt lat="44.51335" lon="0.55646">
        <ele>78</ele>
        <time>2015-12-20T10:00:02Z</time>
      </trkpt>
      <trkpt lat="44.51335" lon="0.55646">
        <ele>78</ele>
        <time>2015-12-20T10:00:05Z</time>
      </trkpt>
      <trkpt lat="44.51335" lon="0.55646">
        <ele>78</ele>
        <time>2015-12-20T10:00:08Z</time>
      </trkpt>
      <trkpt lat="44.51335" lon="0.55646">
        <ele>77</ele>
        <time>2015-12-20T10:00:11Z</time>
      </trkpt>
      <trkpt lat="44.51334" lon="0.55645">
        <ele>79</ele>
        <time>2015-12-20T10:00:16Z</time>
      </trkpt>
      <trkpt lat="44.51334" lon="0.55645">
        <ele>79</ele>
        <time>2015-12-20T10:00:17Z</time>
      </trkpt>
      <trkpt lat="44.51334" lon="0.55646">
        <ele>79</ele>
        <time>2015-12-20T10:00:20Z</time>
      </trkpt>
      <trkpt lat="44.51334" lon="0.55646">
        <ele>78</ele>
        <time>2015-12-20T10:00:23Z</time>
      </trkpt>
      <trkpt lat="44.51334" lon="0.55647">
        <ele>78</ele>
        <time>2015-12-20T10:00:26Z</time>
      </trkpt>
      <trkpt lat="44.51334" lon="0.55647">
        <ele>78</ele>
        <time>2015-12-20T10:00:29Z</time>
      </trkpt>
      <trkpt lat="44.51334" lon="0.55647">
        <ele>78</ele>
        <time>2015-12-20T10:00:32Z</time>
      </trkpt>
      <trkpt lat="44.51334" lon="0.55647">
        <ele>78</ele>
        <time>2015-12-20T10:00:35Z</time>
      </trkpt>
      <trkpt lat="44.51334" lon="0.55647">
        <ele>78</ele>
        <time>2015-12-20T10:00:38Z</time>
      </trkpt>
      <trkpt lat="44.51334" lon="0.55647">
        <ele>78</ele>
        <time>2015-12-20T10:00:41Z</time>
      </trkpt>
      <trkpt lat="44.51334" lon="0.55647">
        <ele>78</ele>
        <time>2015-12-20T10:00:44Z</time>
      </trkpt>
      <trkpt lat="44.51334" lon="0.55647">
        <ele>78</ele>
        <time>2015-12-20T10:00:47Z</time>
      </trkpt>
      <trkpt lat="44.51334" lon="0.55647">
        <ele>78</ele>
        <time>2015-12-20T10:00:50Z</time>
      </trkpt>
      <trkpt lat="44.51334" lon="0.55646">
        <ele>78</ele>
        <time>2015-12-20T10:00:53Z</time>
      </trkpt>
      <trkpt lat="44.51334" lon="0.55647">
        <ele>79</ele>
        <time>2015-12-20T10:00:58Z</time>
      </trkpt>
      <trkpt lat="44.51334" lon="0.55647">
        <ele>79</ele>
        <time>2015-12-20T10:00:59Z</time>
      </trkpt>
      <trkpt lat="44.51333" lon="0.55649">
        <ele>80</ele>
        <time>2015-12-20T10:01:02Z</time>
      </trkpt>
      <trkpt lat="44.51333" lon="0.55653">
        <ele>82</ele>
        <time>2015-12-20T10:01:07Z</time>
      </trkpt>
      <trkpt lat="44.51335" lon="0.55652">
        <ele>80</ele>
        <time>2015-12-20T10:01:12Z</time>
      </trkpt>
      <trkpt lat="44.51335" lon="0.55652">
        <ele>79</ele>
        <time>2015-12-20T10:01:17Z</time>
      </trkpt>
      <trkpt lat="44.51335" lon="0.55653">
        <ele>80</ele>
        <time>2015-12-20T10:01:20Z</time>
      </trkpt>
      <trkpt lat="44.51335" lon="0.55653">
        <ele>80</ele>
        <time>2015-12-20T10:01:23Z</time>
      </trkpt>
      <trkpt lat="44.51335" lon="0.55653">
        <ele>80</ele>
        <time>2015-12-20T10:01:26Z</time>
      </trkpt>
      <trkpt lat="44.51335" lon="0.55653">
        <ele>80</ele>
        <time>2015-12-20T10:01:29Z</time>
      </trkpt>
      <trkpt lat="44.51335" lon="0.55653">
        <ele>80</ele>
        <time>2015-12-20T10:01:32Z</time>
      </trkpt>
      <trkpt lat="44.51335" lon="0.55653">
        <ele>80</ele>
        <time>2015-12-20T10:01:35Z</time>
      </trkpt>
      <trkpt lat="44.51335" lon="0.55653">
        <ele>80</ele>
        <time>2015-12-20T10:01:39Z</time>
      </trkpt>
      <trkpt lat="44.51335" lon="0.55653">
        <ele>80</ele>
        <time>2015-12-20T10:01:41Z</time>
      </trkpt>
      <trkpt lat="44.51335" lon="0.55653">
        <ele>80</ele>
        <time>2015-12-20T10:01:44Z</time>
      </trkpt>
      <trkpt lat="44.51335" lon="0.55653">
        <ele>80</ele>
        <time>2015-12-20T10:01:48Z</time>
      </trkpt>
      <trkpt lat="44.51335" lon="0.55653">
        <ele>80</ele>
        <time>2015-12-20T10:01:50Z</time>
      </trkpt>
      <trkpt lat="44.51335" lon="0.55653">
        <ele>80</ele>
        <time>2015-12-20T10:01:53Z</time>
      </trkpt>
      <trkpt lat="44.51335" lon="0.55653">
        <ele>80</ele>
        <time>2015-12-20T10:01:56Z</time>
      </trkpt>
      <trkpt lat="44.51335" lon="0.55653">
        <ele>80</ele>
        <time>2015-12-20T10:01:59Z</time>
      </trkpt>
      <trkpt lat="44.51335" lon="0.55653">
        <ele>80</ele>
        <time>2015-12-20T10:02:04Z</time>
      </trkpt>
      <trkpt lat="44.51335" lon="0.55653">
        <ele>80</ele>
        <time>2015-12-20T10:02:05Z</time>
      </trkpt>
      <trkpt lat="44.51335" lon="0.55653">
        <ele>80</ele>
        <time>2015-12-20T10:02:10Z</time>
      </trkpt>
      <trkpt lat="44.51335" lon="0.55653">
        <ele>80</ele>
        <time>2015-12-20T10:02:13Z</time>
      </trkpt>
      <trkpt lat="44.51335" lon="0.55653">
        <ele>80</ele>
        <time>2015-12-20T10:02:16Z</time>
      </trkpt>
      <trkpt lat="44.51336" lon="0.55652">
        <ele>81</ele>
        <time>2015-12-20T10:02:19Z</time>
      </trkpt>
      <trkpt lat="44.51336" lon="0.55652">
        <ele>81</ele>
        <time>2015-12-20T10:02:20Z</time>
      </trkpt>
      <trkpt lat="44.51336" lon="0.55652">
        <ele>81</ele>
        <time>2015-12-20T10:02:23Z</time>
      </trkpt>
      <trkpt lat="44.51337" lon="0.55652">
        <ele>80</ele>
        <time>2015-12-20T10:02:26Z</time>
      </trkpt>
      <trkpt lat="44.51343" lon="0.55647">
        <ele>80</ele>
        <time>2015-12-20T10:02:31Z</time>
      </trkpt>
      <trkpt lat="44.51353" lon="0.55642">
        <ele>80</ele>
        <time>2015-12-20T10:02:36Z</time>
      </trkpt>
      <trkpt lat="44.51364" lon="0.55635">
        <ele>81</ele>
        <time>2015-12-20T10:02:41Z</time>
      </trkpt>
      <trkpt lat="44.51373" lon="0.5563">
        <ele>80</ele>
        <time>2015-12-20T10:02:46Z</time>
      </trkpt>
      <trkpt lat="44.51385" lon="0.55624">
        <ele>79</ele>
        <time>2015-12-20T10:02:51Z</time>
      </trkpt>
      <trkpt lat="44.51401" lon="0.55615">
        <ele>81</ele>
        <time>2015-12-20T10:02:56Z</time>
      </trkpt>
      <trkpt lat="44.51414" lon="0.55608">
        <ele>81</ele>
        <time>2015-12-20T10:03:01Z</time>
      </trkpt>
      <trkpt lat="44.51426" lon="0.55602">
        <ele>81</ele>
        <time>2015-12-20T10:03:06Z</time>
      </trkpt>
      <trkpt lat="44.51434" lon="0.55599">
        <ele>83</ele>
        <time>2015-12-20T10:03:11Z</time>
      </trkpt>
      <trkpt lat="44.51444" lon="0.55591">
        <ele>82</ele>
        <time>2015-12-20T10:03:16Z</time>
      </trkpt>
      <trkpt lat="44.51452" lon="0.5559">
        <ele>83</ele>
        <time>2015-12-20T10:03:21Z</time>
      </trkpt>
      <trkpt lat="44.51463" lon="0.55585">
        <ele>84</ele>
        <time>2015-12-20T10:03:26Z</time>
      </trkpt>
      <trkpt lat="44.51473" lon="0.5558">
        <ele>84</ele>
        <time>2015-12-20T10:03:31Z</time>
      </trkpt>
      <trkpt lat="44.51483" lon="0.55575">
        <ele>86</ele>
        <time>2015-12-20T10:03:36Z</time>
      </trkpt>
      <trkpt lat="44.51493" lon="0.5557">
        <ele>87</ele>
        <time>2015-12-20T10:03:40Z</time>
      </trkpt>
      <trkpt lat="44.51501" lon="0.55567">
        <ele>88</ele>
        <time>2015-12-20T10:03:45Z</time>
      </trkpt>
      <trkpt lat="44.51515" lon="0.55558">
        <ele>87</ele>
        <time>2015-12-20T10:03:54Z</time>
      </trkpt>
      <trkpt lat="44.51521" lon="0.55557">
        <ele>88</ele>
        <time>2015-12-20T10:03:57Z</time>
      </trkpt>
      <trkpt lat="44.51526" lon="0.55554">
        <ele>88</ele>
        <time>2015-12-20T10:03:59Z</time>
      </trkpt>
      <trkpt lat="44.51551" lon="0.5554">
        <ele>86</ele>
        <time>2015-12-20T10:04:07Z</time>
      </trkpt>
      <trkpt lat="44.51565" lon="0.55532">
        <ele>85</ele>
        <time>2015-12-20T10:04:12Z</time>
      </trkpt>
      <trkpt lat="44.51568" lon="0.5553">
        <ele>86</ele>
        <time>2015-12-20T10:04:14Z</time>
      </trkpt>
      <trkpt lat="44.51583" lon="0.55523">
        <ele>87</ele>
        <time>2015-12-20T10:04:19Z</time>
      </trkpt>
      <trkpt lat="44.51601" lon="0.55514">
        <ele>89</ele>
        <time>2015-12-20T10:04:25Z</time>
      </trkpt>
      <trkpt lat="44.51611" lon="0.5551">
        <ele>87</ele>
        <time>2015-12-20T10:04:28Z</time>
      </trkpt>
      <trkpt lat="44.51625" lon="0.55505">
        <ele>90</ele>
        <time>2015-12-20T10:04:32Z</time>
      </trkpt>
      <trkpt lat="44.51641" lon="0.55495">
        <ele>90</ele>
        <time>2015-12-20T10:04:37Z</time>
      </trkpt>
      <trkpt lat="44.51658" lon="0.55487">
        <ele>89</ele>
        <time>2015-12-20T10:04:42Z</time>
      </trkpt>
      <trkpt lat="44.51672" lon="0.55478">
        <ele>87</ele>
        <time>2015-12-20T10:04:46Z</time>
      </trkpt>
      <trkpt lat="44.51688" lon="0.55465">
        <ele>87</ele>
        <time>2015-12-20T10:04:50Z</time>
      </trkpt>
      <trkpt lat="44.51703" lon="0.55455">
        <ele>88</ele>
        <time>2015-12-20T10:04:54Z</time>
      </trkpt>
      <trkpt lat="44.51723" lon="0.55439">
        <ele>91</ele>
        <time>2015-12-20T10:04:59Z</time>
      </trkpt>
      <trkpt lat="44.51743" lon="0.55423">
        <ele>89</ele>
        <time>2015-12-20T10:05:04Z</time>
      </trkpt>
      <trkpt lat="44.51781" lon="0.55379">
        <ele>89</ele>
        <time>2015-12-20T10:05:13Z</time>
      </trkpt>
      <trkpt lat="44.51786" lon="0.55372">
        <ele>89</ele>
        <time>2015-12-20T10:05:14Z</time>
      </trkpt>
      <trkpt lat="44.51822" lon="0.55319">
        <ele>93</ele>
        <time>2015-12-20T10:05:23Z</time>
      </trkpt>
      <trkpt lat="44.5183" lon="0.55309">
        <ele>92</ele>
        <time>2015-12-20T10:05:25Z</time>
      </trkpt>
      <trkpt lat="44.51847" lon="0.55288">
        <ele>91</ele>
        <time>2015-12-20T10:05:29Z</time>
      </trkpt>
      <trkpt lat="44.51866" lon="0.55261">
        <ele>91</ele>
        <time>2015-12-20T10:05:35Z</time>
      </trkpt>
      <trkpt lat="44.5188" lon="0.55246">
        <ele>91</ele>
        <time>2015-12-20T10:05:39Z</time>
      </trkpt>
      <trkpt lat="44.51904" lon="0.55239">
        <ele>93</ele>
        <time>2015-12-20T10:05:48Z</time>
      </trkpt>
      <trkpt lat="44.51909" lon="0.55244">
        <ele>91</ele>
        <time>2015-12-20T10:05:51Z</time>
      </trkpt>
      <trkpt lat="44.51911" lon="0.55245">
        <ele>90</ele>
        <time>2015-12-20T10:05:55Z</time>
      </trkpt>
      <trkpt lat="44.5191" lon="0.55245">
        <ele>90</ele>
        <time>2015-12-20T10:05:59Z</time>
      </trkpt>
      <trkpt lat="44.5191" lon="0.55245">
        <ele>90</ele>
        <time>2015-12-20T10:06:02Z</time>
      </trkpt>
      <trkpt lat="44.51907" lon="0.55245">
        <ele>91</ele>
        <time>2015-12-20T10:06:05Z</time>
      </trkpt>
      <trkpt lat="44.519" lon="0.5525">
        <ele>91</ele>
        <time>2015-12-20T10:06:10Z</time>
      </trkpt>
      <trkpt lat="44.51905" lon="0.55269">
        <ele>94</ele>
        <time>2015-12-20T10:06:15Z</time>
      </trkpt>
      <trkpt lat="44.51916" lon="0.55296">
        <ele>90</ele>
        <time>2015-12-20T10:06:20Z</time>
      </trkpt>
      <trkpt lat="44.51923" lon="0.5532">
        <ele>91</ele>
        <time>2015-12-20T10:06:27Z</time>
      </trkpt>
      <trkpt lat="44.51925" lon="0.55331">
        <ele>93</ele>
        <time>2015-12-20T10:06:31Z</time>
      </trkpt>
      <trkpt lat="44.51926" lon="0.55338">
        <ele>94</ele>
        <time>2015-12-20T10:06:35Z</time>
      </trkpt>
      <trkpt lat="44.51929" lon="0.55351">
        <ele>96</ele>
        <time>2015-12-20T10:06:40Z</time>
      </trkpt>
      <trkpt lat="44.51931" lon="0.55363">
        <ele>98</ele>
        <time>2015-12-20T10:06:45Z</time>
      </trkpt>
      <trkpt lat="44.51934" lon="0.55376">
        <ele>101</ele>
        <time>2015-12-20T10:06:50Z</time>
      </trkpt>
      <trkpt lat="44.51934" lon="0.5539">
        <ele>106</ele>
        <time>2015-12-20T10:06:55Z</time>
      </trkpt>
      <trkpt lat="44.5194" lon="0.55402">
        <ele>109</ele>
        <time>2015-12-20T10:07:01Z</time>
      </trkpt>
      <trkpt lat="44.5194" lon="0.55408">
        <ele>112</ele>
        <time>2015-12-20T10:07:05Z</time>
      </trkpt>
      <trkpt lat="44.51942" lon="0.55421">
        <ele>117</ele>
        <time>2015-12-20T10:07:12Z</time>
      </trkpt>
      <trkpt lat="44.51943" lon="0.55425">
        <ele>118</ele>
        <time>2015-12-20T10:07:15Z</time>
      </trkpt>
      <trkpt lat="44.51945" lon="0.55439">
        <ele>119</ele>
        <time>2015-12-20T10:07:22Z</time>
      </trkpt>
      <trkpt lat="44.51946" lon="0.55447">
        <ele>117</ele>
        <time>2015-12-20T10:07:25Z</time>
      </trkpt>
      <trkpt lat="44.5195" lon="0.55457">
        <ele>115</ele>
        <time>2015-12-20T10:07:30Z</time>
      </trkpt>
      <trkpt lat="44.51953" lon="0.55467">
        <ele>114</ele>
        <time>2015-12-20T10:07:35Z</time>
      </trkpt>
      <trkpt lat="44.51958" lon="0.55482">
        <ele>108</ele>
        <time>2015-12-20T10:07:41Z</time>
      </trkpt>
      <trkpt lat="44.5196" lon="0.55491">
        <ele>106</ele>
        <time>2015-12-20T10:07:45Z</time>
      </trkpt>
      <trkpt lat="44.51964" lon="0.55499">
        <ele>106</ele>
        <time>2015-12-20T10:07:50Z</time>
      </trkpt>
      <trkpt lat="44.51965" lon="0.55508">
        <ele>104</ele>
        <time>2015-12-20T10:07:55Z</time>
      </trkpt>
      <trkpt lat="44.51964" lon="0.55518">
        <ele>106</ele>
        <time>2015-12-20T10:08:00Z</time>
      </trkpt>
      <trkpt lat="44.51966" lon="0.55529">
        <ele>107</ele>
        <time>2015-12-20T10:08:05Z</time>
      </trkpt>
      <trkpt lat="44.51967" lon="0.55541">
        <ele>107</ele>
        <time>2015-12-20T10:08:10Z</time>
      </trkpt>
      <trkpt lat="44.51971" lon="0.55551">
        <ele>108</ele>
        <time>2015-12-20T10:08:15Z</time>
      </trkpt>
      <trkpt lat="44.51973" lon="0.55562">
        <ele>111</ele>
        <time>2015-12-20T10:08:20Z</time>
      </trkpt>
      <trkpt lat="44.51975" lon="0.55576">
        <ele>113</ele>
        <time>2015-12-20T10:08:25Z</time>
      </trkpt>
      <trkpt lat="44.51977" lon="0.55586">
        <ele>114</ele>
        <time>2015-12-20T10:08:30Z</time>
      </trkpt>
      <trkpt lat="44.51979" lon="0.55595">
        <ele>114</ele>
        <time>2015-12-20T10:08:35Z</time>
      </trkpt>
      <trkpt lat="44.51982" lon="0.55604">
        <ele>114</ele>
        <time>2015-12-20T10:08:40Z</time>
      </trkpt>
      <trkpt lat="44.51985" lon="0.55614">
        <ele>114</ele>
        <time>2015-12-20T10:08:45Z</time>
      </trkpt>
      <trkpt lat="44.51986" lon="0.55623">
        <ele>114</ele>
        <time>2015-12-20T10:08:50Z</time>
      </trkpt>
      <trkpt lat="44.51988" lon="0.55631">
        <ele>116</ele>
        <time>2015-12-20T10:08:55Z</time>
      </trkpt>
      <trkpt lat="44.51991" lon="0.55638">
        <ele>115</ele>
        <time>2015-12-20T10:09:00Z</time>
      </trkpt>
      <trkpt lat="44.51993" lon="0.55644">
        <ele>113</ele>
        <time>2015-12-20T10:09:04Z</time>
      </trkpt>
      <trkpt lat="44.51995" lon="0.55659">
        <ele>117</ele>
        <time>2015-12-20T10:09:12Z</time>
      </trkpt>
      <trkpt lat="44.51996" lon="0.55662">
        <ele>117</ele>
        <time>2015-12-20T10:09:14Z</time>
      </trkpt>
      <trkpt lat="44.52001" lon="0.55678">
        <ele>119</ele>
        <time>2015-12-20T10:09:22Z</time>
      </trkpt>
      <trkpt lat="44.52001" lon="0.55693">
        <ele>120</ele>
        <time>2015-12-20T10:09:26Z</time>
      </trkpt>
      <trkpt lat="44.52004" lon="0.55709">
        <ele>120</ele>
        <time>2015-12-20T10:09:29Z</time>
      </trkpt>
      <trkpt lat="44.52007" lon="0.55728">
        <ele>119</ele>
        <time>2015-12-20T10:09:33Z</time>
      </trkpt>
      <trkpt lat="44.52011" lon="0.55753">
        <ele>120</ele>
        <time>2015-12-20T10:09:38Z</time>
      </trkpt>
      <trkpt lat="44.52019" lon="0.55795">
        <ele>121</ele>
        <time>2015-12-20T10:09:47Z</time>
      </trkpt>
      <trkpt lat="44.5202" lon="0.55803">
        <ele>120</ele>
        <time>2015-12-20T10:09:49Z</time>
      </trkpt>
      <trkpt lat="44.52025" lon="0.55823">
        <ele>120</ele>
        <time>2015-12-20T10:09:57Z</time>
      </trkpt>
      <trkpt lat="44.52025" lon="0.55826">
        <ele>120</ele>
        <time>2015-12-20T10:09:58Z</time>
      </trkpt>
      <trkpt lat="44.52032" lon="0.55845">
        <ele>121</ele>
        <time>2015-12-20T10:10:03Z</time>
      </trkpt>
      <trkpt lat="44.52037" lon="0.55858">
        <ele>121</ele>
        <time>2015-12-20T10:10:08Z</time>
      </trkpt>
      <trkpt lat="44.52043" lon="0.55876">
        <ele>119</ele>
        <time>2015-12-20T10:10:13Z</time>
      </trkpt>
      <trkpt lat="44.52053" lon="0.55901">
        <ele>119</ele>
        <time>2015-12-20T10:10:19Z</time>
      </trkpt>
      <trkpt lat="44.52061" lon="0.5592">
        <ele>120</ele>
        <time>2015-12-20T10:10:23Z</time>
      </trkpt>
      <trkpt lat="44.52073" lon="0.55946">
        <ele>120</ele>
        <time>2015-12-20T10:10:28Z</time>
      </trkpt>
      <trkpt lat="44.52082" lon="0.55969">
        <ele>121</ele>
        <time>2015-12-20T10:10:33Z</time>
      </trkpt>
      <trkpt lat="44.5209" lon="0.55992">
        <ele>122</ele>
        <time>2015-12-20T10:10:38Z</time>
      </trkpt>
      <trkpt lat="44.52099" lon="0.56018">
        <ele>121</ele>
        <time>2015-12-20T10:10:43Z</time>
      </trkpt>
      <trkpt lat="44.52109" lon="0.56047">
        <ele>122</ele>
        <time>2015-12-20T10:10:48Z</time>
      </trkpt>
      <trkpt lat="44.52118" lon="0.56074">
        <ele>122</ele>
        <time>2015-12-20T10:10:53Z</time>
      </trkpt>
      <trkpt lat="44.52133" lon="0.5612">
        <ele>122</ele>
        <time>2015-12-20T10:11:00Z</time>
      </trkpt>
      <trkpt lat="44.5214" lon="0.56137">
        <ele>122</ele>
        <time>2015-12-20T10:11:03Z</time>
      </trkpt>
      <trkpt lat="44.52148" lon="0.5616">
        <ele>122</ele>
        <time>2015-12-20T10:11:08Z</time>
      </trkpt>
      <trkpt lat="44.52151" lon="0.56169">
        <ele>122</ele>
        <time>2015-12-20T10:11:12Z</time>
      </trkpt>
      <trkpt lat="44.52159" lon="0.56172">
        <ele>123</ele>
        <time>2015-12-20T10:11:17Z</time>
      </trkpt>
      <trkpt lat="44.52168" lon="0.56171">
        <ele>125</ele>
        <time>2015-12-20T10:11:22Z</time>
      </trkpt>
      <trkpt lat="44.52181" lon="0.56161">
        <ele>127</ele>
        <time>2015-12-20T10:11:29Z</time>
      </trkpt>
      <trkpt lat="44.52187" lon="0.56155">
        <ele>127</ele>
        <time>2015-12-20T10:11:32Z</time>
      </trkpt>
      <trkpt lat="44.52194" lon="0.56147">
        <ele>128</ele>
        <time>2015-12-20T10:11:37Z</time>
      </trkpt>
      <trkpt lat="44.52202" lon="0.56137">
        <ele>130</ele>
        <time>2015-12-20T10:11:42Z</time>
      </trkpt>
      <trkpt lat="44.52208" lon="0.5613">
        <ele>132</ele>
        <time>2015-12-20T10:11:47Z</time>
      </trkpt>
      <trkpt lat="44.52214" lon="0.56123">
        <ele>133</ele>
        <time>2015-12-20T10:11:52Z</time>
      </trkpt>
      <trkpt lat="44.5222" lon="0.56115">
        <ele>133</ele>
        <time>2015-12-20T10:11:57Z</time>
      </trkpt>
      <trkpt lat="44.52226" lon="0.56106">
        <ele>133</ele>
        <time>2015-12-20T10:12:02Z</time>
      </trkpt>
      <trkpt lat="44.52233" lon="0.56094">
        <ele>132</ele>
        <time>2015-12-20T10:12:07Z</time>
      </trkpt>
      <trkpt lat="44.52242" lon="0.56092">
        <ele>133</ele>
        <time>2015-12-20T10:12:12Z</time>
      </trkpt>
      <trkpt lat="44.5225" lon="0.56088">
        <ele>134</ele>
        <time>2015-12-20T10:12:17Z</time>
      </trkpt>
      <trkpt lat="44.52259" lon="0.56086">
        <ele>135</ele>
        <time>2015-12-20T10:12:22Z</time>
      </trkpt>
      <trkpt lat="44.52266" lon="0.56088">
        <ele>137</ele>
        <time>2015-12-20T10:12:26Z</time>
      </trkpt>
      <trkpt lat="44.52274" lon="0.56092">
        <ele>139</ele>
        <time>2015-12-20T10:12:30Z</time>
      </trkpt>
      <trkpt lat="44.52287" lon="0.56093">
        <ele>140</ele>
        <time>2015-12-20T10:12:35Z</time>
      </trkpt>
      <trkpt lat="44.52302" lon="0.56087">
        <ele>140</ele>
        <time>2015-12-20T10:12:40Z</time>
      </trkpt>
      <trkpt lat="44.5232" lon="0.56073">
        <ele>139</ele>
        <time>2015-12-20T10:12:45Z</time>
      </trkpt>
      <trkpt lat="44.52339" lon="0.56053">
        <ele>142</ele>
        <time>2015-12-20T10:12:53Z</time>
      </trkpt>
      <trkpt lat="44.52342" lon="0.5605">
        <ele>142</ele>
        <time>2015-12-20T10:12:54Z</time>
      </trkpt>
      <trkpt lat="44.52356" lon="0.5604">
        <ele>138</ele>
        <time>2015-12-20T10:12:59Z</time>
      </trkpt>
      <trkpt lat="44.52369" lon="0.56026">
        <ele>140</ele>
        <time>2015-12-20T10:13:04Z</time>
      </trkpt>
      <trkpt lat="44.52385" lon="0.56008">
        <ele>141</ele>
        <time>2015-12-20T10:13:10Z</time>
      </trkpt>
      <trkpt lat="44.52394" lon="0.56003">
        <ele>140</ele>
        <time>2015-12-20T10:13:13Z</time>
      </trkpt>
      <trkpt lat="44.52406" lon="0.55992">
        <ele>137</ele>
        <time>2015-12-20T10:13:17Z</time>
      </trkpt>
      <trkpt lat="44.52421" lon="0.55983">
        <ele>137</ele>
        <time>2015-12-20T10:13:22Z</time>
      </trkpt>
      <trkpt lat="44.52447" lon="0.55975">
        <ele>140</ele>
        <time>2015-12-20T10:13:29Z</time>
      </trkpt>
      <trkpt lat="44.5246" lon="0.55967">
        <ele>141</ele>
        <time>2015-12-20T10:13:32Z</time>
      </trkpt>
      <trkpt lat="44.52492" lon="0.55948">
        <ele>142</ele>
        <time>2015-12-20T10:13:41Z</time>
      </trkpt>
      <trkpt lat="44.52507" lon="0.55943">
        <ele>143</ele>
        <time>2015-12-20T10:13:45Z</time>
      </trkpt>
      <trkpt lat="44.52513" lon="0.55943">
        <ele>145</ele>
        <time>2015-12-20T10:13:47Z</time>
      </trkpt>
      <trkpt lat="44.52547" lon="0.55925">
        <ele>139</ele>
        <time>2015-12-20T10:13:55Z</time>
      </trkpt>
      <trkpt lat="44.52556" lon="0.55928">
        <ele>136</ele>
        <time>2015-12-20T10:13:57Z</time>
      </trkpt>
      <trkpt lat="44.52572" lon="0.55933">
        <ele>136</ele>
        <time>2015-12-20T10:14:01Z</time>
      </trkpt>
      <trkpt lat="44.52623" lon="0.55949">
        <ele>135</ele>
        <time>2015-12-20T10:14:09Z</time>
      </trkpt>
      <trkpt lat="44.52638" lon="0.55948">
        <ele>133</ele>
        <time>2015-12-20T10:14:11Z</time>
      </trkpt>
      <trkpt lat="44.52683" lon="0.5594">
        <ele>130</ele>
        <time>2015-12-20T10:14:18Z</time>
      </trkpt>
      <trkpt lat="44.52708" lon="0.55938">
        <ele>128</ele>
        <time>2015-12-20T10:14:22Z</time>
      </trkpt>
      <trkpt lat="44.52732" lon="0.5593">
        <ele>132</ele>
        <time>2015-12-20T10:14:26Z</time>
      </trkpt>
      <trkpt lat="44.52783" lon="0.55923">
        <ele>132</ele>
        <time>2015-12-20T10:14:35Z</time>
      </trkpt>
      <trkpt lat="44.52791" lon="0.55917">
        <ele>131</ele>
        <time>2015-12-20T10:14:36Z</time>
      </trkpt>
      <trkpt lat="44.52823" lon="0.55902">
        <ele>136</ele>
        <time>2015-12-20T10:14:42Z</time>
      </trkpt>
      <trkpt lat="44.5286" lon="0.55878">
        <ele>133</ele>
        <time>2015-12-20T10:14:49Z</time>
      </trkpt>
      <trkpt lat="44.52876" lon="0.5587">
        <ele>132</ele>
        <time>2015-12-20T10:14:52Z</time>
      </trkpt>
      <trkpt lat="44.529" lon="0.55857">
        <ele>133</ele>
        <time>2015-12-20T10:14:56Z</time>
      </trkpt>
      <trkpt lat="44.5295" lon="0.5584">
        <ele>136</ele>
        <time>2015-12-20T10:15:04Z</time>
      </trkpt>
      <trkpt lat="44.52978" lon="0.55838">
        <ele>138</ele>
        <time>2015-12-20T10:15:09Z</time>
      </trkpt>
      <trkpt lat="44.52988" lon="0.55835">
        <ele>139</ele>
        <time>2015-12-20T10:15:11Z</time>
      </trkpt>
      <trkpt lat="44.53014" lon="0.5583">
        <ele>139</ele>
        <time>2015-12-20T10:15:16Z</time>
      </trkpt>
      <trkpt lat="44.53039" lon="0.55826">
        <ele>139</ele>
        <time>2015-12-20T10:15:21Z</time>
      </trkpt>
      <trkpt lat="44.53059" lon="0.55846">
        <ele>138</ele>
        <time>2015-12-20T10:15:26Z</time>
      </trkpt>
      <trkpt lat="44.53081" lon="0.55884">
        <ele>139</ele>
        <time>2015-12-20T10:15:31Z</time>
      </trkpt>
      <trkpt lat="44.53125" lon="0.55939">
        <ele>131</ele>
        <time>2015-12-20T10:15:38Z</time>
      </trkpt>
      <trkpt lat="44.53147" lon="0.55955">
        <ele>131</ele>
        <time>2015-12-20T10:15:41Z</time>
      </trkpt>
      <trkpt lat="44.53184" lon="0.55982">
        <ele>130</ele>
        <time>2015-12-20T10:15:46Z</time>
      </trkpt>
      <trkpt lat="44.53244" lon="0.56032">
        <ele>122</ele>
        <time>2015-12-20T10:15:54Z</time>
      </trkpt>
      <trkpt lat="44.53258" lon="0.56041">
        <ele>122</ele>
        <time>2015-12-20T10:15:56Z</time>
      </trkpt>
      <trkpt lat="44.53285" lon="0.56066">
        <ele>124</ele>
        <time>2015-12-20T10:16:01Z</time>
      </trkpt>
      <trkpt lat="44.53305" lon="0.56095">
        <ele>126</ele>
        <time>2015-12-20T10:16:06Z</time>
      </trkpt>
      <trkpt lat="44.5332" lon="0.5612">
        <ele>129</ele>
        <time>2015-12-20T10:16:11Z</time>
      </trkpt>
      <trkpt lat="44.53333" lon="0.56143">
        <ele>131</ele>
        <time>2015-12-20T10:16:16Z</time>
      </trkpt>
      <trkpt lat="44.53344" lon="0.56158">
        <ele>132</ele>
        <time>2015-12-20T10:16:21Z</time>
      </trkpt>
      <trkpt lat="44.53351" lon="0.56177">
        <ele>134</ele>
        <time>2015-12-20T10:16:26Z</time>
      </trkpt>
      <trkpt lat="44.5336" lon="0.56191">
        <ele>136</ele>
        <time>2015-12-20T10:16:31Z</time>
      </trkpt>
      <trkpt lat="44.53367" lon="0.56205">
        <ele>138</ele>
        <time>2015-12-20T10:16:36Z</time>
      </trkpt>
      <trkpt lat="44.53381" lon="0.56224">
        <ele>136</ele>
        <time>2015-12-20T10:16:41Z</time>
      </trkpt>
      <trkpt lat="44.53399" lon="0.56252">
        <ele>134</ele>
        <time>2015-12-20T10:16:46Z</time>
      </trkpt>
      <trkpt lat="44.53414" lon="0.56286">
        <ele>134</ele>
        <time>2015-12-20T10:16:51Z</time>
      </trkpt>
      <trkpt lat="44.53425" lon="0.56322">
        <ele>136</ele>
        <time>2015-12-20T10:16:56Z</time>
      </trkpt>
      <trkpt lat="44.53437" lon="0.56355">
        <ele>137</ele>
        <time>2015-12-20T10:17:01Z</time>
      </trkpt>
      <trkpt lat="44.53447" lon="0.56386">
        <ele>136</ele>
        <time>2015-12-20T10:17:06Z</time>
      </trkpt>
      <trkpt lat="44.53458" lon="0.56416">
        <ele>136</ele>
        <time>2015-12-20T10:17:11Z</time>
      </trkpt>
      <trkpt lat="44.53469" lon="0.5645">
        <ele>136</ele>
        <time>2015-12-20T10:17:16Z</time>
      </trkpt>
      <trkpt lat="44.5348" lon="0.56481">
        <ele>134</ele>
        <time>2015-12-20T10:17:21Z</time>
      </trkpt>
      <trkpt lat="44.53487" lon="0.56509">
        <ele>135</ele>
        <time>2015-12-20T10:17:26Z</time>
      </trkpt>
      <trkpt lat="44.53504" lon="0.56548">
        <ele>133</ele>
        <time>2015-12-20T10:17:33Z</time>
      </trkpt>
      <trkpt lat="44.53519" lon="0.56575">
        <ele>130</ele>
        <time>2015-12-20T10:17:38Z</time>
      </trkpt>
      <trkpt lat="44.53526" lon="0.56587">
        <ele>128</ele>
        <time>2015-12-20T10:17:41Z</time>
      </trkpt>
      <trkpt lat="44.53533" lon="0.5662">
        <ele>130</ele>
        <time>2015-12-20T10:17:47Z</time>
      </trkpt>
      <trkpt lat="44.53536" lon="0.56641">
        <ele>128</ele>
        <time>2015-12-20T10:17:51Z</time>
      </trkpt>
      <trkpt lat="44.5354" lon="0.56667">
        <ele>127</ele>
        <time>2015-12-20T10:17:56Z</time>
      </trkpt>
      <trkpt lat="44.53548" lon="0.56699">
        <ele>122</ele>
        <time>2015-12-20T10:18:01Z</time>
      </trkpt>
      <trkpt lat="44.53553" lon="0.56728">
        <ele>123</ele>
        <time>2015-12-20T10:18:06Z</time>
      </trkpt>
      <trkpt lat="44.53557" lon="0.56762">
        <ele>123</ele>
        <time>2015-12-20T10:18:11Z</time>
      </trkpt>
      <trkpt lat="44.53561" lon="0.56794">
        <ele>124</ele>
        <time>2015-12-20T10:18:16Z</time>
      </trkpt>
      <trkpt lat="44.53564" lon="0.56827">
        <ele>127</ele>
        <time>2015-12-20T10:18:21Z</time>
      </trkpt>
      <trkpt lat="44.53567" lon="0.5687">
        <ele>127</ele>
        <time>2015-12-20T10:18:27Z</time>
      </trkpt>
      <trkpt lat="44.53572" lon="0.56933">
        <ele>124</ele>
        <time>2015-12-20T10:18:35Z</time>
      </trkpt>
      <trkpt lat="44.53573" lon="0.5694">
        <ele>124</ele>
        <time>2015-12-20T10:18:36Z</time>
      </trkpt>
      <trkpt lat="44.53578" lon="0.56976">
        <ele>124</ele>
        <time>2015-12-20T10:18:41Z</time>
      </trkpt>
      <trkpt lat="44.53575" lon="0.5701">
        <ele>123</ele>
        <time>2015-12-20T10:18:46Z</time>
      </trkpt>
      <trkpt lat="44.53569" lon="0.57048">
        <ele>123</ele>
        <time>2015-12-20T10:18:51Z</time>
      </trkpt>
      <trkpt lat="44.53565" lon="0.57085">
        <ele>122</ele>
        <time>2015-12-20T10:18:56Z</time>
      </trkpt>
      <trkpt lat="44.53562" lon="0.5712">
        <ele>121</ele>
        <time>2015-12-20T10:19:01Z</time>
      </trkpt>
      <trkpt lat="44.53559" lon="0.57151">
        <ele>121</ele>
        <time>2015-12-20T10:19:05Z</time>
      </trkpt>
      <trkpt lat="44.53554" lon="0.5719">
        <ele>121</ele>
        <time>2015-12-20T10:19:11Z</time>
      </trkpt>
      <trkpt lat="44.53551" lon="0.57209">
        <ele>119</ele>
        <time>2015-12-20T10:19:15Z</time>
      </trkpt>
      <trkpt lat="44.5355" lon="0.57234">
        <ele>119</ele>
        <time>2015-12-20T10:19:24Z</time>
      </trkpt>
      <trkpt lat="44.53551" lon="0.57236">
        <ele>119</ele>
        <time>2015-12-20T10:19:25Z</time>
      </trkpt>
      <trkpt lat="44.5355" lon="0.5725">
        <ele>123</ele>
        <time>2015-12-20T10:19:30Z</time>
      </trkpt>
      <trkpt lat="44.53549" lon="0.57268">
        <ele>125</ele>
        <time>2015-12-20T10:19:35Z</time>
      </trkpt>
      <trkpt lat="44.53544" lon="0.57295">
        <ele>122</ele>
        <time>2015-12-20T10:19:41Z</time>
      </trkpt>
      <trkpt lat="44.53546" lon="0.57333">
        <ele>119</ele>
        <time>2015-12-20T10:19:46Z</time>
      </trkpt>
      <trkpt lat="44.53545" lon="0.57382">
        <ele>118</ele>
        <time>2015-12-20T10:19:51Z</time>
      </trkpt>
      <trkpt lat="44.5354" lon="0.57417">
        <ele>117</ele>
        <time>2015-12-20T10:19:55Z</time>
      </trkpt>
      <trkpt lat="44.5354" lon="0.57457">
        <ele>113</ele>
        <time>2015-12-20T10:19:59Z</time>
      </trkpt>
      <trkpt lat="44.53549" lon="0.57525">
        <ele>111</ele>
        <time>2015-12-20T10:20:05Z</time>
      </trkpt>
      <trkpt lat="44.53568" lon="0.57599">
        <ele>106</ele>
        <time>2015-12-20T10:20:12Z</time>
      </trkpt>
      <trkpt lat="44.53575" lon="0.57621">
        <ele>106</ele>
        <time>2015-12-20T10:20:14Z</time>
      </trkpt>
      <trkpt lat="44.53594" lon="0.57697">
        <ele>105</ele>
        <time>2015-12-20T10:20:21Z</time>
      </trkpt>
      <trkpt lat="44.53599" lon="0.57717">
        <ele>104</ele>
        <time>2015-12-20T10:20:23Z</time>
      </trkpt>
      <trkpt lat="44.53609" lon="0.57767">
        <ele>102</ele>
        <time>2015-12-20T10:20:28Z</time>
      </trkpt>
      <trkpt lat="44.53616" lon="0.57825">
        <ele>101</ele>
        <time>2015-12-20T10:20:33Z</time>
      </trkpt>
      <trkpt lat="44.53635" lon="0.57896">
        <ele>94</ele>
        <time>2015-12-20T10:20:39Z</time>
      </trkpt>
      <trkpt lat="44.53653" lon="0.57948">
        <ele>95</ele>
        <time>2015-12-20T10:20:44Z</time>
      </trkpt>
      <trkpt lat="44.53666" lon="0.57979">
        <ele>95</ele>
        <time>2015-12-20T10:20:47Z</time>
      </trkpt>
      <trkpt lat="44.53689" lon="0.58031">
        <ele>90</ele>
        <time>2015-12-20T10:20:52Z</time>
      </trkpt>
      <trkpt lat="44.53717" lon="0.58077">
        <ele>91</ele>
        <time>2015-12-20T10:20:57Z</time>
      </trkpt>
      <trkpt lat="44.53724" lon="0.58121">
        <ele>92</ele>
        <time>2015-12-20T10:21:02Z</time>
      </trkpt>
      <trkpt lat="44.53734" lon="0.58169">
        <ele>93</ele>
        <time>2015-12-20T10:21:10Z</time>
      </trkpt>
      <trkpt lat="44.53744" lon="0.58196">
        <ele>92</ele>
        <time>2015-12-20T10:21:14Z</time>
      </trkpt>
      <trkpt lat="44.53753" lon="0.58215">
        <ele>93</ele>
        <time>2015-12-20T10:21:17Z</time>
      </trkpt>
      <trkpt lat="44.5377" lon="0.58271">
        <ele>94</ele>
        <time>2015-12-20T10:21:25Z</time>
      </trkpt>
      <trkpt lat="44.53775" lon="0.58282">
        <ele>95</ele>
        <time>2015-12-20T10:21:27Z</time>
      </trkpt>
      <trkpt lat="44.53789" lon="0.5831">
        <ele>95</ele>
        <time>2015-12-20T10:21:32Z</time>
      </trkpt>
      <trkpt lat="44.53799" lon="0.58342">
        <ele>96</ele>
        <time>2015-12-20T10:21:37Z</time>
      </trkpt>
      <trkpt lat="44.53801" lon="0.58374">
        <ele>98</ele>
        <time>2015-12-20T10:21:42Z</time>
      </trkpt>
      <trkpt lat="44.53791" lon="0.58428">
        <ele>100</ele>
        <time>2015-12-20T10:21:51Z</time>
      </trkpt>
      <trkpt lat="44.5379" lon="0.58433">
        <ele>99</ele>
        <time>2015-12-20T10:21:52Z</time>
      </trkpt>
      <trkpt lat="44.5378" lon="0.58446">
        <ele>96</ele>
        <time>2015-12-20T10:21:57Z</time>
      </trkpt>
      <trkpt lat="44.5377" lon="0.58455">
        <ele>96</ele>
        <time>2015-12-20T10:22:04Z</time>
      </trkpt>
      <trkpt lat="44.53751" lon="0.58478">
        <ele>96</ele>
        <time>2015-12-20T10:22:10Z</time>
      </trkpt>
      <trkpt lat="44.53734" lon="0.58497">
        <ele>95</ele>
        <time>2015-12-20T10:22:14Z</time>
      </trkpt>
      <trkpt lat="44.53719" lon="0.58513">
        <ele>95</ele>
        <time>2015-12-20T10:22:17Z</time>
      </trkpt>
      <trkpt lat="44.53695" lon="0.58542">
        <ele>94</ele>
        <time>2015-12-20T10:22:22Z</time>
      </trkpt>
      <trkpt lat="44.53681" lon="0.58577">
        <ele>93</ele>
        <time>2015-12-20T10:22:27Z</time>
      </trkpt>
      <trkpt lat="44.53674" lon="0.58616">
        <ele>89</ele>
        <time>2015-12-20T10:22:32Z</time>
      </trkpt>
      <trkpt lat="44.5367" lon="0.58635">
        <ele>88</ele>
        <time>2015-12-20T10:22:35Z</time>
      </trkpt>
      <trkpt lat="44.53665" lon="0.58662">
        <ele>91</ele>
        <time>2015-12-20T10:22:40Z</time>
      </trkpt>
      <trkpt lat="44.5367" lon="0.58699">
        <ele>91</ele>
        <time>2015-12-20T10:22:45Z</time>
      </trkpt>
      <trkpt lat="44.53675" lon="0.58725">
        <ele>92</ele>
        <time>2015-12-20T10:22:50Z</time>
      </trkpt>
      <trkpt lat="44.53679" lon="0.58749">
        <ele>93</ele>
        <time>2015-12-20T10:22:55Z</time>
      </trkpt>
      <trkpt lat="44.53679" lon="0.5877">
        <ele>93</ele>
        <time>2015-12-20T10:23:01Z</time>
      </trkpt>
      <trkpt lat="44.53673" lon="0.58788">
        <ele>94</ele>
        <time>2015-12-20T10:23:05Z</time>
      </trkpt>
      <trkpt lat="44.53663" lon="0.58806">
        <ele>99</ele>
        <time>2015-12-20T10:23:10Z</time>
      </trkpt>
      <trkpt lat="44.53655" lon="0.58819">
        <ele>101</ele>
        <time>2015-12-20T10:23:15Z</time>
      </trkpt>
      <trkpt lat="44.53645" lon="0.58838">
        <ele>105</ele>
        <time>2015-12-20T10:23:23Z</time>
      </trkpt>
      <trkpt lat="44.53643" lon="0.58842">
        <ele>105</ele>
        <time>2015-12-20T10:23:25Z</time>
      </trkpt>
      <trkpt lat="44.53638" lon="0.58857">
        <ele>106</ele>
        <time>2015-12-20T10:23:30Z</time>
      </trkpt>
      <trkpt lat="44.53627" lon="0.58879">
        <ele>106</ele>
        <time>2015-12-20T10:23:39Z</time>
      </trkpt>
      <trkpt lat="44.53626" lon="0.58882">
        <ele>106</ele>
        <time>2015-12-20T10:23:40Z</time>
      </trkpt>
      <trkpt lat="44.53619" lon="0.58896">
        <ele>109</ele>
        <time>2015-12-20T10:23:46Z</time>
      </trkpt>
      <trkpt lat="44.53619" lon="0.58909">
        <ele>110</ele>
        <time>2015-12-20T10:23:50Z</time>
      </trkpt>
      <trkpt lat="44.53621" lon="0.58924">
        <ele>109</ele>
        <time>2015-12-20T10:23:55Z</time>
      </trkpt>
      <trkpt lat="44.53629" lon="0.58949">
        <ele>107</ele>
        <time>2015-12-20T10:24:02Z</time>
      </trkpt>
      <trkpt lat="44.53632" lon="0.5896">
        <ele>108</ele>
        <time>2015-12-20T10:24:05Z</time>
      </trkpt>
      <trkpt lat="44.53635" lon="0.58973">
        <ele>107</ele>
        <time>2015-12-20T10:24:09Z</time>
      </trkpt>
      <trkpt lat="44.53638" lon="0.5899">
        <ele>107</ele>
        <time>2015-12-20T10:24:14Z</time>
      </trkpt>
      <trkpt lat="44.5364" lon="0.59006">
        <ele>109</ele>
        <time>2015-12-20T10:24:19Z</time>
      </trkpt>
      <trkpt lat="44.53644" lon="0.59023">
        <ele>109</ele>
        <time>2015-12-20T10:24:24Z</time>
      </trkpt>
      <trkpt lat="44.53648" lon="0.59041">
        <ele>108</ele>
        <time>2015-12-20T10:24:29Z</time>
      </trkpt>
      <trkpt lat="44.5365" lon="0.59057">
        <ele>110</ele>
        <time>2015-12-20T10:24:34Z</time>
      </trkpt>
      <trkpt lat="44.53655" lon="0.5907">
        <ele>108</ele>
        <time>2015-12-20T10:24:39Z</time>
      </trkpt>
      <trkpt lat="44.53658" lon="0.59082">
        <ele>108</ele>
        <time>2015-12-20T10:24:44Z</time>
      </trkpt>
      <trkpt lat="44.53659" lon="0.59096">
        <ele>108</ele>
        <time>2015-12-20T10:24:49Z</time>
      </trkpt>
      <trkpt lat="44.53663" lon="0.59113">
        <ele>108</ele>
        <time>2015-12-20T10:24:54Z</time>
      </trkpt>
      <trkpt lat="44.53661" lon="0.59133">
        <ele>108</ele>
        <time>2015-12-20T10:24:59Z</time>
      </trkpt>
      <trkpt lat="44.53651" lon="0.59147">
        <ele>108</ele>
        <time>2015-12-20T10:25:04Z</time>
      </trkpt>
      <trkpt lat="44.53634" lon="0.59168">
        <ele>108</ele>
        <time>2015-12-20T10:25:11Z</time>
      </trkpt>
      <trkpt lat="44.53624" lon="0.59182">
        <ele>109</ele>
        <time>2015-12-20T10:25:17Z</time>
      </trkpt>
      <trkpt lat="44.53621" lon="0.59186">
        <ele>108</ele>
        <time>2015-12-20T10:25:19Z</time>
      </trkpt>
      <trkpt lat="44.53612" lon="0.59195">
        <ele>110</ele>
        <time>2015-12-20T10:25:23Z</time>
      </trkpt>
      <trkpt lat="44.53604" lon="0.59207">
        <ele>111</ele>
        <time>2015-12-20T10:25:28Z</time>
      </trkpt>
      <trkpt lat="44.53597" lon="0.59216">
        <ele>113</ele>
        <time>2015-12-20T10:25:32Z</time>
      </trkpt>
      <trkpt lat="44.53589" lon="0.59226">
        <ele>110</ele>
        <time>2015-12-20T10:25:36Z</time>
      </trkpt>
      <trkpt lat="44.53576" lon="0.59243">
        <ele>113</ele>
        <time>2015-12-20T10:25:42Z</time>
      </trkpt>
      <trkpt lat="44.53566" lon="0.59258">
        <ele>113</ele>
        <time>2015-12-20T10:25:47Z</time>
      </trkpt>
      <trkpt lat="44.53551" lon="0.5928">
        <ele>111</ele>
        <time>2015-12-20T10:25:55Z</time>
      </trkpt>
      <trkpt lat="44.53541" lon="0.59294">
        <ele>111</ele>
        <time>2015-12-20T10:26:00Z</time>
      </trkpt>
      <trkpt lat="44.53533" lon="0.59307">
        <ele>112</ele>
        <time>2015-12-20T10:26:04Z</time>
      </trkpt>
      <trkpt lat="44.53529" lon="0.59314">
        <ele>111</ele>
        <time>2015-12-20T10:26:06Z</time>
      </trkpt>
      <trkpt lat="44.53519" lon="0.59332">
        <ele>112</ele>
        <time>2015-12-20T10:26:11Z</time>
      </trkpt>
      <trkpt lat="44.53508" lon="0.5935">
        <ele>113</ele>
        <time>2015-12-20T10:26:16Z</time>
      </trkpt>
      <trkpt lat="44.53498" lon="0.59368">
        <ele>113</ele>
        <time>2015-12-20T10:26:21Z</time>
      </trkpt>
      <trkpt lat="44.53496" lon="0.59386">
        <ele>114</ele>
        <time>2015-12-20T10:26:26Z</time>
      </trkpt>
      <trkpt lat="44.53503" lon="0.59415">
        <ele>115</ele>
        <time>2015-12-20T10:26:31Z</time>
      </trkpt>
      <trkpt lat="44.5351" lon="0.59442">
        <ele>114</ele>
        <time>2015-12-20T10:26:36Z</time>
      </trkpt>
      <trkpt lat="44.53516" lon="0.59468">
        <ele>115</ele>
        <time>2015-12-20T10:26:41Z</time>
      </trkpt>
      <trkpt lat="44.5352" lon="0.59485">
        <ele>115</ele>
        <time>2015-12-20T10:26:45Z</time>
      </trkpt>
      <trkpt lat="44.53524" lon="0.59504">
        <ele>116</ele>
        <time>2015-12-20T10:26:50Z</time>
      </trkpt>
      <trkpt lat="44.53527" lon="0.5952">
        <ele>117</ele>
        <time>2015-12-20T10:26:54Z</time>
      </trkpt>
      <trkpt lat="44.53533" lon="0.59545">
        <ele>115</ele>
        <time>2015-12-20T10:26:59Z</time>
      </trkpt>
      <trkpt lat="44.5354" lon="0.59583">
        <ele>113</ele>
        <time>2015-12-20T10:27:05Z</time>
      </trkpt>
      <trkpt lat="44.53547" lon="0.59616">
        <ele>115</ele>
        <time>2015-12-20T10:27:10Z</time>
      </trkpt>
      <trkpt lat="44.53555" lon="0.59649">
        <ele>116</ele>
        <time>2015-12-20T10:27:17Z</time>
      </trkpt>
      <trkpt lat="44.53556" lon="0.59658">
        <ele>115</ele>
        <time>2015-12-20T10:27:19Z</time>
      </trkpt>
      <trkpt lat="44.53564" lon="0.59679">
        <ele>113</ele>
        <time>2015-12-20T10:27:24Z</time>
      </trkpt>
      <trkpt lat="44.5357" lon="0.59708">
        <ele>108</ele>
        <time>2015-12-20T10:27:29Z</time>
      </trkpt>
      <trkpt lat="44.53574" lon="0.59736">
        <ele>104</ele>
        <time>2015-12-20T10:27:34Z</time>
      </trkpt>
      <trkpt lat="44.53575" lon="0.59759">
        <ele>100</ele>
        <time>2015-12-20T10:27:39Z</time>
      </trkpt>
      <trkpt lat="44.53577" lon="0.59784">
        <ele>97</ele>
        <time>2015-12-20T10:27:43Z</time>
      </trkpt>
      <trkpt lat="44.53585" lon="0.59815">
        <ele>94</ele>
        <time>2015-12-20T10:27:48Z</time>
      </trkpt>
      <trkpt lat="44.53592" lon="0.59855">
        <ele>95</ele>
        <time>2015-12-20T10:27:54Z</time>
      </trkpt>
      <trkpt lat="44.53596" lon="0.59902">
        <ele>97</ele>
        <time>2015-12-20T10:28:01Z</time>
      </trkpt>
      <trkpt lat="44.53591" lon="0.59915">
        <ele>96</ele>
        <time>2015-12-20T10:28:04Z</time>
      </trkpt>
      <trkpt lat="44.53587" lon="0.59929">
        <ele>97</ele>
        <time>2015-12-20T10:28:08Z</time>
      </trkpt>
      <trkpt lat="44.53582" lon="0.59944">
        <ele>96</ele>
        <time>2015-12-20T10:28:12Z</time>
      </trkpt>
      <trkpt lat="44.53579" lon="0.59967">
        <ele>93</ele>
        <time>2015-12-20T10:28:18Z</time>
      </trkpt>
      <trkpt lat="44.53577" lon="0.59982">
        <ele>94</ele>
        <time>2015-12-20T10:28:22Z</time>
      </trkpt>
      <trkpt lat="44.53573" lon="0.6">
        <ele>97</ele>
        <time>2015-12-20T10:28:26Z</time>
      </trkpt>
      <trkpt lat="44.53568" lon="0.60032">
        <ele>101</ele>
        <time>2015-12-20T10:28:34Z</time>
      </trkpt>
      <trkpt lat="44.53566" lon="0.60039">
        <ele>101</ele>
        <time>2015-12-20T10:28:36Z</time>
      </trkpt>
      <trkpt lat="44.53563" lon="0.60055">
        <ele>101</ele>
        <time>2015-12-20T10:28:40Z</time>
      </trkpt>
      <trkpt lat="44.53557" lon="0.60081">
        <ele>101</ele>
        <time>2015-12-20T10:28:47Z</time>
      </trkpt>
      <trkpt lat="44.53553" lon="0.60107">
        <ele>101</ele>
        <time>2015-12-20T10:28:53Z</time>
      </trkpt>
      <trkpt lat="44.53552" lon="0.60114">
        <ele>101</ele>
        <time>2015-12-20T10:28:55Z</time>
      </trkpt>
      <trkpt lat="44.53547" lon="0.60146">
        <ele>100</ele>
        <time>2015-12-20T10:29:03Z</time>
      </trkpt>
      <trkpt lat="44.53545" lon="0.60154">
        <ele>101</ele>
        <time>2015-12-20T10:29:05Z</time>
      </trkpt>
      <trkpt lat="44.53541" lon="0.60171">
        <ele>102</ele>
        <time>2015-12-20T10:29:10Z</time>
      </trkpt>
      <trkpt lat="44.53536" lon="0.60201">
        <ele>103</ele>
        <time>2015-12-20T10:29:19Z</time>
      </trkpt>
      <trkpt lat="44.53535" lon="0.60216">
        <ele>102</ele>
        <time>2015-12-20T10:29:23Z</time>
      </trkpt>
      <trkpt lat="44.53533" lon="0.60227">
        <ele>102</ele>
        <time>2015-12-20T10:29:27Z</time>
      </trkpt>
      <trkpt lat="44.53532" lon="0.60243">
        <ele>101</ele>
        <time>2015-12-20T10:29:32Z</time>
      </trkpt>
      <trkpt lat="44.53531" lon="0.60253">
        <ele>101</ele>
        <time>2015-12-20T10:29:35Z</time>
      </trkpt>
      <trkpt lat="44.53529" lon="0.60272">
        <ele>101</ele>
        <time>2015-12-20T10:29:40Z</time>
      </trkpt>
      <trkpt lat="44.53528" lon="0.60288">
        <ele>101</ele>
        <time>2015-12-20T10:29:45Z</time>
      </trkpt>
      <trkpt lat="44.53528" lon="0.6029">
        <ele>103</ele>
        <time>2015-12-20T10:29:50Z</time>
      </trkpt>
      <trkpt lat="44.53526" lon="0.60291">
        <ele>103</ele>
        <time>2015-12-20T10:29:56Z</time>
      </trkpt>
      <trkpt lat="44.53526" lon="0.60292">
        <ele>103</ele>
        <time>2015-12-20T10:29:58Z</time>
      </trkpt>
      <trkpt lat="44.53527" lon="0.60292">
        <ele>103</ele>
        <time>2015-12-20T10:30:00Z</time>
      </trkpt>
      <trkpt lat="44.53527" lon="0.60292">
        <ele>103</ele>
        <time>2015-12-20T10:30:03Z</time>
      </trkpt>
      <trkpt lat="44.53527" lon="0.60292">
        <ele>103</ele>
        <time>2015-12-20T10:30:07Z</time>
      </trkpt>
      <trkpt lat="44.53527" lon="0.60292">
        <ele>103</ele>
        <time>2015-12-20T10:30:08Z</time>
      </trkpt>
      <trkpt lat="44.53527" lon="0.60292">
        <ele>103</ele>
        <time>2015-12-20T10:30:11Z</time>
      </trkpt>
      <trkpt lat="44.53527" lon="0.60292">
        <ele>103</ele>
        <time>2015-12-20T10:30:14Z</time>
      </trkpt>
      <trkpt lat="44.53527" lon="0.60292">
        <ele>103</ele>
        <time>2015-12-20T10:30:16Z</time>
      </trkpt>
      <trkpt lat="44.53527" lon="0.60292">
        <ele>103</ele>
        <time>2015-12-20T10:30:19Z</time>
      </trkpt>
      <trkpt lat="44.53527" lon="0.60292">
        <ele>103</ele>
        <time>2015-12-20T10:30:22Z</time>
      </trkpt>
      <trkpt lat="44.53527" lon="0.60292">
        <ele>103</ele>
        <time>2015-12-20T10:30:25Z</time>
      </trkpt>
      <trkpt lat="44.53527" lon="0.60292">
        <ele>103</ele>
        <time>2015-12-20T10:30:30Z</time>
      </trkpt>
      <trkpt lat="44.53527" lon="0.60292">
        <ele>103</ele>
        <time>2015-12-20T10:30:32Z</time>
      </trkpt>
      <trkpt lat="44.53527" lon="0.60292">
        <ele>103</ele>
        <time>2015-12-20T10:30:34Z</time>
      </trkpt>
      <trkpt lat="44.53527" lon="0.60292">
        <ele>103</ele>
        <time>2015-12-20T10:30:37Z</time>
      </trkpt>
      <trkpt lat="44.53527" lon="0.60292">
        <ele>103</ele>
        <time>2015-12-20T10:30:39Z</time>
      </trkpt>
      <trkpt lat="44.53527" lon="0.60292">
        <ele>103</ele>
        <time>2015-12-20T10:30:42Z</time>
      </trkpt>
      <trkpt lat="44.53527" lon="0.60292">
        <ele>103</ele>
        <time>2015-12-20T10:30:44Z</time>
      </trkpt>
      <trkpt lat="44.53527" lon="0.60292">
        <ele>103</ele>
        <time>2015-12-20T10:30:49Z</time>
      </trkpt>
      <trkpt lat="44.53527" lon="0.60292">
        <ele>103</ele>
        <time>2015-12-20T10:30:50Z</time>
      </trkpt>
      <trkpt lat="44.53527" lon="0.60292">
        <ele>103</ele>
        <time>2015-12-20T10:30:52Z</time>
      </trkpt>
      <trkpt lat="44.53527" lon="0.60292">
        <ele>103</ele>
        <time>2015-12-20T10:30:55Z</time>
      </trkpt>
      <trkpt lat="44.53527" lon="0.60292">
        <ele>103</ele>
        <time>2015-12-20T10:30:58Z</time>
      </trkpt>
      <trkpt lat="44.53527" lon="0.60292">
        <ele>103</ele>
        <time>2015-12-20T10:31:01Z</time>
      </trkpt>
      <trkpt lat="44.53527" lon="0.60292">
        <ele>103</ele>
        <time>2015-12-20T10:31:04Z</time>
      </trkpt>
      <trkpt lat="44.53527" lon="0.60292">
        <ele>103</ele>
        <time>2015-12-20T10:31:07Z</time>
      </trkpt>
      <trkpt lat="44.53527" lon="0.60292">
        <ele>103</ele>
        <time>2015-12-20T10:31:10Z</time>
      </trkpt>
      <trkpt lat="44.53527" lon="0.60292">
        <ele>103</ele>
        <time>2015-12-20T10:31:12Z</time>
      </trkpt>
      <trkpt lat="44.53527" lon="0.60292">
        <ele>103</ele>
        <time>2015-12-20T10:31:15Z</time>
      </trkpt>
      <trkpt lat="44.53527" lon="0.60292">
        <ele>103</ele>
        <time>2015-12-20T10:31:18Z</time>
      </trkpt>
      <trkpt lat="44.53527" lon="0.60293">
        <ele>103</ele>
        <time>2015-12-20T10:31:20Z</time>
      </trkpt>
      <trkpt lat="44.53527" lon="0.60293">
        <ele>103</ele>
        <time>2015-12-20T10:31:23Z</time>
      </trkpt>
      <trkpt lat="44.53527" lon="0.60293">
        <ele>103</ele>
        <time>2015-12-20T10:31:26Z</time>
      </trkpt>
      <trkpt lat="44.53526" lon="0.60294">
        <ele>103</ele>
        <time>2015-12-20T10:31:29Z</time>
      </trkpt>
      <trkpt lat="44.53526" lon="0.60293">
        <ele>102</ele>
        <time>2015-12-20T10:31:34Z</time>
      </trkpt>
      <trkpt lat="44.53526" lon="0.60293">
        <ele>102</ele>
        <time>2015-12-20T10:31:35Z</time>
      </trkpt>
      <trkpt lat="44.53526" lon="0.60293">
        <ele>102</ele>
        <time>2015-12-20T10:31:38Z</time>
      </trkpt>
      <trkpt lat="44.53526" lon="0.60293">
        <ele>102</ele>
        <time>2015-12-20T10:31:41Z</time>
      </trkpt>
      <trkpt lat="44.53526" lon="0.60293">
        <ele>102</ele>
        <time>2015-12-20T10:31:44Z</time>
      </trkpt>
      <trkpt lat="44.53526" lon="0.60293">
        <ele>102</ele>
        <time>2015-12-20T10:31:47Z</time>
      </trkpt>
      <trkpt lat="44.53526" lon="0.60293">
        <ele>102</ele>
        <time>2015-12-20T10:31:50Z</time>
      </trkpt>
      <trkpt lat="44.53526" lon="0.60293">
        <ele>102</ele>
        <time>2015-12-20T10:31:52Z</time>
      </trkpt>
      <trkpt lat="44.53526" lon="0.60293">
        <ele>102</ele>
        <time>2015-12-20T10:31:56Z</time>
      </trkpt>
      <trkpt lat="44.53526" lon="0.60293">
        <ele>102</ele>
        <time>2015-12-20T10:31:57Z</time>
      </trkpt>
      <trkpt lat="44.53526" lon="0.60293">
        <ele>102</ele>
        <time>2015-12-20T10:32:00Z</time>
      </trkpt>
      <trkpt lat="44.53526" lon="0.60293">
        <ele>102</ele>
        <time>2015-12-20T10:32:02Z</time>
      </trkpt>
      <trkpt lat="44.53526" lon="0.60293">
        <ele>102</ele>
        <time>2015-12-20T10:32:07Z</time>
      </trkpt>
      <trkpt lat="44.53526" lon="0.60293">
        <ele>102</ele>
        <time>2015-12-20T10:32:09Z</time>
      </trkpt>
      <trkpt lat="44.53526" lon="0.60293">
        <ele>102</ele>
        <time>2015-12-20T10:32:11Z</time>
      </trkpt>
      <trkpt lat="44.53526" lon="0.60293">
        <ele>102</ele>
        <time>2015-12-20T10:32:14Z</time>
      </trkpt>
      <trkpt lat="44.53526" lon="0.60293">
        <ele>102</ele>
        <time>2015-12-20T10:32:17Z</time>
      </trkpt>
      <trkpt lat="44.53526" lon="0.60293">
        <ele>102</ele>
        <time>2015-12-20T10:32:22Z</time>
      </trkpt>
      <trkpt lat="44.53527" lon="0.60292">
        <ele>102</ele>
        <time>2015-12-20T10:32:23Z</time>
      </trkpt>
      <trkpt lat="44.53526" lon="0.60292">
        <ele>105</ele>
        <time>2015-12-20T10:32:28Z</time>
      </trkpt>
      <trkpt lat="44.53527" lon="0.60292">
        <ele>104</ele>
        <time>2015-12-20T10:32:32Z</time>
      </trkpt>
      <trkpt lat="44.53527" lon="0.60291">
        <ele>104</ele>
        <time>2015-12-20T10:32:34Z</time>
      </trkpt>
      <trkpt lat="44.53527" lon="0.60291">
        <ele>104</ele>
        <time>2015-12-20T10:32:37Z</time>
      </trkpt>
      <trkpt lat="44.53527" lon="0.60291">
        <ele>104</ele>
        <time>2015-12-20T10:32:40Z</time>
      </trkpt>
      <trkpt lat="44.53527" lon="0.60291">
        <ele>104</ele>
        <time>2015-12-20T10:32:43Z</time>
      </trkpt>
      <trkpt lat="44.53527" lon="0.60291">
        <ele>104</ele>
        <time>2015-12-20T10:32:48Z</time>
      </trkpt>
      <trkpt lat="44.53527" lon="0.60291">
        <ele>103</ele>
        <time>2015-12-20T10:32:49Z</time>
      </trkpt>
      <trkpt lat="44.53527" lon="0.60291">
        <ele>103</ele>
        <time>2015-12-20T10:32:53Z</time>
      </trkpt>
      <trkpt lat="44.53527" lon="0.60291">
        <ele>103</ele>
        <time>2015-12-20T10:32:55Z</time>
      </trkpt>
      <trkpt lat="44.53527" lon="0.60291">
        <ele>103</ele>
        <time>2015-12-20T10:32:57Z</time>
      </trkpt>
      <trkpt lat="44.53527" lon="0.60291">
        <ele>103</ele>
        <time>2015-12-20T10:33:00Z</time>
      </trkpt>
      <trkpt lat="44.53527" lon="0.60291">
        <ele>103</ele>
        <time>2015-12-20T10:33:02Z</time>
      </trkpt>
      <trkpt lat="44.53527" lon="0.60291">
        <ele>103</ele>
        <time>2015-12-20T10:33:05Z</time>
      </trkpt>
      <trkpt lat="44.53527" lon="0.60291">
        <ele>103</ele>
        <time>2015-12-20T10:33:08Z</time>
      </trkpt>
      <trkpt lat="44.53529" lon="0.6029">
        <ele>103</ele>
        <time>2015-12-20T10:33:11Z</time>
      </trkpt>
      <trkpt lat="44.53529" lon="0.60291">
        <ele>104</ele>
        <time>2015-12-20T10:33:16Z</time>
      </trkpt>
      <trkpt lat="44.53529" lon="0.60292">
        <ele>104</ele>
        <time>2015-12-20T10:33:20Z</time>
      </trkpt>
      <trkpt lat="44.53529" lon="0.60291">
        <ele>105</ele>
        <time>2015-12-20T10:33:22Z</time>
      </trkpt>
      <trkpt lat="44.53529" lon="0.60291">
        <ele>105</ele>
        <time>2015-12-20T10:33:25Z</time>
      </trkpt>
      <trkpt lat="44.53529" lon="0.60291">
        <ele>105</ele>
        <time>2015-12-20T10:33:28Z</time>
      </trkpt>
      <trkpt lat="44.53529" lon="0.60293">
        <ele>105</ele>
        <time>2015-12-20T10:33:30Z</time>
      </trkpt>
      <trkpt lat="44.53533" lon="0.60311">
        <ele>105</ele>
        <time>2015-12-20T10:33:35Z</time>
      </trkpt>
      <trkpt lat="44.53547" lon="0.60353">
        <ele>103</ele>
        <time>2015-12-20T10:33:42Z</time>
      </trkpt>
      <trkpt lat="44.53561" lon="0.6039">
        <ele>104</ele>
        <time>2015-12-20T10:33:48Z</time>
      </trkpt>
      <trkpt lat="44.53564" lon="0.60395">
        <ele>103</ele>
        <time>2015-12-20T10:33:49Z</time>
      </trkpt>
      <trkpt lat="44.53578" lon="0.60418">
        <ele>101</ele>
        <time>2015-12-20T10:33:54Z</time>
      </trkpt>
      <trkpt lat="44.53599" lon="0.60462">
        <ele>102</ele>
        <time>2015-12-20T10:34:02Z</time>
      </trkpt>
      <trkpt lat="44.53601" lon="0.60468">
        <ele>102</ele>
        <time>2015-12-20T10:34:03Z</time>
      </trkpt>
      <trkpt lat="44.53608" lon="0.60498">
        <ele>104</ele>
        <time>2015-12-20T10:34:08Z</time>
      </trkpt>
      <trkpt lat="44.53614" lon="0.60526">
        <ele>105</ele>
        <time>2015-12-20T10:34:13Z</time>
      </trkpt>
      <trkpt lat="44.5362" lon="0.60551">
        <ele>106</ele>
        <time>2015-12-20T10:34:18Z</time>
      </trkpt>
      <trkpt lat="44.53626" lon="0.60573">
        <ele>110</ele>
        <time>2015-12-20T10:34:23Z</time>
      </trkpt>
      <trkpt lat="44.53631" lon="0.60594">
        <ele>112</ele>
        <time>2015-12-20T10:34:28Z</time>
      </trkpt>
      <trkpt lat="44.53635" lon="0.60615">
        <ele>109</ele>
        <time>2015-12-20T10:34:33Z</time>
      </trkpt>
      <trkpt lat="44.53634" lon="0.60655">
        <ele>110</ele>
        <time>2015-12-20T10:34:42Z</time>
      </trkpt>
      <trkpt lat="44.53629" lon="0.60671">
        <ele>109</ele>
        <time>2015-12-20T10:34:45Z</time>
      </trkpt>
      <trkpt lat="44.53619" lon="0.607">
        <ele>111</ele>
        <time>2015-12-20T10:34:51Z</time>
      </trkpt>
      <trkpt lat="44.53617" lon="0.60705">
        <ele>112</ele>
        <time>2015-12-20T10:34:52Z</time>
      </trkpt>
      <trkpt lat="44.53604" lon="0.60738">
        <ele>111</ele>
        <time>2015-12-20T10:34:59Z</time>
      </trkpt>
      <trkpt lat="44.536" lon="0.60748">
        <ele>110</ele>
        <time>2015-12-20T10:35:01Z</time>
      </trkpt>
      <trkpt lat="44.53594" lon="0.6077">
        <ele>113</ele>
        <time>2015-12-20T10:35:06Z</time>
      </trkpt>
      <trkpt lat="44.53601" lon="0.60786">
        <ele>111</ele>
        <time>2015-12-20T10:35:11Z</time>
      </trkpt>
      <trkpt lat="44.53619" lon="0.608">
        <ele>110</ele>
        <time>2015-12-20T10:35:16Z</time>
      </trkpt>
      <trkpt lat="44.53638" lon="0.60817">
        <ele>109</ele>
        <time>2015-12-20T10:35:21Z</time>
      </trkpt>
      <trkpt lat="44.53658" lon="0.60832">
        <ele>108</ele>
        <time>2015-12-20T10:35:26Z</time>
      </trkpt>
      <trkpt lat="44.53676" lon="0.6085">
        <ele>107</ele>
        <time>2015-12-20T10:35:31Z</time>
      </trkpt>
      <trkpt lat="44.53689" lon="0.60864">
        <ele>107</ele>
        <time>2015-12-20T10:35:35Z</time>
      </trkpt>
      <trkpt lat="44.53706" lon="0.60875">
        <ele>109</ele>
        <time>2015-12-20T10:35:40Z</time>
      </trkpt>
      <trkpt lat="44.53702" lon="0.60887">
        <ele>110</ele>
        <time>2015-12-20T10:35:45Z</time>
      </trkpt>
      <trkpt lat="44.53682" lon="0.60903">
        <ele>117</ele>
        <time>2015-12-20T10:35:50Z</time>
      </trkpt>
      <trkpt lat="44.53671" lon="0.60928">
        <ele>115</ele>
        <time>2015-12-20T10:35:55Z</time>
      </trkpt>
      <trkpt lat="44.53662" lon="0.60962">
        <ele>115</ele>
        <time>2015-12-20T10:36:00Z</time>
      </trkpt>
      <trkpt lat="44.53651" lon="0.61004">
        <ele>117</ele>
        <time>2015-12-20T10:36:06Z</time>
      </trkpt>
      <trkpt lat="44.53639" lon="0.61039">
        <ele>118</ele>
        <time>2015-12-20T10:36:11Z</time>
      </trkpt>
      <trkpt lat="44.5362" lon="0.61067">
        <ele>118</ele>
        <time>2015-12-20T10:36:16Z</time>
      </trkpt>
      <trkpt lat="44.5361" lon="0.61081">
        <ele>118</ele>
        <time>2015-12-20T10:36:19Z</time>
      </trkpt>
      <trkpt lat="44.53593" lon="0.61106">
        <ele>116</ele>
        <time>2015-12-20T10:36:24Z</time>
      </trkpt>
      <trkpt lat="44.53578" lon="0.61126">
        <ele>115</ele>
        <time>2015-12-20T10:36:28Z</time>
      </trkpt>
      <trkpt lat="44.5355" lon="0.61162">
        <ele>113</ele>
        <time>2015-12-20T10:36:36Z</time>
      </trkpt>
      <trkpt lat="44.53541" lon="0.61164">
        <ele>113</ele>
        <time>2015-12-20T10:36:38Z</time>
      </trkpt>
      <trkpt lat="44.53517" lon="0.61187">
        <ele>110</ele>
        <time>2015-12-20T10:36:47Z</time>
      </trkpt>
      <trkpt lat="44.53509" lon="0.6121">
        <ele>109</ele>
        <time>2015-12-20T10:36:51Z</time>
      </trkpt>
      <trkpt lat="44.53508" lon="0.61215">
        <ele>109</ele>
        <time>2015-12-20T10:36:52Z</time>
      </trkpt>
      <trkpt lat="44.53499" lon="0.61237">
        <ele>110</ele>
        <time>2015-12-20T10:36:57Z</time>
      </trkpt>
      <trkpt lat="44.53482" lon="0.61274">
        <ele>115</ele>
        <time>2015-12-20T10:37:06Z</time>
      </trkpt>
      <trkpt lat="44.53481" lon="0.61278">
        <ele>115</ele>
        <time>2015-12-20T10:37:07Z</time>
      </trkpt>
      <trkpt lat="44.53482" lon="0.61299">
        <ele>111</ele>
        <time>2015-12-20T10:37:11Z</time>
      </trkpt>
      <trkpt lat="44.53482" lon="0.61318">
        <ele>110</ele>
        <time>2015-12-20T10:37:16Z</time>
      </trkpt>
      <trkpt lat="44.53479" lon="0.61334">
        <ele>108</ele>
        <time>2015-12-20T10:37:21Z</time>
      </trkpt>
      <trkpt lat="44.53476" lon="0.61347">
        <ele>107</ele>
        <time>2015-12-20T10:37:25Z</time>
      </trkpt>
      <trkpt lat="44.53475" lon="0.61364">
        <ele>107</ele>
        <time>2015-12-20T10:37:30Z</time>
      </trkpt>
      <trkpt lat="44.53472" lon="0.61381">
        <ele>108</ele>
        <time>2015-12-20T10:37:35Z</time>
      </trkpt>
      <trkpt lat="44.53469" lon="0.61396">
        <ele>108</ele>
        <time>2015-12-20T10:37:40Z</time>
      </trkpt>
      <trkpt lat="44.53467" lon="0.61413">
        <ele>108</ele>
        <time>2015-12-20T10:37:45Z</time>
      </trkpt>
      <trkpt lat="44.53464" lon="0.61431">
        <ele>109</ele>
        <time>2015-12-20T10:37:50Z</time>
      </trkpt>
      <trkpt lat="44.53463" lon="0.61447">
        <ele>110</ele>
        <time>2015-12-20T10:37:55Z</time>
      </trkpt>
      <trkpt lat="44.53461" lon="0.61463">
        <ele>115</ele>
        <time>2015-12-20T10:38:00Z</time>
      </trkpt>
      <trkpt lat="44.53457" lon="0.61474">
        <ele>118</ele>
        <time>2015-12-20T10:38:05Z</time>
      </trkpt>
      <trkpt lat="44.53456" lon="0.61489">
        <ele>121</ele>
        <time>2015-12-20T10:38:10Z</time>
      </trkpt>
      <trkpt lat="44.53455" lon="0.61499">
        <ele>120</ele>
        <time>2015-12-20T10:38:14Z</time>
      </trkpt>
      <trkpt lat="44.53452" lon="0.61522">
        <ele>121</ele>
        <time>2015-12-20T10:38:22Z</time>
      </trkpt>
      <trkpt lat="44.53451" lon="0.61528">
        <ele>122</ele>
        <time>2015-12-20T10:38:24Z</time>
      </trkpt>
      <trkpt lat="44.53449" lon="0.61542">
        <ele>123</ele>
        <time>2015-12-20T10:38:28Z</time>
      </trkpt>
      <trkpt lat="44.53447" lon="0.61559">
        <ele>124</ele>
        <time>2015-12-20T10:38:33Z</time>
      </trkpt>
      <trkpt lat="44.53443" lon="0.61578">
        <ele>125</ele>
        <time>2015-12-20T10:38:38Z</time>
      </trkpt>
      <trkpt lat="44.53441" lon="0.61591">
        <ele>124</ele>
        <time>2015-12-20T10:38:43Z</time>
      </trkpt>
      <trkpt lat="44.53436" lon="0.61607">
        <ele>125</ele>
        <time>2015-12-20T10:38:48Z</time>
      </trkpt>
      <trkpt lat="44.53433" lon="0.61624">
        <ele>124</ele>
        <time>2015-12-20T10:38:53Z</time>
      </trkpt>
      <trkpt lat="44.53432" lon="0.6164">
        <ele>123</ele>
        <time>2015-12-20T10:38:58Z</time>
      </trkpt>
      <trkpt lat="44.53431" lon="0.61647">
        <ele>123</ele>
        <time>2015-12-20T10:39:03Z</time>
      </trkpt>
      <trkpt lat="44.53432" lon="0.61658">
        <ele>123</ele>
        <time>2015-12-20T10:39:08Z</time>
      </trkpt>
      <trkpt lat="44.53439" lon="0.61699">
        <ele>123</ele>
        <time>2015-12-20T10:39:16Z</time>
      </trkpt>
      <trkpt lat="44.53441" lon="0.61713">
        <ele>123</ele>
        <time>2015-12-20T10:39:18Z</time>
      </trkpt>
      <trkpt lat="44.53445" lon="0.61751">
        <ele>121</ele>
        <time>2015-12-20T10:39:23Z</time>
      </trkpt>
      <trkpt lat="44.53448" lon="0.61782">
        <ele>121</ele>
        <time>2015-12-20T10:39:29Z</time>
      </trkpt>
      <trkpt lat="44.53445" lon="0.61799">
        <ele>122</ele>
        <time>2015-12-20T10:39:33Z</time>
      </trkpt>
      <trkpt lat="44.53445" lon="0.61821">
        <ele>122</ele>
        <time>2015-12-20T10:39:38Z</time>
      </trkpt>
      <trkpt lat="44.53443" lon="0.61838">
        <ele>125</ele>
        <time>2015-12-20T10:39:42Z</time>
      </trkpt>
      <trkpt lat="44.5345" lon="0.61856">
        <ele>129</ele>
        <time>2015-12-20T10:39:47Z</time>
      </trkpt>
      <trkpt lat="44.53459" lon="0.6187">
        <ele>132</ele>
        <time>2015-12-20T10:39:52Z</time>
      </trkpt>
      <trkpt lat="44.53467" lon="0.61885">
        <ele>131</ele>
        <time>2015-12-20T10:39:57Z</time>
      </trkpt>
      <trkpt lat="44.53473" lon="0.61897">
        <ele>132</ele>
        <time>2015-12-20T10:40:01Z</time>
      </trkpt>
      <trkpt lat="44.53479" lon="0.61914">
        <ele>131</ele>
        <time>2015-12-20T10:40:06Z</time>
      </trkpt>
      <trkpt lat="44.53486" lon="0.61929">
        <ele>131</ele>
        <time>2015-12-20T10:40:11Z</time>
      </trkpt>
      <trkpt lat="44.53496" lon="0.61943">
        <ele>132</ele>
        <time>2015-12-20T10:40:16Z</time>
      </trkpt>
      <trkpt lat="44.53504" lon="0.61956">
        <ele>131</ele>
        <time>2015-12-20T10:40:21Z</time>
      </trkpt>
      <trkpt lat="44.5351" lon="0.61969">
        <ele>132</ele>
        <time>2015-12-20T10:40:25Z</time>
      </trkpt>
      <trkpt lat="44.53514" lon="0.61982">
        <ele>130</ele>
        <time>2015-12-20T10:40:29Z</time>
      </trkpt>
      <trkpt lat="44.53523" lon="0.61995">
        <ele>132</ele>
        <time>2015-12-20T10:40:35Z</time>
      </trkpt>
      <trkpt lat="44.53531" lon="0.6201">
        <ele>134</ele>
        <time>2015-12-20T10:40:42Z</time>
      </trkpt>
      <trkpt lat="44.53533" lon="0.62014">
        <ele>134</ele>
        <time>2015-12-20T10:40:44Z</time>
      </trkpt>
      <trkpt lat="44.53538" lon="0.62021">
        <ele>136</ele>
        <time>2015-12-20T10:40:49Z</time>
      </trkpt>
      <trkpt lat="44.53543" lon="0.6203">
        <ele>138</ele>
        <time>2015-12-20T10:40:54Z</time>
      </trkpt>
      <trkpt lat="44.53548" lon="0.62039">
        <ele>140</ele>
        <time>2015-12-20T10:40:59Z</time>
      </trkpt>
      <trkpt lat="44.53555" lon="0.62048">
        <ele>139</ele>
        <time>2015-12-20T10:41:05Z</time>
      </trkpt>
      <trkpt lat="44.53559" lon="0.62051">
        <ele>139</ele>
        <time>2015-12-20T10:41:07Z</time>
      </trkpt>
      <trkpt lat="44.5356" lon="0.6206">
        <ele>140</ele>
        <time>2015-12-20T10:41:12Z</time>
      </trkpt>
      <trkpt lat="44.5356" lon="0.6206">
        <ele>141</ele>
        <time>2015-12-20T10:41:17Z</time>
      </trkpt>
      <trkpt lat="44.5356" lon="0.6206">
        <ele>141</ele>
        <time>2015-12-20T10:41:19Z</time>
      </trkpt>
      <trkpt lat="44.53561" lon="0.6206">
        <ele>141</ele>
        <time>2015-12-20T10:41:22Z</time>
      </trkpt>
      <trkpt lat="44.53561" lon="0.62059">
        <ele>141</ele>
        <time>2015-12-20T10:41:24Z</time>
      </trkpt>
      <trkpt lat="44.53561" lon="0.62059">
        <ele>141</ele>
        <time>2015-12-20T10:41:27Z</time>
      </trkpt>
      <trkpt lat="44.53561" lon="0.62059">
        <ele>141</ele>
        <time>2015-12-20T10:41:30Z</time>
      </trkpt>
      <trkpt lat="44.53561" lon="0.62059">
        <ele>141</ele>
        <time>2015-12-20T10:41:33Z</time>
      </trkpt>
      <trkpt lat="44.53561" lon="0.62059">
        <ele>141</ele>
        <time>2015-12-20T10:41:38Z</time>
      </trkpt>
      <trkpt lat="44.53561" lon="0.62059">
        <ele>141</ele>
        <time>2015-12-20T10:41:39Z</time>
      </trkpt>
      <trkpt lat="44.53561" lon="0.62059">
        <ele>141</ele>
        <time>2015-12-20T10:41:42Z</time>
      </trkpt>
      <trkpt lat="44.53561" lon="0.62059">
        <ele>141</ele>
        <time>2015-12-20T10:41:45Z</time>
      </trkpt>
      <trkpt lat="44.53561" lon="0.62059">
        <ele>141</ele>
        <time>2015-12-20T10:41:48Z</time>
      </trkpt>
      <trkpt lat="44.53561" lon="0.62059">
        <ele>141</ele>
        <time>2015-12-20T10:41:51Z</time>
      </trkpt>
      <trkpt lat="44.53561" lon="0.62059">
        <ele>141</ele>
        <time>2015-12-20T10:41:54Z</time>
      </trkpt>
      <trkpt lat="44.53561" lon="0.62059">
        <ele>141</ele>
        <time>2015-12-20T10:41:57Z</time>
      </trkpt>
      <trkpt lat="44.53561" lon="0.62059">
        <ele>141</ele>
        <time>2015-12-20T10:42:00Z</time>
      </trkpt>
      <trkpt lat="44.53561" lon="0.62059">
        <ele>141</ele>
        <time>2015-12-20T10:42:03Z</time>
      </trkpt>
      <trkpt lat="44.53561" lon="0.62059">
        <ele>141</ele>
        <time>2015-12-20T10:42:06Z</time>
      </trkpt>
      <trkpt lat="44.53561" lon="0.62059">
        <ele>141</ele>
        <time>2015-12-20T10:42:11Z</time>
      </trkpt>
      <trkpt lat="44.53561" lon="0.62059">
        <ele>141</ele>
        <time>2015-12-20T10:42:12Z</time>
      </trkpt>
      <trkpt lat="44.53561" lon="0.62059">
        <ele>141</ele>
        <time>2015-12-20T10:42:15Z</time>
      </trkpt>
      <trkpt lat="44.53561" lon="0.62059">
        <ele>141</ele>
        <time>2015-12-20T10:42:18Z</time>
      </trkpt>
      <trkpt lat="44.53561" lon="0.62061">
        <ele>141</ele>
        <time>2015-12-20T10:42:21Z</time>
      </trkpt>
      <trkpt lat="44.5356" lon="0.62065">
        <ele>141</ele>
        <time>2015-12-20T10:42:24Z</time>
      </trkpt>
      <trkpt lat="44.53554" lon="0.62074">
        <ele>144</ele>
        <time>2015-12-20T10:42:29Z</time>
      </trkpt>
      <trkpt lat="44.53548" lon="0.62081">
        <ele>145</ele>
        <time>2015-12-20T10:42:34Z</time>
      </trkpt>
      <trkpt lat="44.53545" lon="0.62086">
        <ele>145</ele>
        <time>2015-12-20T10:42:38Z</time>
      </trkpt>
      <trkpt lat="44.53538" lon="0.62092">
        <ele>145</ele>
        <time>2015-12-20T10:42:43Z</time>
      </trkpt>
      <trkpt lat="44.53529" lon="0.62108">
        <ele>147</ele>
        <time>2015-12-20T10:42:52Z</time>
      </trkpt>
      <trkpt lat="44.53523" lon="0.62114">
        <ele>151</ele>
        <time>2015-12-20T10:42:57Z</time>
      </trkpt>
      <trkpt lat="44.53522" lon="0.62116">
        <ele>151</ele>
        <time>2015-12-20T10:42:59Z</time>
      </trkpt>
      <trkpt lat="44.53527" lon="0.62124">
        <ele>150</ele>
        <time>2015-12-20T10:43:05Z</time>
      </trkpt>
      <trkpt lat="44.5353" lon="0.62127">
        <ele>149</ele>
        <time>2015-12-20T10:43:07Z</time>
      </trkpt>
      <trkpt lat="44.53537" lon="0.62133">
        <ele>147</ele>
        <time>2015-12-20T10:43:12Z</time>
      </trkpt>
      <trkpt lat="44.53543" lon="0.62132">
        <ele>145</ele>
        <time>2015-12-20T10:43:17Z</time>
      </trkpt>
      <trkpt lat="44.53553" lon="0.62126">
        <ele>144</ele>
        <time>2015-12-20T10:43:23Z</time>
      </trkpt>
      <trkpt lat="44.53559" lon="0.62124">
        <ele>144</ele>
        <time>2015-12-20T10:43:27Z</time>
      </trkpt>
      <trkpt lat="44.53567" lon="0.62124">
        <ele>146</ele>
        <time>2015-12-20T10:43:32Z</time>
      </trkpt>
      <trkpt lat="44.53576" lon="0.62133">
        <ele>149</ele>
        <time>2015-12-20T10:43:37Z</time>
      </trkpt>
      <trkpt lat="44.53577" lon="0.62146">
        <ele>154</ele>
        <time>2015-12-20T10:43:42Z</time>
      </trkpt>
      <trkpt lat="44.53576" lon="0.62161">
        <ele>153</ele>
        <time>2015-12-20T10:43:47Z</time>
      </trkpt>
      <trkpt lat="44.53573" lon="0.62177">
        <ele>155</ele>
        <time>2015-12-20T10:43:52Z</time>
      </trkpt>
      <trkpt lat="44.53573" lon="0.62196">
        <ele>155</ele>
        <time>2015-12-20T10:44:00Z</time>
      </trkpt>
      <trkpt lat="44.53573" lon="0.62198">
        <ele>155</ele>
        <time>2015-12-20T10:44:01Z</time>
      </trkpt>
      <trkpt lat="44.53573" lon="0.62207">
        <ele>156</ele>
        <time>2015-12-20T10:44:05Z</time>
      </trkpt>
      <trkpt lat="44.53572" lon="0.62225">
        <ele>159</ele>
        <time>2015-12-20T10:44:13Z</time>
      </trkpt>
      <trkpt lat="44.53575" lon="0.62231">
        <ele>158</ele>
        <time>2015-12-20T10:44:16Z</time>
      </trkpt>
      <trkpt lat="44.53576" lon="0.62237">
        <ele>158</ele>
        <time>2015-12-20T10:44:20Z</time>
      </trkpt>
      <trkpt lat="44.5358" lon="0.62249">
        <ele>160</ele>
        <time>2015-12-20T10:44:26Z</time>
      </trkpt>
      <trkpt lat="44.53581" lon="0.62257">
        <ele>157</ele>
        <time>2015-12-20T10:44:30Z</time>
      </trkpt>
      <trkpt lat="44.53586" lon="0.62271">
        <ele>162</ele>
        <time>2015-12-20T10:44:35Z</time>
      </trkpt>
      <trkpt lat="44.5359" lon="0.62285">
        <ele>162</ele>
        <time>2015-12-20T10:44:39Z</time>
      </trkpt>
      <trkpt lat="44.53593" lon="0.62303">
        <ele>163</ele>
        <time>2015-12-20T10:44:44Z</time>
      </trkpt>
      <trkpt lat="44.53596" lon="0.62328">
        <ele>164</ele>
        <time>2015-12-20T10:44:50Z</time>
      </trkpt>
      <trkpt lat="44.53603" lon="0.62364">
        <ele>167</ele>
        <time>2015-12-20T10:44:58Z</time>
      </trkpt>
      <trkpt lat="44.53604" lon="0.62371">
        <ele>167</ele>
        <time>2015-12-20T10:45:00Z</time>
      </trkpt>
      <trkpt lat="44.53605" lon="0.62372">
        <ele>168</ele>
        <time>2015-12-20T10:45:04Z</time>
      </trkpt>
      <trkpt lat="44.53604" lon="0.62371">
        <ele>167</ele>
        <time>2015-12-20T10:45:07Z</time>
      </trkpt>
      <trkpt lat="44.53605" lon="0.62372">
        <ele>166</ele>
        <time>2015-12-20T10:45:10Z</time>
      </trkpt>
      <trkpt lat="44.53605" lon="0.62372">
        <ele>167</ele>
        <time>2015-12-20T10:45:15Z</time>
      </trkpt>
      <trkpt lat="44.53605" lon="0.62372">
        <ele>166</ele>
        <time>2015-12-20T10:45:16Z</time>
      </trkpt>
      <trkpt lat="44.53605" lon="0.62373">
        <ele>167</ele>
        <time>2015-12-20T10:45:19Z</time>
      </trkpt>
      <trkpt lat="44.53605" lon="0.62376">
        <ele>168</ele>
        <time>2015-12-20T10:45:22Z</time>
      </trkpt>
      <trkpt lat="44.53609" lon="0.62376">
        <ele>173</ele>
        <time>2015-12-20T10:45:30Z</time>
      </trkpt>
      <trkpt lat="44.53609" lon="0.62376">
        <ele>173</ele>
        <time>2015-12-20T10:45:32Z</time>
      </trkpt>
      <trkpt lat="44.53609" lon="0.62377">
        <ele>175</ele>
        <time>2015-12-20T10:45:35Z</time>
      </trkpt>
      <trkpt lat="44.53608" lon="0.62378">
        <ele>175</ele>
        <time>2015-12-20T10:45:38Z</time>
      </trkpt>
      <trkpt lat="44.53608" lon="0.6238">
        <ele>177</ele>
        <time>2015-12-20T10:45:41Z</time>
      </trkpt>
      <trkpt lat="44.53611" lon="0.62423">
        <ele>175</ele>
        <time>2015-12-20T10:45:49Z</time>
      </trkpt>
      <trkpt lat="44.53609" lon="0.62439">
        <ele>172</ele>
        <time>2015-12-20T10:45:51Z</time>
      </trkpt>
      <trkpt lat="44.53614" lon="0.62473">
        <ele>171</ele>
        <time>2015-12-20T10:45:56Z</time>
      </trkpt>
      <trkpt lat="44.5363" lon="0.62468">
        <ele>166</ele>
        <time>2015-12-20T10:46:01Z</time>
      </trkpt>
      <trkpt lat="44.53633" lon="0.62465">
        <ele>166</ele>
        <time>2015-12-20T10:46:07Z</time>
      </trkpt>
      <trkpt lat="44.53632" lon="0.62466">
        <ele>164</ele>
        <time>2015-12-20T10:46:12Z</time>
      </trkpt>
      <trkpt lat="44.53632" lon="0.62466">
        <ele>163</ele>
        <time>2015-12-20T10:46:15Z</time>
      </trkpt>
      <trkpt lat="44.53632" lon="0.62465">
        <ele>162</ele>
        <time>2015-12-20T10:46:19Z</time>
      </trkpt>
      <trkpt lat="44.53632" lon="0.62465">
        <ele>162</ele>
        <time>2015-12-20T10:46:20Z</time>
      </trkpt>
      <trkpt lat="44.53632" lon="0.62465">
        <ele>162</ele>
        <time>2015-12-20T10:46:23Z</time>
      </trkpt>
      <trkpt lat="44.53632" lon="0.62465">
        <ele>162</ele>
        <time>2015-12-20T10:46:26Z</time>
      </trkpt>
      <trkpt lat="44.53632" lon="0.62465">
        <ele>162</ele>
        <time>2015-12-20T10:46:30Z</time>
      </trkpt>
      <trkpt lat="44.53632" lon="0.62465">
        <ele>162</ele>
        <time>2015-12-20T10:46:32Z</time>
      </trkpt>
      <trkpt lat="44.53634" lon="0.62466">
        <ele>163</ele>
        <time>2015-12-20T10:46:35Z</time>
      </trkpt>
      <trkpt lat="44.53634" lon="0.62466">
        <ele>162</ele>
        <time>2015-12-20T10:46:40Z</time>
      </trkpt>
      <trkpt lat="44.53634" lon="0.62466">
        <ele>161</ele>
        <time>2015-12-20T10:46:43Z</time>
      </trkpt>
      <trkpt lat="44.53635" lon="0.62465">
        <ele>162</ele>
        <time>2015-12-20T10:46:47Z</time>
      </trkpt>
      <trkpt lat="44.53633" lon="0.62463">
        <ele>162</ele>
        <time>2015-12-20T10:46:49Z</time>
      </trkpt>
      <trkpt lat="44.53633" lon="0.62465">
        <ele>163</ele>
        <time>2015-12-20T10:46:56Z</time>
      </trkpt>
      <trkpt lat="44.53633" lon="0.62465">
        <ele>163</ele>
        <time>2015-12-20T10:46:57Z</time>
      </trkpt>
      <trkpt lat="44.53633" lon="0.62465">
        <ele>163</ele>
        <time>2015-12-20T10:47:00Z</time>
      </trkpt>
      <trkpt lat="44.53631" lon="0.62463">
        <ele>163</ele>
        <time>2015-12-20T10:47:03Z</time>
      </trkpt>
      <trkpt lat="44.53628" lon="0.62465">
        <ele>163</ele>
        <time>2015-12-20T10:47:08Z</time>
      </trkpt>
      <trkpt lat="44.53628" lon="0.62463">
        <ele>162</ele>
        <time>2015-12-20T10:47:14Z</time>
      </trkpt>
      <trkpt lat="44.53628" lon="0.62463">
        <ele>162</ele>
        <time>2015-12-20T10:47:18Z</time>
      </trkpt>
    </trkseg>
  </trk>
</gpx>